Wetterdaten: Sonntag, 05.05.2019
Datum Zeit Temp. A. Pool Temp. Temp. 5cm Feuchte A. Luftdruck Regen Wind Richtung Richtung Sonnenschein ET UV Solar Taupunkt Windchill Windben Empfang
05.05.2019 00:01 4,4 C 13,9 C 4,4 C 95 % 1006,9 hPa 0,0 l/m 10,3 km/h (2 Bft) W 276 0 min 0,000 mm 0,0 UV-I 0 W/m 3,7 C 1,2 C 19,3 km/h (3 Bft) 100,00 %
05.05.2019 00:02 4,4 C 13,9 C 4,4 C 95 % 1006,9 hPa 0,0 l/m 7,6 km/h (2 Bft) W-NW 302 0 min 0,000 mm 0,0 UV-I 0 W/m 3,7 C 3,3 C 11,3 km/h (2 Bft) 86,67 %
05.05.2019 00:04 4,4 C 13,9 C 4,4 C 95 % 1006,9 hPa 0,0 l/m 9,7 km/h (2 Bft) W-NW 286 0 min 0,000 mm 0,0 UV-I 0 W/m 3,7 C 1,6 C 17,7 km/h (3 Bft) 96,23 %
05.05.2019 00:06 4,4 C 13,9 C 4,4 C 95 % 1006,9 hPa 0,0 l/m 10,9 km/h (2 Bft) W-NW 286 0 min 0,000 mm 0,0 UV-I 0 W/m 3,7 C 0,8 C 17,7 km/h (3 Bft) 97,37 %
05.05.2019 00:08 4,4 C 13,9 C 4,4 C 95 % 1007,0 hPa 0,0 l/m 8,2 km/h (2 Bft) W-SW 248 0 min 0,000 mm 0,0 UV-I 0 W/m 3,7 C 2,8 C 16,1 km/h (3 Bft) 94,64 %
05.05.2019 00:10 4,4 C 13,9 C 4,4 C 95 % 1007,0 hPa 0,2 l/m 7,3 km/h (2 Bft) NW 309 0 min 0,000 mm 0,0 UV-I 0 W/m 3,7 C 3,6 C 16,1 km/h (3 Bft) 98,00 %
05.05.2019 00:12 4,3 C 13,9 C 4,4 C 95 % 1007,0 hPa 0,0 l/m 8,4 km/h (2 Bft) SW 236 0 min 0,000 mm 0,0 UV-I 0 W/m 3,6 C 2,5 C 14,5 km/h (3 Bft) 94,74 %
05.05.2019 00:14 4,3 C 13,9 C 4,4 C 95 % 1007,1 hPa 0,0 l/m 10,7 km/h (2 Bft) W-NW 288 0 min 0,000 mm 0,0 UV-I 0 W/m 3,6 C 0,8 C 17,7 km/h (3 Bft) 98,21 %
05.05.2019 00:16 4,3 C 13,9 C 4,4 C 95 % 1007,1 hPa 0,0 l/m 10,9 km/h (2 Bft) NW 322 0 min 0,000 mm 0,0 UV-I 0 W/m 3,6 C 0,7 C 20,9 km/h (4 Bft) 97,56 %
05.05.2019 00:18 4,3 C 13,9 C 4,4 C 95 % 1007,1 hPa 0,2 l/m 10,8 km/h (2 Bft) W-SW 257 0 min 0,000 mm 0,0 UV-I 0 W/m 3,6 C 0,7 C 17,7 km/h (3 Bft) 94,00 %
05.05.2019 00:20 4,3 C 13,9 C 4,4 C 95 % 1007,1 hPa 0,0 l/m 12,6 km/h (3 Bft) W-NW 286 0 min 0,000 mm 0,0 UV-I 0 W/m 3,6 C -0,4 C 20,9 km/h (4 Bft) 97,56 %
05.05.2019 00:22 4,3 C 13,9 C 4,4 C 95 % 1007,1 hPa 0,0 l/m 12,6 km/h (3 Bft) W-SW 252 0 min 0,000 mm 0,0 UV-I 0 W/m 3,6 C -0,4 C 24,1 km/h (4 Bft) 97,22 %
05.05.2019 00:24 4,3 C 13,9 C 4,4 C 95 % 1007,2 hPa 0,0 l/m 12,7 km/h (3 Bft) W-SW 254 0 min 0,000 mm 0,0 UV-I 0 W/m 3,6 C -0,5 C 20,9 km/h (4 Bft) 96,77 %
05.05.2019 00:26 4,3 C 13,9 C 4,4 C 95 % 1007,2 hPa 0,2 l/m 13,5 km/h (3 Bft) W-SW 254 0 min 0,000 mm 0,0 UV-I 0 W/m 3,6 C -0,9 C 19,3 km/h (3 Bft) 100,00 %
05.05.2019 00:28 4,2 C 13,9 C 4,4 C 95 % 1007,3 hPa 0,0 l/m 12,3 km/h (3 Bft) W-SW 257 0 min 0,000 mm 0,0 UV-I 0 W/m 3,5 C -0,4 C 19,3 km/h (3 Bft) 100,00 %
05.05.2019 00:30 4,3 C 13,9 C 4,4 C 95 % 1007,4 hPa 0,0 l/m 10,2 km/h (2 Bft) W 270 0 min 0,000 mm 0,0 UV-I 0 W/m 3,6 C 1,2 C 16,1 km/h (3 Bft) 98,11 %
05.05.2019 00:32 4,3 C 13,9 C 4,4 C 95 % 1007,4 hPa 0,0 l/m 11,8 km/h (2 Bft) W-SW 254 0 min 0,000 mm 0,0 UV-I 0 W/m 3,6 C 0,1 C 17,7 km/h (3 Bft) 96,00 %
05.05.2019 00:34 4,2 C 13,9 C 4,4 C 95 % 1007,5 hPa 0,0 l/m 13,3 km/h (3 Bft) W 265 0 min 0,000 mm 0,0 UV-I 0 W/m 3,5 C -1,0 C 19,3 km/h (3 Bft) 97,56 %
05.05.2019 00:36 4,2 C 13,9 C 4,4 C 95 % 1007,5 hPa 0,2 l/m 10,6 km/h (2 Bft) W 273 0 min 0,000 mm 0,0 UV-I 0 W/m 3,5 C 0,8 C 16,1 km/h (3 Bft) 98,00 %
05.05.2019 00:38 4,2 C 13,9 C 4,4 C 95 % 1007,5 hPa 0,0 l/m 9,8 km/h (2 Bft) W-NW 284 0 min 0,000 mm 0,0 UV-I 0 W/m 3,5 C 1,3 C 16,1 km/h (3 Bft) 97,87 %
05.05.2019 00:40 4,2 C 13,9 C 4,4 C 95 % 1007,5 hPa 0,0 l/m 10,3 km/h (2 Bft) W 261 0 min 0,000 mm 0,0 UV-I 0 W/m 3,5 C 1,0 C 16,1 km/h (3 Bft) 97,73 %
05.05.2019 00:42 4,2 C 13,9 C 4,4 C 95 % 1007,5 hPa 0,0 l/m 13,4 km/h (3 Bft) W 281 0 min 0,000 mm 0,0 UV-I 0 W/m 3,5 C -1,0 C 17,7 km/h (3 Bft) 98,11 %
05.05.2019 00:44 4,1 C 13,9 C 3,9 C 95 % 1007,5 hPa 0,2 l/m 16,2 km/h (3 Bft) W 265 0 min 0,000 mm 0,0 UV-I 0 W/m 3,4 C -2,6 C 24,1 km/h (4 Bft) 93,18 %
05.05.2019 00:46 4,1 C 13,9 C 3,9 C 95 % 1007,6 hPa 0,0 l/m 16,6 km/h (3 Bft) W 275 0 min 0,000 mm 0,0 UV-I 0 W/m 3,4 C -2,8 C 27,4 km/h (4 Bft) 97,37 %
05.05.2019 00:48 4,0 C 13,9 C 3,9 C 95 % 1007,6 hPa 0,0 l/m 13,9 km/h (3 Bft) W-SW 248 0 min 0,000 mm 0,0 UV-I 0 W/m 3,3 C -1,5 C 17,7 km/h (3 Bft) 98,11 %
05.05.2019 00:50 3,9 C 13,9 C 3,9 C 95 % 1007,7 hPa 0,2 l/m 14,6 km/h (3 Bft) W 261 0 min 0,000 mm 0,0 UV-I 0 W/m 3,2 C -2,0 C 22,5 km/h (4 Bft) 96,00 %
05.05.2019 00:52 3,9 C 13,9 C 3,9 C 95 % 1007,7 hPa 0,0 l/m 13,7 km/h (3 Bft) W-NW 296 0 min 0,000 mm 0,0 UV-I 0 W/m 3,2 C -1,5 C 24,1 km/h (4 Bft) 97,37 %
05.05.2019 00:54 3,8 C 13,9 C 3,9 C 95 % 1007,8 hPa 0,2 l/m 16,1 km/h (3 Bft) W-SW 250 0 min 0,000 mm 0,0 UV-I 0 W/m 3,1 C -2,9 C 25,7 km/h (4 Bft) 95,74 %
05.05.2019 00:56 3,7 C 13,9 C 3,9 C 95 % 1007,8 hPa 0,0 l/m 19,2 km/h (3 Bft) W 261 0 min 0,000 mm 0,0 UV-I 0 W/m 3,0 C -4,5 C 27,4 km/h (4 Bft) 97,73 %
05.05.2019 00:58 3,7 C 13,9 C 3,9 C 95 % 1007,8 hPa 0,2 l/m 14,9 km/h (3 Bft) W-NW 282 0 min 0,000 mm 0,0 UV-I 0 W/m 3,0 C -2,4 C 25,7 km/h (4 Bft) 96,00 %
05.05.2019 01:00 3,7 C 13,9 C 3,9 C 95 % 1008,0 hPa 0,0 l/m 14,5 km/h (3 Bft) W-SW 254 0 min 0,000 mm 0,0 UV-I 0 W/m 3,0 C -2,2 C 25,7 km/h (4 Bft) 97,92 %
05.05.2019 01:01 3,6 C 13,9 C 3,9 C 95 % 1008,0 hPa 0,0 l/m 14,7 km/h (3 Bft) W-NW 286 0 min 0,000 mm 0,0 UV-I 0 W/m 2,9 C -2,5 C 25,7 km/h (4 Bft) 97,87 %
05.05.2019 01:04 3,6 C 13,9 C 3,3 C 95 % 1008,0 hPa 0,2 l/m 17,2 km/h (3 Bft) W-SW 250 0 min 0,000 mm 0,0 UV-I 0 W/m 2,9 C -3,7 C 29,0 km/h (5 Bft) 98,11 %
05.05.2019 01:06 3,5 C 13,9 C 3,3 C 95 % 1008,1 hPa 0,2 l/m 15,1 km/h (3 Bft) W-NW 290 0 min 0,000 mm 0,0 UV-I 0 W/m 2,8 C -2,8 C 20,9 km/h (4 Bft) 97,37 %
05.05.2019 01:08 3,4 C 13,9 C 3,3 C 94 % 1008,1 hPa 0,0 l/m 16,3 km/h (3 Bft) NW 309 0 min 0,000 mm 0,0 UV-I 0 W/m 2,5 C -3,5 C 29,0 km/h (5 Bft) 93,55 %
05.05.2019 01:10 3,4 C 13,9 C 3,3 C 94 % 1008,2 hPa 0,2 l/m 15,7 km/h (3 Bft) W 277 0 min 0,000 mm 0,0 UV-I 0 W/m 2,5 C -3,2 C 22,5 km/h (4 Bft) 97,87 %
05.05.2019 01:12 3,4 C 13,9 C 3,3 C 94 % 1008,2 hPa 0,2 l/m 15,1 km/h (3 Bft) W 277 0 min 0,000 mm 0,0 UV-I 0 W/m 2,5 C -2,9 C 24,1 km/h (4 Bft) 97,73 %
05.05.2019 01:14 3,3 C 13,9 C 3,3 C 94 % 1008,3 hPa 0,0 l/m 16,9 km/h (3 Bft) W 262 0 min 0,000 mm 0,0 UV-I 0 W/m 2,4 C -4,0 C 25,7 km/h (4 Bft) 97,87 %
05.05.2019 01:16 3,3 C 13,9 C 3,3 C 94 % 1008,3 hPa 0,2 l/m 17,1 km/h (3 Bft) W 273 0 min 0,000 mm 0,0 UV-I 0 W/m 2,4 C -4,1 C 24,1 km/h (4 Bft) 100,00 %
05.05.2019 01:18 3,2 C 13,9 C 3,3 C 94 % 1008,3 hPa 0,0 l/m 14,6 km/h (3 Bft) W 278 0 min 0,000 mm 0,0 UV-I 0 W/m 2,3 C -2,9 C 24,1 km/h (4 Bft) 96,92 %
05.05.2019 01:20 3,2 C 13,9 C 3,3 C 94 % 1008,4 hPa 0,2 l/m 14,0 km/h (3 Bft) W-NW 299 0 min 0,000 mm 0,0 UV-I 0 W/m 2,3 C -2,5 C 20,9 km/h (4 Bft) 97,87 %
05.05.2019 01:22 3,2 C 13,9 C 3,3 C 94 % 1008,4 hPa 0,0 l/m 10,7 km/h (2 Bft) W 262 0 min 0,000 mm 0,0 UV-I 0 W/m 2,3 C -0,4 C 16,1 km/h (3 Bft) 95,45 %
05.05.2019 01:24 3,2 C 13,9 C 3,3 C 95 % 1008,4 hPa 0,0 l/m 9,3 km/h (2 Bft) W-NW 289 0 min 0,000 mm 0,0 UV-I 0 W/m 2,5 C 0,6 C 14,5 km/h (3 Bft) 98,11 %
05.05.2019 01:26 3,2 C 13,9 C 3,3 C 95 % 1008,4 hPa 0,2 l/m 13,4 km/h (3 Bft) W 270 0 min 0,000 mm 0,0 UV-I 0 W/m 2,5 C -2,2 C 19,3 km/h (3 Bft) 97,87 %
05.05.2019 01:28 3,1 C 13,9 C 2,8 C 94 % 1008,4 hPa 0,2 l/m 13,6 km/h (3 Bft) W 259 0 min 0,000 mm 0,0 UV-I 0 W/m 2,2 C -2,4 C 22,5 km/h (4 Bft) 97,37 %
05.05.2019 01:30 3,0 C 13,9 C 2,8 C 94 % 1008,4 hPa 0,2 l/m 10,1 km/h (2 Bft) W 263 0 min 0,000 mm 0,0 UV-I 0 W/m 2,1 C -0,2 C 14,5 km/h (3 Bft) 100,00 %
05.05.2019 01:32 3,0 C 13,9 C 2,8 C 94 % 1008,4 hPa 0,2 l/m 12,6 km/h (3 Bft) W 269 0 min 0,000 mm 0,0 UV-I 0 W/m 2,1 C -1,9 C 19,3 km/h (3 Bft) 97,87 %
05.05.2019 01:34 2,9 C 13,9 C 2,8 C 94 % 1008,3 hPa 0,0 l/m 11,6 km/h (2 Bft) W 269 0 min 0,000 mm 0,0 UV-I 0 W/m 2,0 C -1,4 C 19,3 km/h (3 Bft) 100,00 %
05.05.2019 01:36 2,8 C 13,9 C 2,8 C 94 % 1008,4 hPa 0,0 l/m 8,9 km/h (2 Bft) W 278 0 min 0,000 mm 0,0 UV-I 0 W/m 1,9 C 0,5 C 12,9 km/h (3 Bft) 100,00 %
05.05.2019 01:38 2,9 C 13,9 C 2,8 C 95 % 1008,5 hPa 0,2 l/m 7,9 km/h (2 Bft) W-SW 244 0 min 0,000 mm 0,0 UV-I 0 W/m 2,2 C 1,5 C 14,5 km/h (3 Bft) 100,00 %
05.05.2019 01:40 2,9 C 13,3 C 2,8 C 95 % 1008,5 hPa 0,0 l/m 13,0 km/h (3 Bft) W 259 0 min 0,000 mm 0,0 UV-I 0 W/m 2,2 C -2,3 C 22,5 km/h (4 Bft) 100,00 %
05.05.2019 01:42 2,9 C 13,3 C 2,8 C 95 % 1008,5 hPa 0,0 l/m 10,4 km/h (2 Bft) W-SW 257 0 min 0,000 mm 0,0 UV-I 0 W/m 2,2 C -0,5 C 17,7 km/h (3 Bft) 100,00 %
05.05.2019 01:44 2,8 C 13,3 C 2,8 C 95 % 1008,6 hPa 0,2 l/m 11,9 km/h (2 Bft) W 273 0 min 0,000 mm 0,0 UV-I 0 W/m 2,1 C -1,7 C 17,7 km/h (3 Bft) 100,00 %
05.05.2019 01:46 2,8 C 13,3 C 2,8 C 95 % 1008,6 hPa 0,0 l/m 11,3 km/h (2 Bft) W 267 0 min 0,000 mm 0,0 UV-I 0 W/m 2,1 C -1,3 C 16,1 km/h (3 Bft) 100,00 %
05.05.2019 01:48 2,8 C 13,3 C 2,8 C 95 % 1008,7 hPa 0,0 l/m 9,6 km/h (2 Bft) W-SW 252 0 min 0,000 mm 0,0 UV-I 0 W/m 2,1 C -0,0 C 16,1 km/h (3 Bft) 100,00 %
05.05.2019 01:50 2,8 C 13,3 C 2,8 C 95 % 1008,6 hPa 0,0 l/m 11,4 km/h (2 Bft) W 260 0 min 0,000 mm 0,0 UV-I 0 W/m 2,1 C -1,4 C 14,5 km/h (3 Bft) 97,73 %
05.05.2019 01:52 2,8 C 13,3 C 2,8 C 95 % 1008,7 hPa 0,2 l/m 10,1 km/h (2 Bft) W-SW 250 0 min 0,000 mm 0,0 UV-I 0 W/m 2,1 C -0,4 C 12,9 km/h (3 Bft) 100,00 %
05.05.2019 01:54 2,8 C 13,3 C 2,8 C 95 % 1008,7 hPa 0,0 l/m 11,4 km/h (2 Bft) W 267 0 min 0,000 mm 0,0 UV-I 0 W/m 2,1 C -1,4 C 17,7 km/h (3 Bft) 98,00 %
05.05.2019 01:56 2,7 C 13,3 C 2,8 C 95 % 1008,7 hPa 0,2 l/m 13,3 km/h (3 Bft) W 259 0 min 0,000 mm 0,0 UV-I 0 W/m 2,0 C -2,7 C 17,7 km/h (3 Bft) 100,00 %
05.05.2019 01:58 2,7 C 13,3 C 2,8 C 95 % 1008,7 hPa 0,0 l/m 13,0 km/h (3 Bft) W 279 0 min 0,000 mm 0,0 UV-I 0 W/m 2,0 C -2,5 C 17,7 km/h (3 Bft) 100,00 %
05.05.2019 02:00 2,6 C 13,3 C 2,8 C 95 % 1008,7 hPa 0,0 l/m 10,9 km/h (2 Bft) W 267 0 min 0,000 mm 0,0 UV-I 0 W/m 1,9 C -1,2 C 19,3 km/h (3 Bft) 98,00 %
05.05.2019 02:02 2,6 C 13,3 C 2,8 C 95 % 1008,7 hPa 0,2 l/m 13,0 km/h (3 Bft) W 270 0 min 0,000 mm 0,0 UV-I 0 W/m 1,9 C -2,7 C 17,7 km/h (3 Bft) 100,00 %
05.05.2019 02:04 2,5 C 13,3 C 2,8 C 95 % 1008,7 hPa 0,0 l/m 13,0 km/h (3 Bft) W 277 0 min 0,000 mm 0,0 UV-I 0 W/m 1,8 C -2,8 C 16,1 km/h (3 Bft) 100,00 %
05.05.2019 02:06 2,6 C 13,9 C 2,8 C 95 % 1008,7 hPa 0,0 l/m 8,5 km/h (2 Bft) W 260 0 min 0,000 mm 0,0 UV-I 0 W/m 1,9 C 0,6 C 14,5 km/h (3 Bft) 100,00 %
05.05.2019 02:08 2,5 C 13,3 C 2,8 C 95 % 1008,7 hPa 0,0 l/m 10,5 km/h (2 Bft) W 270 0 min 0,000 mm 0,0 UV-I 0 W/m 1,8 C -1,1 C 16,1 km/h (3 Bft) 100,00 %
05.05.2019 02:10 2,5 C 13,3 C 2,8 C 95 % 1008,7 hPa 0,2 l/m 8,3 km/h (2 Bft) W 274 0 min 0,000 mm 0,0 UV-I 0 W/m 1,8 C 0,7 C 12,9 km/h (3 Bft) 97,87 %
05.05.2019 02:12 2,5 C 13,3 C 2,8 C 95 % 1008,7 hPa 0,0 l/m 5,7 km/h (1 Bft) W 263 0 min 0,000 mm 0,0 UV-I 0 W/m 1,8 C 2,5 C 11,3 km/h (2 Bft) 100,00 %
05.05.2019 02:14 2,6 C 13,3 C 2,8 C 95 % 1008,8 hPa 0,0 l/m 5,8 km/h (2 Bft) W-NW 287 0 min 0,000 mm 0,0 UV-I 0 W/m 1,9 C 2,6 C 9,7 km/h (2 Bft) 100,00 %
05.05.2019 02:16 2,6 C 13,3 C 2,8 C 95 % 1008,8 hPa 0,0 l/m 6,0 km/h (2 Bft) W 265 0 min 0,000 mm 0,0 UV-I 0 W/m 1,9 C 2,6 C 12,9 km/h (3 Bft) 100,00 %
05.05.2019 02:18 2,6 C 13,3 C 2,8 C 95 % 1008,8 hPa 0,0 l/m 7,8 km/h (2 Bft) NW 316 0 min 0,000 mm 0,0 UV-I 0 W/m 1,9 C 1,3 C 12,9 km/h (3 Bft) 100,00 %
05.05.2019 02:20 2,6 C 13,3 C 2,8 C 95 % 1008,9 hPa 0,0 l/m 2,3 km/h (1 Bft) NW 316 0 min 0,000 mm 0,0 UV-I 0 W/m 1,9 C 2,6 C 4,8 km/h (1 Bft) 98,11 %
05.05.2019 02:22 2,6 C 13,3 C 2,8 C 95 % 1008,9 hPa 0,0 l/m 2,9 km/h (1 Bft) W-NW 284 0 min 0,000 mm 0,0 UV-I 0 W/m 1,9 C 2,6 C 6,4 km/h (2 Bft) 97,44 %
05.05.2019 02:24 2,7 C 13,3 C 2,8 C 95 % 1008,9 hPa 0,2 l/m 4,5 km/h (1 Bft) W 263 0 min 0,000 mm 0,0 UV-I 0 W/m 2,0 C 2,7 C 9,7 km/h (2 Bft) 98,11 %
05.05.2019 02:26 2,7 C 13,3 C 2,8 C 95 % 1008,9 hPa 0,0 l/m 4,4 km/h (1 Bft) W-NW 293 0 min 0,000 mm 0,0 UV-I 0 W/m 2,0 C 2,7 C 9,7 km/h (2 Bft) 95,74 %
05.05.2019 02:28 2,7 C 13,3 C 2,8 C 95 % 1008,9 hPa 0,0 l/m 5,2 km/h (1 Bft) NW 324 0 min 0,000 mm 0,0 UV-I 0 W/m 2,0 C 2,7 C 12,9 km/h (3 Bft) 100,00 %
05.05.2019 02:30 2,7 C 13,3 C 2,8 C 95 % 1008,9 hPa 0,0 l/m 2,8 km/h (1 Bft) W-NW 287 0 min 0,000 mm 0,0 UV-I 0 W/m 2,0 C 2,7 C 6,4 km/h (2 Bft) 97,87 %
05.05.2019 02:32 2,7 C 13,3 C 2,8 C 95 % 1008,9 hPa 0,0 l/m 7,1 km/h (2 Bft) W 263 0 min 0,000 mm 0,0 UV-I 0 W/m 2,0 C 2,0 C 16,1 km/h (3 Bft) 96,00 %
05.05.2019 02:34 2,7 C 13,3 C 2,8 C 95 % 1008,9 hPa 0,2 l/m 6,1 km/h (2 Bft) W 277 0 min 0,000 mm 0,0 UV-I 0 W/m 2,0 C 2,7 C 14,5 km/h (3 Bft) 93,62 %
05.05.2019 02:36 2,7 C 13,3 C 2,8 C 95 % 1008,9 hPa 0,0 l/m 5,7 km/h (1 Bft) N-NW 327 0 min 0,000 mm 0,0 UV-I 0 W/m 2,0 C 2,7 C 11,3 km/h (2 Bft) 96,00 %
05.05.2019 02:38 2,7 C 13,3 C 2,8 C 95 % 1008,9 hPa 0,0 l/m 10,3 km/h (2 Bft) N 355 0 min 0,000 mm 0,0 UV-I 0 W/m 2,0 C -0,7 C 16,1 km/h (3 Bft) 94,74 %
05.05.2019 02:40 2,6 C 13,3 C 2,8 C 95 % 1009,0 hPa 0,0 l/m 10,0 km/h (2 Bft) N 5 0 min 0,000 mm 0,0 UV-I 0 W/m 1,9 C -0,6 C 20,9 km/h (4 Bft) 98,21 %
05.05.2019 02:42 2,7 C 13,3 C 2,8 C 95 % 1009,0 hPa 0,0 l/m 6,5 km/h (2 Bft) W 268 0 min 0,000 mm 0,0 UV-I 0 W/m 2,0 C 2,6 C 11,3 km/h (2 Bft) 92,11 %
05.05.2019 02:44 2,7 C 13,3 C 2,8 C 95 % 1009,0 hPa 0,2 l/m 2,3 km/h (1 Bft) W-NW 283 0 min 0,000 mm 0,0 UV-I 0 W/m 2,0 C 2,7 C 8,0 km/h (2 Bft) 96,00 %
05.05.2019 02:46 2,7 C 13,3 C 2,8 C 95 % 1009,1 hPa 0,0 l/m 5,2 km/h (1 Bft) W 271 0 min 0,000 mm 0,0 UV-I 0 W/m 2,0 C 2,7 C 11,3 km/h (2 Bft) 98,00 %
05.05.2019 02:48 2,7 C 13,3 C 2,8 C 95 % 1009,1 hPa 0,0 l/m 5,8 km/h (2 Bft) W-SW 249 0 min 0,000 mm 0,0 UV-I 0 W/m 2,0 C 2,7 C 14,5 km/h (3 Bft) 97,37 %
05.05.2019 02:50 2,6 C 13,3 C 2,8 C 95 % 1009,1 hPa 0,0 l/m 12,6 km/h (3 Bft) W-SW 257 0 min 0,000 mm 0,0 UV-I 0 W/m 1,9 C -2,4 C 19,3 km/h (3 Bft) 96,00 %
05.05.2019 02:52 2,4 C 13,3 C 2,8 C 95 % 1009,1 hPa 0,0 l/m 13,2 km/h (3 Bft) W 279 0 min 0,000 mm 0,0 UV-I 0 W/m 1,7 C -3,0 C 19,3 km/h (3 Bft) 96,23 %
05.05.2019 02:54 2,3 C 13,3 C 2,8 C 94 % 1009,2 hPa 0,0 l/m 10,9 km/h (2 Bft) W 273 0 min 0,000 mm 0,0 UV-I 0 W/m 1,4 C -1,6 C 17,7 km/h (3 Bft) 98,00 %
05.05.2019 02:56 2,3 C 13,3 C 2,8 C 95 % 1009,2 hPa 0,0 l/m 13,6 km/h (3 Bft) W-SW 255 0 min 0,000 mm 0,0 UV-I 0 W/m 1,6 C -3,4 C 20,9 km/h (4 Bft) 95,24 %
05.05.2019 02:58 2,2 C 13,3 C 2,2 C 95 % 1009,2 hPa 0,2 l/m 13,6 km/h (3 Bft) W 268 0 min 0,000 mm 0,0 UV-I 0 W/m 1,5 C -3,5 C 17,7 km/h (3 Bft) 97,37 %
05.05.2019 03:00 2,2 C 13,3 C 2,2 C 95 % 1009,2 hPa 0,0 l/m 13,2 km/h (3 Bft) W 280 0 min 0,000 mm 0,0 UV-I 0 W/m 1,5 C -3,2 C 19,3 km/h (3 Bft) 95,16 %
05.05.2019 03:02 2,2 C 13,3 C 2,2 C 95 % 1009,3 hPa 0,0 l/m 12,4 km/h (3 Bft) W-SW 247 0 min 0,000 mm 0,0 UV-I 0 W/m 1,5 C -2,7 C 19,3 km/h (3 Bft) 95,74 %
05.05.2019 03:04 2,1 C 13,3 C 2,2 C 95 % 1009,3 hPa 0,0 l/m 12,9 km/h (3 Bft) W 271 0 min 0,000 mm 0,0 UV-I 0 W/m 1,4 C -3,2 C 19,3 km/h (3 Bft) 94,74 %
05.05.2019 03:06 2,1 C 13,3 C 2,2 C 95 % 1009,3 hPa 0,0 l/m 11,3 km/h (2 Bft) W 275 0 min 0,000 mm 0,0 UV-I 0 W/m 1,4 C -2,1 C 19,3 km/h (3 Bft) 98,00 %
05.05.2019 03:08 2,0 C 13,3 C 2,2 C 95 % 1009,3 hPa 0,0 l/m 15,2 km/h (3 Bft) W 277 0 min 0,000 mm 0,0 UV-I 0 W/m 1,3 C -4,7 C 20,9 km/h (4 Bft) 96,00 %
05.05.2019 03:10 2,0 C 13,3 C 2,2 C 95 % 1009,4 hPa 0,0 l/m 11,6 km/h (2 Bft) W 270 0 min 0,000 mm 0,0 UV-I 0 W/m 1,3 C -2,4 C 16,1 km/h (3 Bft) 97,73 %
05.05.2019 03:12 1,9 C 13,3 C 2,2 C 95 % 1009,4 hPa 0,2 l/m 15,5 km/h (3 Bft) W-SW 250 0 min 0,000 mm 0,0 UV-I 0 W/m 1,2 C -5,0 C 20,9 km/h (4 Bft) 96,23 %
05.05.2019 03:14 1,8 C 13,3 C 2,2 C 95 % 1009,5 hPa 0,0 l/m 12,9 km/h (3 Bft) W 259 0 min 0,000 mm 0,0 UV-I 0 W/m 1,1 C -3,5 C 17,7 km/h (3 Bft) 97,37 %
05.05.2019 03:16 1,8 C 13,3 C 2,2 C 95 % 1009,4 hPa 0,0 l/m 10,9 km/h (2 Bft) SW 235 0 min 0,000 mm 0,0 UV-I 0 W/m 1,1 C -2,1 C 16,1 km/h (3 Bft) 97,87 %
05.05.2019 03:18 1,8 C 13,3 C 2,2 C 95 % 1009,5 hPa 0,0 l/m 9,3 km/h (2 Bft) W 269 0 min 0,000 mm 0,0 UV-I 0 W/m 1,1 C -0,9 C 14,5 km/h (3 Bft) 97,56 %
05.05.2019 03:20 1,8 C 13,3 C 2,2 C 95 % 1009,6 hPa 0,0 l/m 9,7 km/h (2 Bft) W 262 0 min 0,000 mm 0,0 UV-I 0 W/m 1,1 C -1,2 C 14,5 km/h (3 Bft) 98,21 %
05.05.2019 03:22 1,8 C 13,3 C 2,2 C 95 % 1009,7 hPa 0,2 l/m 9,9 km/h (2 Bft) W 264 0 min 0,000 mm 0,0 UV-I 0 W/m 1,1 C -1,4 C 14,5 km/h (3 Bft) 94,74 %
05.05.2019 03:24 1,8 C 13,3 C 2,2 C 95 % 1009,6 hPa 0,0 l/m 9,2 km/h (2 Bft) W 279 0 min 0,000 mm 0,0 UV-I 0 W/m 1,1 C -0,8 C 16,1 km/h (3 Bft) 98,21 %
05.05.2019 03:26 1,8 C 13,3 C 2,2 C 95 % 1009,7 hPa 0,0 l/m 7,6 km/h (2 Bft) W-SW 254 0 min 0,000 mm 0,0 UV-I 0 W/m 1,1 C 0,6 C 11,3 km/h (2 Bft) 98,00 %
05.05.2019 03:28 1,8 C 13,3 C 2,2 C 95 % 1009,7 hPa 0,0 l/m 10,3 km/h (2 Bft) W-SW 248 0 min 0,000 mm 0,0 UV-I 0 W/m 1,1 C -1,7 C 14,5 km/h (3 Bft) 97,37 %
05.05.2019 03:30 1,8 C 13,3 C 2,2 C 95 % 1009,7 hPa 0,0 l/m 12,3 km/h (3 Bft) W 263 0 min 0,000 mm 0,0 UV-I 0 W/m 1,1 C -3,1 C 17,7 km/h (3 Bft) 97,92 %
05.05.2019 03:32 1,7 C 13,3 C 2,2 C 95 % 1009,7 hPa 0,0 l/m 11,3 km/h (2 Bft) W-SW 257 0 min 0,000 mm 0,0 UV-I 0 W/m 1,0 C -2,6 C 16,1 km/h (3 Bft) 96,15 %
05.05.2019 03:34 1,7 C 13,3 C 1,7 C 95 % 1009,7 hPa 0,0 l/m 7,9 km/h (2 Bft) W 268 0 min 0,000 mm 0,0 UV-I 0 W/m 1,0 C 0,2 C 12,9 km/h (3 Bft) 98,00 %
05.05.2019 03:36 1,7 C 13,3 C 1,7 C 95 % 1009,7 hPa 0,0 l/m 3,2 km/h (1 Bft) W 261 0 min 0,000 mm 0,0 UV-I 0 W/m 1,0 C 1,7 C 6,4 km/h (2 Bft) 97,44 %
05.05.2019 03:38 1,7 C 13,3 C 1,7 C 95 % 1009,7 hPa 0,2 l/m 7,9 km/h (2 Bft) NW 309 0 min 0,000 mm 0,0 UV-I 0 W/m 1,0 C 0,2 C 12,9 km/h (3 Bft) 98,00 %
05.05.2019 03:40 1,7 C 13,3 C 2,2 C 95 % 1009,7 hPa 0,0 l/m 6,3 km/h (2 Bft) W-SW 242 0 min 0,000 mm 0,0 UV-I 0 W/m 1,0 C 1,7 C 9,7 km/h (2 Bft) 94,74 %
05.05.2019 03:42 1,7 C 13,3 C 2,2 C 95 % 1009,8 hPa 0,0 l/m 5,0 km/h (1 Bft) W 260 0 min 0,000 mm 0,0 UV-I 0 W/m 1,0 C 1,7 C 6,4 km/h (2 Bft) 96,23 %
05.05.2019 03:44 1,7 C 13,3 C 2,2 C 95 % 1009,9 hPa 0,0 l/m 6,0 km/h (2 Bft) W-SW 250 0 min 0,000 mm 0,0 UV-I 0 W/m 1,0 C 1,7 C 9,7 km/h (2 Bft) 96,00 %
05.05.2019 03:46 1,7 C 13,3 C 2,2 C 95 % 1009,9 hPa 0,0 l/m 7,2 km/h (2 Bft) W 267 0 min 0,000 mm 0,0 UV-I 0 W/m 1,0 C 0,9 C 11,3 km/h (2 Bft) 95,12 %
05.05.2019 03:48 1,7 C 13,3 C 2,2 C 95 % 1010,1 hPa 0,0 l/m 8,3 km/h (2 Bft) W 265 0 min 0,000 mm 0,0 UV-I 0 W/m 1,0 C -0,1 C 12,9 km/h (3 Bft) 95,74 %
05.05.2019 03:50 1,8 C 13,3 C 2,2 C 95 % 1010,0 hPa 0,2 l/m 7,6 km/h (2 Bft) W 268 0 min 0,000 mm 0,0 UV-I 0 W/m 1,1 C 0,6 C 11,3 km/h (2 Bft) 95,74 %
05.05.2019 03:52 1,8 C 13,3 C 2,2 C 95 % 1010,1 hPa 0,0 l/m 6,1 km/h (2 Bft) W-SW 244 0 min 0,000 mm 0,0 UV-I 0 W/m 1,1 C 1,8 C 9,7 km/h (2 Bft) 92,86 %
05.05.2019 03:54 1,7 C 13,3 C 2,2 C 95 % 1010,1 hPa 0,0 l/m 5,5 km/h (1 Bft) W 267 0 min 0,000 mm 0,0 UV-I 0 W/m 1,0 C 1,7 C 11,3 km/h (2 Bft) 100,00 %
05.05.2019 03:56 1,7 C 13,3 C 2,2 C 95 % 1010,1 hPa 0,0 l/m 5,9 km/h (2 Bft) W 263 0 min 0,000 mm 0,0 UV-I 0 W/m 1,0 C 1,7 C 9,7 km/h (2 Bft) 93,85 %
05.05.2019 03:58 1,8 C 13,3 C 2,2 C 96 % 1010,1 hPa 0,0 l/m 7,3 km/h (2 Bft) W-SW 245 0 min 0,000 mm 0,0 UV-I 0 W/m 1,2 C 0,9 C 11,3 km/h (2 Bft) 98,00 %
05.05.2019 04:00 1,8 C 13,3 C 2,2 C 96 % 1010,2 hPa 0,0 l/m 4,1 km/h (1 Bft) W-SW 255 0 min 0,000 mm 0,0 UV-I 0 W/m 1,2 C 1,8 C 8,0 km/h (2 Bft) 97,37 %
05.05.2019 04:02 1,8 C 13,3 C 2,2 C 96 % 1010,2 hPa 0,0 l/m 5,9 km/h (2 Bft) SW 220 0 min 0,000 mm 0,0 UV-I 0 W/m 1,2 C 1,8 C 8,0 km/h (2 Bft) 100,00 %
05.05.2019 04:04 1,9 C 13,3 C 2,2 C 96 % 1010,1 hPa 0,0 l/m 6,5 km/h (2 Bft) W-SW 238 0 min 0,000 mm 0,0 UV-I 0 W/m 1,3 C 1,8 C 11,3 km/h (2 Bft) 100,00 %
05.05.2019 04:06 1,9 C 13,3 C 2,2 C 96 % 1010,2 hPa 0,0 l/m 4,6 km/h (1 Bft) W-SW 237 0 min 0,000 mm 0,0 UV-I 0 W/m 1,3 C 1,9 C 6,4 km/h (2 Bft) 100,00 %
05.05.2019 04:08 1,8 C 13,3 C 2,2 C 96 % 1010,2 hPa 0,0 l/m 5,3 km/h (1 Bft) SW 233 0 min 0,000 mm 0,0 UV-I 0 W/m 1,2 C 1,8 C 8,0 km/h (2 Bft) 94,00 %
05.05.2019 04:10 1,9 C 13,3 C 2,2 C 96 % 1010,2 hPa 0,0 l/m 4,3 km/h (1 Bft) S 186 0 min 0,000 mm 0,0 UV-I 0 W/m 1,3 C 1,9 C 6,4 km/h (2 Bft) 100,00 %
05.05.2019 04:12 1,8 C 13,3 C 2,2 C 96 % 1010,2 hPa 0,2 l/m 3,5 km/h (1 Bft) S 188 0 min 0,000 mm 0,0 UV-I 0 W/m 1,2 C 1,8 C 4,8 km/h (1 Bft) 100,00 %
05.05.2019 04:14 1,9 C 13,3 C 2,2 C 96 % 1010,2 hPa 0,0 l/m 1,4 km/h (1 Bft) S 188 0 min 0,000 mm 0,0 UV-I 0 W/m 1,3 C 1,9 C 3,2 km/h (1 Bft) 100,00 %
05.05.2019 04:16 1,9 C 13,3 C 2,2 C 96 % 1010,2 hPa 0,0 l/m 2,2 km/h (1 Bft) S-SW 194 0 min 0,000 mm 0,0 UV-I 0 W/m 1,3 C 1,9 C 4,8 km/h (1 Bft) 100,00 %
05.05.2019 04:18 2,0 C 13,3 C 2,2 C 96 % 1010,2 hPa 0,0 l/m 5,0 km/h (1 Bft) SW 235 0 min 0,000 mm 0,0 UV-I 0 W/m 1,4 C 2,0 C 6,4 km/h (2 Bft) 100,00 %
05.05.2019 04:20 2,0 C 13,3 C 2,2 C 96 % 1010,2 hPa 0,0 l/m 3,4 km/h (1 Bft) W-SW 237 0 min 0,000 mm 0,0 UV-I 0 W/m 1,4 C 2,0 C 4,8 km/h (1 Bft) 100,00 %
05.05.2019 04:22 2,0 C 13,3 C 2,2 C 96 % 1010,2 hPa 0,0 l/m 3,1 km/h (1 Bft) SW 234 0 min 0,000 mm 0,0 UV-I 0 W/m 1,4 C 2,0 C 4,8 km/h (1 Bft) 100,00 %
05.05.2019 04:24 2,0 C 13,3 C 2,2 C 96 % 1010,3 hPa 0,0 l/m 4,6 km/h (1 Bft) SW 222 0 min 0,000 mm 0,0 UV-I 0 W/m 1,4 C 2,0 C 8,0 km/h (2 Bft) 100,00 %
05.05.2019 04:26 2,0 C 13,3 C 2,2 C 96 % 1010,2 hPa 0,0 l/m 5,7 km/h (1 Bft) W-SW 253 0 min 0,000 mm 0,0 UV-I 0 W/m 1,4 C 2,0 C 8,0 km/h (2 Bft) 100,00 %
05.05.2019 04:28 2,0 C 13,3 C 2,2 C 96 % 1010,3 hPa 0,2 l/m 4,9 km/h (1 Bft) W-SW 256 0 min 0,000 mm 0,0 UV-I 0 W/m 1,4 C 2,0 C 8,0 km/h (2 Bft) 100,00 %
05.05.2019 04:30 2,1 C 13,3 C 2,2 C 96 % 1010,2 hPa 0,0 l/m 4,1 km/h (1 Bft) W 260 0 min 0,000 mm 0,0 UV-I 0 W/m 1,5 C 2,1 C 4,8 km/h (1 Bft) 96,00 %
05.05.2019 04:32 2,1 C 13,3 C 2,2 C 96 % 1010,2 hPa 0,0 l/m 5,2 km/h (1 Bft) W 261 0 min 0,000 mm 0,0 UV-I 0 W/m 1,5 C 2,1 C 9,7 km/h (2 Bft) 100,00 %
05.05.2019 04:34 2,1 C 13,3 C 2,2 C 96 % 1010,2 hPa 0,0 l/m 5,8 km/h (2 Bft) W-SW 255 0 min 0,000 mm 0,0 UV-I 0 W/m 1,5 C 2,1 C 9,7 km/h (2 Bft) 94,00 %
05.05.2019 04:36 2,1 C 13,3 C 2,2 C 96 % 1010,2 hPa 0,0 l/m 5,0 km/h (1 Bft) W 272 0 min 0,000 mm 0,0 UV-I 0 W/m 1,5 C 2,1 C 9,7 km/h (2 Bft) 97,14 %
05.05.2019 04:38 2,1 C 13,3 C 2,2 C 96 % 1010,3 hPa 0,0 l/m 4,5 km/h (1 Bft) W-SW 255 0 min 0,000 mm 0,0 UV-I 0 W/m 1,5 C 2,1 C 6,4 km/h (2 Bft) 94,00 %
05.05.2019 04:40 2,1 C 13,3 C 2,2 C 96 % 1010,3 hPa 0,0 l/m 5,7 km/h (1 Bft) W-SW 244 0 min 0,000 mm 0,0 UV-I 0 W/m 1,5 C 2,1 C 8,0 km/h (2 Bft) 98,00 %
05.05.2019 04:42 2,1 C 13,3 C 2,2 C 96 % 1010,4 hPa 0,0 l/m 4,4 km/h (1 Bft) SW 228 0 min 0,000 mm 0,0 UV-I 0 W/m 1,5 C 2,1 C 8,0 km/h (2 Bft) 97,73 %
05.05.2019 04:44 2,1 C 13,3 C 2,2 C 96 % 1010,4 hPa 0,0 l/m 7,0 km/h (2 Bft) W-SW 250 0 min 0,000 mm 0,0 UV-I 0 W/m 1,5 C 1,5 C 11,3 km/h (2 Bft) 96,00 %
05.05.2019 04:46 2,1 C 13,3 C 2,2 C 96 % 1010,4 hPa 0,0 l/m 6,0 km/h (2 Bft) W-SW 241 0 min 0,000 mm 0,0 UV-I 0 W/m 1,5 C 2,1 C 11,3 km/h (2 Bft) 98,00 %
05.05.2019 04:48 2,1 C 13,3 C 2,2 C 96 % 1010,5 hPa 0,0 l/m 10,0 km/h (2 Bft) W 259 0 min 0,000 mm 0,0 UV-I 0 W/m 1,5 C -1,1 C 14,5 km/h (3 Bft) 97,44 %
05.05.2019 04:50 2,2 C 13,3 C 2,2 C 96 % 1010,5 hPa 0,0 l/m 8,4 km/h (2 Bft) SW 228 0 min 0,000 mm 0,0 UV-I 0 W/m 1,6 C 0,3 C 14,5 km/h (3 Bft) 95,74 %
05.05.2019 04:52 2,2 C 13,3 C 2,2 C 96 % 1010,5 hPa 0,0 l/m 11,0 km/h (2 Bft) S-SW 212 0 min 0,000 mm 0,0 UV-I 0 W/m 1,6 C -1,8 C 16,1 km/h (3 Bft) 97,37 %
05.05.2019 04:54 2,2 C 13,3 C 2,2 C 96 % 1010,4 hPa 0,0 l/m 9,4 km/h (2 Bft) W-SW 238 0 min 0,000 mm 0,0 UV-I 0 W/m 1,6 C -0,5 C 14,5 km/h (3 Bft) 96,43 %
05.05.2019 04:56 2,1 C 13,3 C 2,2 C 96 % 1010,4 hPa 0,0 l/m 8,2 km/h (2 Bft) SW 218 0 min 0,000 mm 0,0 UV-I 0 W/m 1,5 C 0,4 C 12,9 km/h (3 Bft) 98,11 %
05.05.2019 04:58 2,0 C 13,3 C 2,2 C 96 % 1010,4 hPa 0,2 l/m 10,3 km/h (2 Bft) S-SW 212 0 min 0,000 mm 0,0 UV-I 0 W/m 1,4 C -1,5 C 14,5 km/h (3 Bft) 94,74 %
05.05.2019 05:00 1,9 C 13,3 C 2,2 C 96 % 1010,4 hPa 0,0 l/m 11,1 km/h (2 Bft) W-SW 240 0 min 0,000 mm 0,0 UV-I 0 W/m 1,3 C -2,2 C 17,7 km/h (3 Bft) 94,00 %
05.05.2019 05:02 1,8 C 13,3 C 2,2 C 96 % 1010,5 hPa 0,0 l/m 11,0 km/h (2 Bft) SW 217 0 min 0,000 mm 0,0 UV-I 0 W/m 1,2 C -2,2 C 17,7 km/h (3 Bft) 95,74 %
05.05.2019 05:04 1,8 C 13,3 C 2,2 C 96 % 1010,5 hPa 0,0 l/m 13,3 km/h (3 Bft) W-SW 254 0 min 0,000 mm 0,0 UV-I 0 W/m 1,2 C -3,8 C 17,7 km/h (3 Bft) 95,74 %
05.05.2019 05:06 1,8 C 13,3 C 2,2 C 96 % 1010,6 hPa 0,0 l/m 11,7 km/h (2 Bft) W 259 0 min 0,000 mm 0,0 UV-I 0 W/m 1,2 C -2,7 C 19,3 km/h (3 Bft) 92,00 %
05.05.2019 05:08 1,8 C 13,3 C 2,2 C 96 % 1010,6 hPa 0,0 l/m 17,2 km/h (3 Bft) SW 229 0 min 0,000 mm 0,0 UV-I 0 W/m 1,2 C -6,0 C 22,5 km/h (4 Bft) 98,00 %
05.05.2019 05:10 1,8 C 13,3 C 2,2 C 96 % 1010,6 hPa 0,0 l/m 15,1 km/h (3 Bft) SW 232 0 min 0,000 mm 0,0 UV-I 0 W/m 1,2 C -4,9 C 19,3 km/h (3 Bft) 95,74 %
05.05.2019 05:12 1,8 C 13,3 C 2,2 C 96 % 1010,7 hPa 0,0 l/m 13,5 km/h (3 Bft) SW 234 0 min 0,000 mm 0,0 UV-I 0 W/m 1,2 C -3,9 C 20,9 km/h (4 Bft) 100,00 %
05.05.2019 05:14 1,8 C 13,3 C 2,2 C 96 % 1010,8 hPa 0,0 l/m 10,9 km/h (2 Bft) SW 232 0 min 0,000 mm 0,0 UV-I 0 W/m 1,2 C -2,1 C 16,1 km/h (3 Bft) 96,23 %
05.05.2019 05:16 1,8 C 13,3 C 2,2 C 96 % 1010,8 hPa 0,0 l/m 11,2 km/h (2 Bft) SW 230 0 min 0,000 mm 0,0 UV-I 0 W/m 1,2 C -2,4 C 19,3 km/h (3 Bft) 98,00 %
05.05.2019 05:18 1,7 C 13,3 C 2,2 C 96 % 1010,8 hPa 0,0 l/m 9,5 km/h (2 Bft) SW 220 0 min 0,000 mm 0,0 UV-I 0 W/m 1,1 C -1,2 C 14,5 km/h (3 Bft) 97,37 %
05.05.2019 05:20 1,7 C 13,3 C 2,2 C 96 % 1010,8 hPa 0,0 l/m 11,2 km/h (2 Bft) W-SW 238 0 min 0,000 mm 0,0 UV-I 0 W/m 1,1 C -2,5 C 14,5 km/h (3 Bft) 100,00 %
05.05.2019 05:22 1,7 C 13,3 C 2,2 C 96 % 1010,9 hPa 0,0 l/m 13,6 km/h (3 Bft) W-SW 245 0 min 0,000 mm 0,0 UV-I 0 W/m 1,1 C -4,1 C 22,5 km/h (4 Bft) 100,00 %
05.05.2019 05:24 1,7 C 13,3 C 1,7 C 96 % 1010,9 hPa 0,0 l/m 14,8 km/h (3 Bft) SW 232 0 min 0,000 mm 0,0 UV-I 0 W/m 1,1 C -4,8 C 20,9 km/h (4 Bft) 100,00 %
05.05.2019 05:26 1,7 C 12,8 C 1,7 C 96 % 1010,9 hPa 0,0 l/m 11,7 km/h (2 Bft) W 259 0 min 0,000 mm 0,0 UV-I 0 W/m 1,1 C -2,8 C 17,7 km/h (3 Bft) 96,15 %
05.05.2019 05:28 1,7 C 12,8 C 1,7 C 96 % 1010,9 hPa 0,0 l/m 10,4 km/h (2 Bft) SW 235 0 min 0,000 mm 0,0 UV-I 0 W/m 1,1 C -1,9 C 16,1 km/h (3 Bft) 100,00 %
05.05.2019 05:30 1,7 C 12,8 C 2,2 C 96 % 1010,9 hPa 0,0 l/m 13,2 km/h (3 Bft) W 259 0 min 0,000 mm 0,0 UV-I 0 W/m 1,1 C -3,8 C 22,5 km/h (4 Bft) 100,00 %
05.05.2019 05:32 1,7 C 12,8 C 1,7 C 96 % 1011,0 hPa 0,0 l/m 11,4 km/h (2 Bft) SW 233 0 min 0,000 mm 0,0 UV-I 0 W/m 1,1 C -2,6 C 19,3 km/h (3 Bft) 97,87 %
05.05.2019 05:34 1,7 C 12,8 C 1,7 C 96 % 1011,0 hPa 0,0 l/m 14,1 km/h (3 Bft) SW 235 0 min 0,000 mm 0,0 UV-I 0 W/m 1,1 C -4,4 C 19,3 km/h (3 Bft) 98,11 %
05.05.2019 05:36 1,6 C 13,3 C 1,7 C 96 % 1011,0 hPa 0,0 l/m 12,8 km/h (3 Bft) W-SW 244 0 min 0,000 mm 0,0 UV-I 0 W/m 1,0 C -3,7 C 20,9 km/h (4 Bft) 100,00 %
05.05.2019 05:38 1,6 C 12,8 C 1,7 C 96 % 1011,0 hPa 0,0 l/m 12,8 km/h (3 Bft) SW 221 0 min 0,000 mm 0,0 UV-I 0 W/m 1,0 C -3,7 C 19,3 km/h (3 Bft) 100,00 %
05.05.2019 05:40 1,6 C 12,8 C 1,7 C 96 % 1011,1 hPa 0,0 l/m 12,5 km/h (3 Bft) W-SW 256 0 min 0,000 mm 0,0 UV-I 0 W/m 1,0 C -3,5 C 16,1 km/h (3 Bft) 100,00 %
05.05.2019 05:42 1,6 C 13,3 C 1,7 C 96 % 1011,0 hPa 0,0 l/m 11,6 km/h (2 Bft) W-SW 238 0 min 0,000 mm 0,0 UV-I 0 W/m 1,0 C -2,9 C 16,1 km/h (3 Bft) 100,00 %
05.05.2019 05:44 1,6 C 12,8 C 1,7 C 96 % 1011,1 hPa 0,2 l/m 10,3 km/h (2 Bft) W-SW 238 0 min 0,000 mm 0,0 UV-I 0 W/m 1,0 C -1,9 C 16,1 km/h (3 Bft) 100,00 %
05.05.2019 05:46 1,6 C 12,8 C 1,7 C 96 % 1011,1 hPa 0,0 l/m 11,1 km/h (2 Bft) W-SW 243 0 min 0,000 mm 0,0 UV-I 0 W/m 1,0 C -2,5 C 19,3 km/h (3 Bft) 100,00 %
05.05.2019 05:48 1,6 C 12,8 C 1,7 C 96 % 1011,2 hPa 0,0 l/m 9,6 km/h (2 Bft) SW 232 0 min 0,000 mm 0,0 UV-I 5 W/m 1,0 C -1,4 C 17,7 km/h (3 Bft) 100,00 %
05.05.2019 05:50 1,6 C 12,8 C 1,7 C 96 % 1011,2 hPa 0,0 l/m 15,1 km/h (3 Bft) SW 227 0 min 0,000 mm 0,0 UV-I 5 W/m 1,0 C -5,1 C 22,5 km/h (4 Bft) 100,00 %
05.05.2019 05:52 1,6 C 12,8 C 1,7 C 96 % 1011,2 hPa 0,0 l/m 14,6 km/h (3 Bft) W-SW 238 0 min 0,000 mm 0,0 UV-I 5 W/m 1,0 C -4,8 C 20,9 km/h (4 Bft) 96,00 %
05.05.2019 05:54 1,6 C 12,8 C 1,7 C 96 % 1011,3 hPa 0,0 l/m 15,6 km/h (3 Bft) SW 236 0 min 0,000 mm 0,0 UV-I 5 W/m 1,0 C -5,4 C 22,5 km/h (4 Bft) 100,00 %
05.05.2019 05:56 1,6 C 12,8 C 1,7 C 96 % 1011,3 hPa 0,0 l/m 14,6 km/h (3 Bft) SW 223 0 min 0,000 mm 0,0 UV-I 7 W/m 1,0 C -4,8 C 19,3 km/h (3 Bft) 100,00 %
05.05.2019 05:58 1,6 C 12,8 C 1,7 C 96 % 1011,3 hPa 0,0 l/m 13,3 km/h (3 Bft) W-SW 246 0 min 0,000 mm 0,0 UV-I 7 W/m 1,0 C -4,0 C 17,7 km/h (3 Bft) 100,00 %
05.05.2019 06:00 1,6 C 12,8 C 1,7 C 96 % 1011,3 hPa 0,0 l/m 11,3 km/h (2 Bft) W-SW 257 0 min 0,000 mm 0,0 UV-I 8 W/m 1,0 C -2,7 C 16,1 km/h (3 Bft) 100,00 %
05.05.2019 06:02 1,7 C 12,8 C 2,2 C 96 % 1011,4 hPa 0,0 l/m 8,5 km/h (2 Bft) W-SW 255 0 min 0,000 mm 0,0 UV-I 9 W/m 1,1 C -0,3 C 14,5 km/h (3 Bft) 100,00 %
05.05.2019 06:04 1,6 C 12,8 C 2,2 C 96 % 1011,4 hPa 0,0 l/m 9,4 km/h (2 Bft) W 272 0 min 0,000 mm 0,0 UV-I 9 W/m 1,0 C -1,2 C 17,7 km/h (3 Bft) 100,00 %
05.05.2019 06:06 1,6 C 12,8 C 2,2 C 96 % 1011,5 hPa 0,0 l/m 13,2 km/h (3 Bft) W-SW 241 0 min 0,000 mm 0,0 UV-I 9 W/m 1,0 C -4,0 C 22,5 km/h (4 Bft) 100,00 %
05.05.2019 06:08 1,6 C 12,8 C 1,7 C 96 % 1011,5 hPa 0,0 l/m 11,9 km/h (2 Bft) W-SW 246 0 min 0,000 mm 0,0 UV-I 9 W/m 1,0 C -3,1 C 20,9 km/h (4 Bft) 98,08 %
05.05.2019 06:10 1,6 C 12,8 C 2,2 C 96 % 1011,5 hPa 0,0 l/m 13,2 km/h (3 Bft) W-SW 245 0 min 0,000 mm 0,0 UV-I 11 W/m 1,0 C -4,0 C 20,9 km/h (4 Bft) 100,00 %
05.05.2019 06:12 1,6 C 12,8 C 1,7 C 96 % 1011,6 hPa 0,0 l/m 10,6 km/h (2 Bft) SW 217 0 min 0,000 mm 0,0 UV-I 11 W/m 1,0 C -2,1 C 16,1 km/h (3 Bft) 100,00 %
05.05.2019 06:14 1,6 C 12,8 C 2,2 C 96 % 1011,6 hPa 0,0 l/m 11,1 km/h (2 Bft) W-SW 242 0 min 0,000 mm 0,0 UV-I 12 W/m 1,0 C -2,5 C 17,7 km/h (3 Bft) 97,87 %
05.05.2019 06:16 1,6 C 12,8 C 2,2 C 96 % 1011,6 hPa 0,0 l/m 11,5 km/h (2 Bft) SW 233 0 min 0,000 mm 0,0 UV-I 13 W/m 1,0 C -2,8 C 16,1 km/h (3 Bft) 95,12 %
05.05.2019 06:18 1,6 C 12,8 C 2,2 C 96 % 1011,7 hPa 0,0 l/m 14,6 km/h (3 Bft) SW 234 0 min 0,000 mm 0,0 UV-I 14 W/m 1,0 C -4,8 C 19,3 km/h (3 Bft) 98,11 %
05.05.2019 06:20 1,6 C 12,8 C 1,7 C 96 % 1011,7 hPa 0,2 l/m 14,8 km/h (3 Bft) SW 229 0 min 0,000 mm 0,0 UV-I 16 W/m 1,0 C -4,9 C 19,3 km/h (3 Bft) 97,73 %
05.05.2019 06:22 1,6 C 12,8 C 1,7 C 96 % 1011,7 hPa 0,0 l/m 12,2 km/h (2 Bft) SW 236 0 min 0,000 mm 0,0 UV-I 16 W/m 1,0 C -3,3 C 17,7 km/h (3 Bft) 97,37 %
05.05.2019 06:24 1,6 C 12,8 C 2,2 C 96 % 1011,7 hPa 0,0 l/m 9,8 km/h (2 Bft) W-SW 244 0 min 0,000 mm 0,0 UV-I 16 W/m 1,0 C -1,5 C 14,5 km/h (3 Bft) 98,21 %
05.05.2019 06:26 1,6 C 12,8 C 1,7 C 96 % 1011,8 hPa 0,0 l/m 12,9 km/h (3 Bft) W-SW 254 0 min 0,000 mm 0,0 UV-I 16 W/m 1,0 C -3,8 C 17,7 km/h (3 Bft) 97,56 %
05.05.2019 06:28 1,6 C 12,8 C 1,7 C 96 % 1011,9 hPa 0,0 l/m 14,9 km/h (3 Bft) W-SW 239 0 min 0,000 mm 0,0 UV-I 16 W/m 1,0 C -5,0 C 20,9 km/h (4 Bft) 98,00 %
05.05.2019 06:30 1,6 C 12,8 C 1,7 C 96 % 1011,9 hPa 0,0 l/m 10,3 km/h (2 Bft) S 187 0 min 0,000 mm 0,0 UV-I 17 W/m 1,0 C -1,9 C 14,5 km/h (3 Bft) 92,45 %
05.05.2019 06:32 1,6 C 12,8 C 1,7 C 96 % 1011,9 hPa 0,0 l/m 14,2 km/h (3 Bft) W-SW 245 0 min 0,000 mm 0,0 UV-I 18 W/m 1,0 C -4,6 C 19,3 km/h (3 Bft) 97,37 %
05.05.2019 06:34 1,6 C 12,8 C 2,2 C 96 % 1012,0 hPa 0,0 l/m 12,1 km/h (2 Bft) W-SW 252 0 min 0,000 mm 0,0 UV-I 19 W/m 1,0 C -3,2 C 17,7 km/h (3 Bft) 93,62 %
05.05.2019 06:36 1,6 C 12,8 C 1,7 C 96 % 1012,0 hPa 0,2 l/m 12,0 km/h (2 Bft) SW 227 0 min 0,000 mm 0,0 UV-I 19 W/m 1,0 C -3,2 C 17,7 km/h (3 Bft) 96,23 %
05.05.2019 06:38 1,6 C 12,8 C 2,2 C 96 % 1012,0 hPa 0,0 l/m 11,5 km/h (2 Bft) SW 226 0 min 0,000 mm 0,0 UV-I 19 W/m 1,0 C -2,8 C 19,3 km/h (3 Bft) 96,00 %
05.05.2019 06:40 1,6 C 12,8 C 2,2 C 96 % 1012,0 hPa 0,0 l/m 14,4 km/h (3 Bft) SW 232 0 min 0,000 mm 0,0 UV-I 20 W/m 1,0 C -4,7 C 19,3 km/h (3 Bft) 95,12 %
05.05.2019 06:42 1,6 C 12,8 C 2,2 C 96 % 1012,0 hPa 0,0 l/m 14,1 km/h (3 Bft) W-SW 246 0 min 0,000 mm 0,0 UV-I 21 W/m 1,0 C -4,5 C 22,5 km/h (4 Bft) 93,62 %
05.05.2019 06:44 1,6 C 12,8 C 2,2 C 96 % 1012,0 hPa 0,0 l/m 12,6 km/h (3 Bft) W-SW 244 0 min 0,000 mm 0,0 UV-I 21 W/m 1,0 C -3,6 C 19,3 km/h (3 Bft) 94,34 %
05.05.2019 06:46 1,6 C 12,8 C 2,2 C 96 % 1012,0 hPa 0,0 l/m 9,3 km/h (2 Bft) W-SW 237 0 min 0,000 mm 0,0 UV-I 23 W/m 1,0 C -1,1 C 12,9 km/h (3 Bft) 92,31 %
05.05.2019 06:48 1,6 C 12,8 C 2,2 C 96 % 1012,1 hPa 0,0 l/m 12,9 km/h (3 Bft) W 276 0 min 0,000 mm 0,0 UV-I 25 W/m 1,0 C -3,8 C 20,9 km/h (4 Bft) 95,74 %
05.05.2019 06:50 1,6 C 12,8 C 2,2 C 96 % 1012,1 hPa 0,0 l/m 13,1 km/h (3 Bft) SW 234 0 min 0,000 mm 0,0 UV-I 26 W/m 1,0 C -3,9 C 24,1 km/h (4 Bft) 96,23 %
05.05.2019 06:52 1,6 C 12,8 C 2,2 C 96 % 1012,1 hPa 0,0 l/m 11,6 km/h (2 Bft) SW 235 0 min 0,000 mm 0,0 UV-I 26 W/m 1,0 C -2,9 C 17,7 km/h (3 Bft) 93,62 %
05.05.2019 06:54 1,6 C 12,8 C 2,2 C 96 % 1012,1 hPa 0,0 l/m 14,8 km/h (3 Bft) W-SW 240 0 min 0,000 mm 0,0 UV-I 27 W/m 1,0 C -4,9 C 19,3 km/h (3 Bft) 95,12 %
05.05.2019 06:56 1,6 C 12,8 C 2,2 C 96 % 1012,1 hPa 0,0 l/m 11,2 km/h (2 Bft) SW 227 0 min 0,000 mm 0,0 UV-I 30 W/m 1,0 C -2,6 C 17,7 km/h (3 Bft) 94,00 %
05.05.2019 06:58 1,6 C 12,8 C 2,2 C 96 % 1012,1 hPa 0,0 l/m 9,0 km/h (2 Bft) W-SW 246 0 min 0,000 mm 0,0 UV-I 31 W/m 1,0 C -0,9 C 12,9 km/h (3 Bft) 95,74 %
05.05.2019 07:00 1,6 C 12,8 C 2,2 C 96 % 1012,2 hPa 0,0 l/m 11,0 km/h (2 Bft) W-SW 248 0 min 0,000 mm 0,0 UV-I 32 W/m 1,0 C -2,4 C 17,7 km/h (3 Bft) 94,00 %
05.05.2019 07:02 1,6 C 12,8 C 2,2 C 96 % 1012,2 hPa 0,0 l/m 12,6 km/h (3 Bft) W-SW 252 0 min 0,000 mm 0,0 UV-I 33 W/m 1,0 C -3,6 C 16,1 km/h (3 Bft) 92,11 %
05.05.2019 07:04 1,7 C 12,8 C 2,2 C 96 % 1012,3 hPa 0,0 l/m 14,2 km/h (3 Bft) S-SW 211 0 min 0,000 mm 0,0 UV-I 34 W/m 1,1 C -4,5 C 19,3 km/h (3 Bft) 94,34 %
05.05.2019 07:06 1,7 C 12,8 C 2,2 C 96 % 1012,3 hPa 0,0 l/m 9,3 km/h (2 Bft) W-SW 248 0 min 0,000 mm 0,0 UV-I 35 W/m 1,1 C -1,0 C 14,5 km/h (3 Bft) 97,37 %
05.05.2019 07:08 1,7 C 12,8 C 2,2 C 96 % 1012,3 hPa 0,0 l/m 11,6 km/h (2 Bft) W-SW 237 0 min 0,000 mm 0,0 UV-I 35 W/m 1,1 C -2,8 C 16,1 km/h (3 Bft) 94,64 %
05.05.2019 07:10 1,7 C 12,8 C 2,2 C 96 % 1012,3 hPa 0,0 l/m 9,1 km/h (2 Bft) W-SW 250 0 min 0,000 mm 0,0 UV-I 37 W/m 1,1 C -0,8 C 16,1 km/h (3 Bft) 92,11 %
05.05.2019 07:12 1,7 C 12,8 C 2,2 C 96 % 1012,4 hPa 0,2 l/m 11,5 km/h (2 Bft) SW 234 0 min 0,000 mm 0,0 UV-I 39 W/m 1,1 C -2,7 C 19,3 km/h (3 Bft) 96,00 %
05.05.2019 07:14 1,8 C 12,8 C 2,2 C 96 % 1012,4 hPa 0,0 l/m 11,8 km/h (2 Bft) W-SW 249 0 min 0,000 mm 0,0 UV-I 40 W/m 1,2 C -2,8 C 17,7 km/h (3 Bft) 97,87 %
05.05.2019 07:16 1,7 C 12,8 C 2,2 C 96 % 1012,3 hPa 0,0 l/m 9,1 km/h (2 Bft) SW 223 0 min 0,000 mm 0,0 UV-I 41 W/m 1,1 C -0,8 C 14,5 km/h (3 Bft) 98,11 %
05.05.2019 07:18 1,8 C 12,8 C 2,8 C 96 % 1012,4 hPa 0,0 l/m 9,8 km/h (2 Bft) SW 230 0 min 0,000 mm 0,0 UV-I 46 W/m 1,2 C -1,3 C 17,7 km/h (3 Bft) 91,67 %
05.05.2019 07:20 1,8 C 12,8 C 2,8 C 96 % 1012,4 hPa 0,0 l/m 12,1 km/h (2 Bft) S-SW 208 0 min 0,000 mm 0,0 UV-I 50 W/m 1,2 C -3,0 C 16,1 km/h (3 Bft) 98,57 %
05.05.2019 07:22 1,8 C 12,8 C 2,8 C 96 % 1012,4 hPa 0,0 l/m 11,4 km/h (2 Bft) S-SW 213 0 min 0,000 mm 0,0 UV-I 55 W/m 1,2 C -2,5 C 17,7 km/h (3 Bft) 97,87 %
05.05.2019 07:24 1,8 C 12,8 C 2,8 C 96 % 1012,4 hPa 0,0 l/m 11,0 km/h (2 Bft) W-SW 238 0 min 0,000 mm 0,0 UV-I 56 W/m 1,2 C -2,2 C 16,1 km/h (3 Bft) 95,83 %
05.05.2019 07:26 1,8 C 12,8 C 2,8 C 96 % 1012,5 hPa 0,0 l/m 10,0 km/h (2 Bft) SW 223 0 min 0,000 mm 0,0 UV-I 57 W/m 1,2 C -1,5 C 16,1 km/h (3 Bft) 97,06 %
05.05.2019 07:28 1,9 C 12,8 C 2,8 C 96 % 1012,5 hPa 0,0 l/m 9,4 km/h (2 Bft) W 264 0 min 0,000 mm 0,0 UV-I 56 W/m 1,3 C -0,9 C 14,5 km/h (3 Bft) 95,74 %
05.05.2019 07:30 2,0 C 12,8 C 2,8 C 96 % 1012,5 hPa 0,0 l/m 8,7 km/h (2 Bft) S-SW 209 0 min 0,000 mm 0,0 UV-I 52 W/m 1,4 C -0,2 C 12,9 km/h (3 Bft) 97,73 %
05.05.2019 07:32 2,0 C 12,8 C 2,8 C 96 % 1012,5 hPa 0,0 l/m 8,8 km/h (2 Bft) SW 235 0 min 0,000 mm 0,0 UV-I 54 W/m 1,4 C -0,3 C 12,9 km/h (3 Bft) 95,12 %
05.05.2019 07:34 1,9 C 12,8 C 2,8 C 96 % 1012,5 hPa 0,0 l/m 8,0 km/h (2 Bft) SW 216 0 min 0,000 mm 0,0 UV-I 54 W/m 1,3 C 0,3 C 12,9 km/h (3 Bft) 96,43 %
05.05.2019 07:36 2,0 C 12,8 C 2,8 C 96 % 1012,5 hPa 0,0 l/m 8,1 km/h (2 Bft) W-SW 240 0 min 0,000 mm 0,0 UV-I 57 W/m 1,4 C 0,4 C 17,7 km/h (3 Bft) 95,45 %
05.05.2019 07:38 2,1 C 12,8 C 3,3 C 96 % 1012,5 hPa 0,0 l/m 10,3 km/h (2 Bft) SW 232 0 min 0,000 mm 0,0 UV-I 60 W/m 1,5 C -1,4 C 16,1 km/h (3 Bft) 96,23 %
05.05.2019 07:40 2,1 C 12,8 C 3,3 C 96 % 1012,5 hPa 0,0 l/m 12,0 km/h (2 Bft) W-SW 248 0 min 0,000 mm 0,0 UV-I 62 W/m 1,5 C -2,6 C 19,3 km/h (3 Bft) 95,12 %
05.05.2019 07:42 2,1 C 12,8 C 2,8 C 96 % 1012,6 hPa 0,0 l/m 10,5 km/h (2 Bft) W-SW 248 0 min 0,000 mm 0,0 UV-I 60 W/m 1,5 C -1,5 C 17,7 km/h (3 Bft) 95,74 %
05.05.2019 07:44 2,0 C 12,8 C 2,8 C 96 % 1012,6 hPa 0,0 l/m 12,2 km/h (2 Bft) W-SW 240 0 min 0,000 mm 0,0 UV-I 58 W/m 1,4 C -2,8 C 19,3 km/h (3 Bft) 98,00 %
05.05.2019 07:46 2,1 C 12,8 C 2,8 C 96 % 1012,7 hPa 0,0 l/m 9,3 km/h (2 Bft) W-SW 245 0 min 0,000 mm 0,0 UV-I 60 W/m 1,5 C -0,6 C 14,5 km/h (3 Bft) 97,73 %
05.05.2019 07:48 2,2 C 12,8 C 3,3 C 96 % 1012,7 hPa 0,0 l/m 11,5 km/h (2 Bft) SW 223 0 min 0,000 mm 0,0 UV-I 60 W/m 1,6 C -2,1 C 16,1 km/h (3 Bft) 97,56 %
05.05.2019 07:50 2,2 C 12,8 C 3,3 C 96 % 1012,6 hPa 0,0 l/m 8,0 km/h (2 Bft) W-SW 246 0 min 0,000 mm 0,0 UV-I 61 W/m 1,6 C 0,7 C 14,5 km/h (3 Bft) 96,00 %
05.05.2019 07:52 2,2 C 12,8 C 3,3 C 96 % 1012,7 hPa 0,0 l/m 11,6 km/h (2 Bft) W-SW 250 0 min 0,000 mm 0,0 UV-I 63 W/m 1,6 C -2,2 C 17,7 km/h (3 Bft) 98,00 %
05.05.2019 07:54 2,2 C 12,8 C 3,3 C 96 % 1012,7 hPa 0,0 l/m 9,8 km/h (2 Bft) W-SW 246 0 min 0,000 mm 0,0 UV-I 66 W/m 1,6 C -0,9 C 17,7 km/h (3 Bft) 95,12 %
05.05.2019 07:56 2,2 C 12,8 C 3,3 C 96 % 1012,7 hPa 0,0 l/m 13,0 km/h (3 Bft) SW 218 0 min 0,000 mm 0,0 UV-I 68 W/m 1,6 C -3,1 C 19,3 km/h (3 Bft) 100,00 %
05.05.2019 07:58 2,2 C 12,8 C 3,3 C 96 % 1012,7 hPa 0,0 l/m 13,4 km/h (3 Bft) W 276 0 min 0,000 mm 0,0 UV-I 69 W/m 1,6 C -3,4 C 20,9 km/h (4 Bft) 100,00 %
05.05.2019 08:00 2,2 C 12,8 C 3,3 C 96 % 1012,7 hPa 0,0 l/m 12,6 km/h (3 Bft) W-SW 242 0 min 0,025 mm 0,0 UV-I 71 W/m 1,6 C -2,9 C 19,3 km/h (3 Bft) 100,00 %
05.05.2019 08:02 2,2 C 12,8 C 3,3 C 96 % 1012,6 hPa 0,0 l/m 13,9 km/h (3 Bft) W 269 0 min 0,000 mm 0,0 UV-I 72 W/m 1,6 C -3,7 C 19,3 km/h (3 Bft) 100,00 %
05.05.2019 08:04 2,2 C 12,8 C 3,3 C 96 % 1012,7 hPa 0,0 l/m 11,4 km/h (2 Bft) W 266 0 min 0,000 mm 0,0 UV-I 75 W/m 1,6 C -2,1 C 16,1 km/h (3 Bft) 100,00 %
05.05.2019 08:06 2,3 C 12,8 C 3,3 C 96 % 1012,8 hPa 0,0 l/m 10,6 km/h (2 Bft) W-SW 256 0 min 0,000 mm 0,0 UV-I 76 W/m 1,7 C -1,4 C 16,1 km/h (3 Bft) 100,00 %
05.05.2019 08:08 2,3 C 12,8 C 3,3 C 96 % 1012,8 hPa 0,0 l/m 9,0 km/h (2 Bft) W-SW 238 0 min 0,000 mm 0,0 UV-I 77 W/m 1,7 C -0,1 C 14,5 km/h (3 Bft) 100,00 %
05.05.2019 08:10 2,3 C 12,8 C 3,3 C 96 % 1012,8 hPa 0,0 l/m 11,7 km/h (2 Bft) W-SW 241 0 min 0,000 mm 0,0 UV-I 80 W/m 1,7 C -2,1 C 17,7 km/h (3 Bft) 100,00 %
05.05.2019 08:12 2,3 C 12,8 C 3,3 C 96 % 1012,9 hPa 0,0 l/m 12,8 km/h (3 Bft) SW 225 0 min 0,000 mm 0,0 UV-I 88 W/m 1,7 C -2,9 C 17,7 km/h (3 Bft) 95,74 %
05.05.2019 08:14 2,3 C 12,8 C 3,3 C 96 % 1013,0 hPa 0,0 l/m 14,4 km/h (3 Bft) W-SW 245 0 min 0,000 mm 0,0 UV-I 97 W/m 1,7 C -3,9 C 20,9 km/h (4 Bft) 100,00 %
05.05.2019 08:16 2,3 C 12,8 C 3,9 C 96 % 1012,9 hPa 0,0 l/m 9,6 km/h (2 Bft) W-SW 239 0 min 0,000 mm 0,0 UV-I 101 W/m 1,7 C -0,6 C 14,5 km/h (3 Bft) 100,00 %
05.05.2019 08:18 2,4 C 12,8 C 3,9 C 96 % 1012,9 hPa 0,0 l/m 9,3 km/h (2 Bft) W 266 0 min 0,000 mm 0,0 UV-I 104 W/m 1,8 C -0,2 C 12,9 km/h (3 Bft) 96,77 %
05.05.2019 08:20 2,4 C 12,8 C 3,9 C 96 % 1012,9 hPa 0,0 l/m 8,8 km/h (2 Bft) W 263 0 min 0,000 mm 0,0 UV-I 105 W/m 1,8 C 0,2 C 14,5 km/h (3 Bft) 98,00 %
05.05.2019 08:22 2,5 C 12,8 C 3,9 C 96 % 1012,9 hPa 0,0 l/m 10,4 km/h (2 Bft) W-SW 252 0 min 0,000 mm 0,0 UV-I 100 W/m 1,9 C -1,0 C 17,7 km/h (3 Bft) 100,00 %
05.05.2019 08:24 2,5 C 12,8 C 3,9 C 96 % 1013,0 hPa 0,0 l/m 10,3 km/h (2 Bft) W-SW 249 0 min 0,000 mm 0,0 UV-I 97 W/m 1,9 C -0,9 C 16,1 km/h (3 Bft) 100,00 %
05.05.2019 08:26 2,6 C 12,8 C 3,9 C 96 % 1013,0 hPa 0,0 l/m 11,1 km/h (2 Bft) W-SW 255 0 min 0,000 mm 0,0 UV-I 98 W/m 2,0 C -1,4 C 16,1 km/h (3 Bft) 100,00 %
05.05.2019 08:28 2,6 C 12,8 C 3,9 C 96 % 1013,0 hPa 0,0 l/m 8,7 km/h (2 Bft) W-SW 257 0 min 0,000 mm 0,0 UV-I 98 W/m 2,0 C 0,5 C 12,9 km/h (3 Bft) 100,00 %
05.05.2019 08:30 2,6 C 12,8 C 3,9 C 96 % 1013,0 hPa 0,2 l/m 9,8 km/h (2 Bft) W-NW 288 0 min 0,000 mm 0,0 UV-I 97 W/m 2,0 C -0,4 C 17,7 km/h (3 Bft) 100,00 %
05.05.2019 08:32 2,6 C 12,8 C 3,9 C 96 % 1013,1 hPa 0,0 l/m 9,5 km/h (2 Bft) W-SW 242 0 min 0,000 mm 0,0 UV-I 100 W/m 2,0 C -0,2 C 11,3 km/h (2 Bft) 100,00 %
05.05.2019 08:34 2,6 C 12,8 C 3,9 C 96 % 1013,1 hPa 0,0 l/m 9,6 km/h (2 Bft) W 278 0 min 0,000 mm 0,0 UV-I 104 W/m 2,0 C -0,3 C 16,1 km/h (3 Bft) 100,00 %
05.05.2019 08:36 2,6 C 12,8 C 3,9 C 96 % 1013,1 hPa 0,0 l/m 8,8 km/h (2 Bft) W 261 0 min 0,000 mm 0,0 UV-I 104 W/m 2,0 C 0,4 C 14,5 km/h (3 Bft) 100,00 %
05.05.2019 08:38 2,7 C 12,8 C 3,9 C 96 % 1013,1 hPa 0,0 l/m 12,6 km/h (3 Bft) W 264 0 min 0,000 mm 0,0 UV-I 108 W/m 2,1 C -2,3 C 17,7 km/h (3 Bft) 96,43 %
05.05.2019 08:40 2,7 C 12,8 C 4,4 C 96 % 1013,1 hPa 0,0 l/m 9,3 km/h (2 Bft) W-SW 241 0 min 0,000 mm 0,0 UV-I 115 W/m 2,1 C 0,1 C 14,5 km/h (3 Bft) 97,87 %
05.05.2019 08:42 2,7 C 12,8 C 4,4 C 96 % 1013,1 hPa 0,0 l/m 7,4 km/h (2 Bft) W 267 0 min 0,000 mm 0,0 UV-I 126 W/m 2,1 C 1,7 C 11,3 km/h (2 Bft) 97,78 %
05.05.2019 08:44 2,8 C 12,8 C 4,4 C 96 % 1013,1 hPa 0,0 l/m 9,4 km/h (2 Bft) W 260 0 min 0,000 mm 0,0 UV-I 131 W/m 2,2 C 0,1 C 14,5 km/h (3 Bft) 96,15 %
05.05.2019 08:46 2,8 C 12,8 C 4,4 C 96 % 1013,2 hPa 0,0 l/m 8,6 km/h (2 Bft) W 260 0 min 0,000 mm 0,0 UV-I 132 W/m 2,2 C 0,8 C 14,5 km/h (3 Bft) 97,62 %
05.05.2019 08:48 2,8 C 12,8 C 4,4 C 96 % 1013,2 hPa 0,0 l/m 7,6 km/h (2 Bft) W 269 0 min 0,000 mm 0,0 UV-I 142 W/m 2,2 C 1,7 C 12,9 km/h (3 Bft) 97,73 %
05.05.2019 08:50 2,9 C 12,8 C 4,4 C 96 % 1013,2 hPa 0,0 l/m 7,3 km/h (2 Bft) W 263 0 min 0,000 mm 0,0 UV-I 140 W/m 2,3 C 2,0 C 11,3 km/h (2 Bft) 96,23 %
05.05.2019 08:52 3,0 C 12,8 C 5,0 C 96 % 1013,2 hPa 0,0 l/m 7,5 km/h (2 Bft) W 279 0 min 0,000 mm 0,0 UV-I 140 W/m 2,4 C 2,0 C 12,9 km/h (3 Bft) 95,12 %
05.05.2019 08:54 2,9 C 12,8 C 5,0 C 96 % 1013,2 hPa 0,0 l/m 8,9 km/h (2 Bft) W 267 0 min 0,000 mm 0,0 UV-I 141 W/m 2,3 C 0,6 C 12,9 km/h (3 Bft) 90,57 %
05.05.2019 08:56 2,9 C 12,8 C 5,0 C 96 % 1013,2 hPa 0,0 l/m 8,5 km/h (2 Bft) W 260 0 min 0,000 mm 0,1 UV-I 145 W/m 2,3 C 1,0 C 12,9 km/h (3 Bft) 95,45 %
05.05.2019 08:58 2,9 C 12,8 C 5,0 C 96 % 1013,3 hPa 0,0 l/m 12,2 km/h (2 Bft) W 266 0 min 0,000 mm 0,5 UV-I 150 W/m 2,3 C -1,8 C 16,1 km/h (3 Bft) 94,74 %
05.05.2019 09:00 3,1 C 12,8 C 5,0 C 96 % 1013,3 hPa 0,0 l/m 8,2 km/h (2 Bft) W-NW 300 0 min 0,051 mm 0,5 UV-I 151 W/m 2,5 C 1,4 C 12,9 km/h (3 Bft) 96,43 %
05.05.2019 09:02 3,1 C 12,8 C 5,6 C 96 % 1013,3 hPa 0,0 l/m 9,6 km/h (2 Bft) W 263 0 min 0,000 mm 0,5 UV-I 151 W/m 2,5 C 0,3 C 14,5 km/h (3 Bft) 94,74 %
05.05.2019 09:04 3,1 C 12,8 C 5,0 C 96 % 1013,3 hPa 0,0 l/m 13,5 km/h (3 Bft) W 261 0 min 0,000 mm 0,5 UV-I 147 W/m 2,5 C -2,4 C 19,3 km/h (3 Bft) 96,00 %
05.05.2019 09:06 3,0 C 12,8 C 5,0 C 95 % 1013,3 hPa 0,0 l/m 13,7 km/h (3 Bft) W 260 0 min 0,000 mm 0,5 UV-I 139 W/m 2,3 C -2,6 C 19,3 km/h (3 Bft) 96,00 %
05.05.2019 09:08 2,9 C 12,8 C 4,4 C 95 % 1013,3 hPa 0,0 l/m 12,2 km/h (2 Bft) W 259 0 min 0,000 mm 0,5 UV-I 134 W/m 2,2 C -1,8 C 19,3 km/h (3 Bft) 95,74 %
05.05.2019 09:10 2,9 C 12,8 C 4,4 C 95 % 1013,4 hPa 0,0 l/m 9,4 km/h (2 Bft) SW 232 0 min 0,000 mm 0,3 UV-I 132 W/m 2,2 C 0,2 C 12,9 km/h (3 Bft) 94,34 %
05.05.2019 09:12 2,9 C 12,8 C 4,4 C 95 % 1013,3 hPa 0,0 l/m 12,0 km/h (2 Bft) W-SW 258 0 min 0,000 mm 0,0 UV-I 128 W/m 2,2 C -1,7 C 19,3 km/h (3 Bft) 97,56 %
05.05.2019 09:14 2,9 C 12,8 C 4,4 C 95 % 1013,3 hPa 0,0 l/m 11,0 km/h (2 Bft) SW 232 0 min 0,000 mm 0,0 UV-I 127 W/m 2,2 C -1,0 C 20,9 km/h (4 Bft) 100,00 %
05.05.2019 09:16 2,9 C 12,8 C 4,4 C 95 % 1013,2 hPa 0,0 l/m 16,8 km/h (3 Bft) W-SW 237 0 min 0,000 mm 0,0 UV-I 127 W/m 2,2 C -4,4 C 24,1 km/h (4 Bft) 100,00 %
05.05.2019 09:18 2,8 C 12,8 C 4,4 C 95 % 1013,3 hPa 0,0 l/m 14,1 km/h (3 Bft) W 265 0 min 0,000 mm 0,0 UV-I 128 W/m 2,1 C -3,1 C 17,7 km/h (3 Bft) 100,00 %
05.05.2019 09:20 2,9 C 12,8 C 4,4 C 95 % 1013,2 hPa 0,0 l/m 11,7 km/h (2 Bft) W-SW 246 0 min 0,000 mm 0,2 UV-I 130 W/m 2,2 C -1,5 C 19,3 km/h (3 Bft) 100,00 %
05.05.2019 09:22 2,9 C 12,8 C 4,4 C 95 % 1013,2 hPa 0,0 l/m 12,5 km/h (3 Bft) W 263 0 min 0,000 mm 0,0 UV-I 121 W/m 2,2 C -2,0 C 19,3 km/h (3 Bft) 100,00 %
05.05.2019 09:24 2,9 C 12,8 C 4,4 C 95 % 1013,3 hPa 0,0 l/m 12,5 km/h (3 Bft) W-SW 247 0 min 0,000 mm 0,0 UV-I 125 W/m 2,2 C -2,0 C 19,3 km/h (3 Bft) 100,00 %
05.05.2019 09:26 2,9 C 12,8 C 4,4 C 95 % 1013,3 hPa 0,0 l/m 15,6 km/h (3 Bft) W-SW 250 0 min 0,000 mm 0,4 UV-I 129 W/m 2,2 C -3,8 C 20,9 km/h (4 Bft) 98,11 %
05.05.2019 09:28 2,9 C 12,8 C 4,4 C 95 % 1013,3 hPa 0,0 l/m 14,7 km/h (3 Bft) W 264 0 min 0,000 mm 0,5 UV-I 134 W/m 2,2 C -3,3 C 20,9 km/h (4 Bft) 100,00 %
05.05.2019 09:30 2,9 C 12,8 C 4,4 C 95 % 1013,3 hPa 0,0 l/m 14,5 km/h (3 Bft) W-NW 282 0 min 0,000 mm 0,5 UV-I 142 W/m 2,2 C -3,2 C 19,3 km/h (3 Bft) 100,00 %
05.05.2019 09:32 3,1 C 12,8 C 5,0 C 95 % 1013,3 hPa 0,0 l/m 12,4 km/h (3 Bft) W 267 0 min 0,000 mm 0,6 UV-I 153 W/m 2,4 C -1,7 C 17,7 km/h (3 Bft) 98,00 %
05.05.2019 09:34 3,1 C 12,8 C 4,4 C 95 % 1013,3 hPa 0,0 l/m 14,2 km/h (3 Bft) W-SW 258 0 min 0,000 mm 0,6 UV-I 158 W/m 2,4 C -2,8 C 22,5 km/h (4 Bft) 97,87 %
05.05.2019 09:36 3,1 C 12,8 C 5,0 C 95 % 1013,3 hPa 0,0 l/m 10,3 km/h (2 Bft) W-SW 241 0 min 0,000 mm 0,6 UV-I 150 W/m 2,4 C -0,2 C 16,1 km/h (3 Bft) 100,00 %
05.05.2019 09:38 3,2 C 12,8 C 5,0 C 95 % 1013,3 hPa 0,0 l/m 11,7 km/h (2 Bft) W-NW 294 0 min 0,000 mm 0,5 UV-I 133 W/m 2,5 C -1,1 C 19,3 km/h (3 Bft) 100,00 %
05.05.2019 09:40 3,1 C 12,8 C 4,4 C 95 % 1013,4 hPa 0,0 l/m 11,9 km/h (2 Bft) W-SW 256 0 min 0,000 mm 0,1 UV-I 119 W/m 2,4 C -1,4 C 17,7 km/h (3 Bft) 100,00 %
05.05.2019 09:42 3,1 C 12,8 C 4,4 C 94 % 1013,4 hPa 0,0 l/m 7,4 km/h (2 Bft) W 267 0 min 0,000 mm 0,5 UV-I 122 W/m 2,2 C 2,2 C 11,3 km/h (2 Bft) 95,74 %
05.05.2019 09:44 3,2 C 12,8 C 5,0 C 95 % 1013,4 hPa 0,0 l/m 9,3 km/h (2 Bft) W-SW 250 0 min 0,000 mm 0,5 UV-I 144 W/m 2,5 C 0,6 C 14,5 km/h (3 Bft) 100,00 %
05.05.2019 09:46 3,2 C 12,8 C 5,0 C 95 % 1013,4 hPa 0,0 l/m 11,8 km/h (2 Bft) W-SW 251 0 min 0,000 mm 0,7 UV-I 181 W/m 2,5 C -1,2 C 16,1 km/h (3 Bft) 100,00 %
05.05.2019 09:48 3,3 C 12,8 C 5,6 C 95 % 1013,4 hPa 0,0 l/m 10,2 km/h (2 Bft) W-SW 240 0 min 0,000 mm 0,8 UV-I 210 W/m 2,6 C 0,0 C 16,1 km/h (3 Bft) 96,00 %
05.05.2019 09:50 3,3 C 12,8 C 5,6 C 95 % 1013,4 hPa 0,0 l/m 13,8 km/h (3 Bft) W 267 0 min 0,000 mm 0,9 UV-I 229 W/m 2,6 C -2,3 C 20,9 km/h (4 Bft) 98,00 %
05.05.2019 09:52 3,4 C 12,8 C 6,1 C 95 % 1013,5 hPa 0,0 l/m 15,0 km/h (3 Bft) W-SW 251 0 min 0,000 mm 0,9 UV-I 229 W/m 2,7 C -2,9 C 20,9 km/h (4 Bft) 100,00 %
05.05.2019 09:54 3,4 C 12,8 C 5,6 C 95 % 1013,5 hPa 0,0 l/m 13,3 km/h (3 Bft) W 278 0 min 0,000 mm 0,8 UV-I 201 W/m 2,7 C -1,9 C 19,3 km/h (3 Bft) 100,00 %
05.05.2019 09:56 3,4 C 12,8 C 5,6 C 95 % 1013,5 hPa 0,0 l/m 11,6 km/h (2 Bft) W-SW 251 0 min 0,000 mm 0,7 UV-I 194 W/m 2,7 C -0,8 C 17,7 km/h (3 Bft) 100,00 %
05.05.2019 09:59 3,5 C 12,8 C 5,6 C 94 % 1013,5 hPa 0,0 l/m 12,8 km/h (3 Bft) W-NW 288 0 min 0,000 mm 0,7 UV-I 180 W/m 2,6 C -1,5 C 22,5 km/h (4 Bft) 100,00 %
05.05.2019 10:00 3,5 C 12,8 C 5,6 C 95 % 1013,5 hPa 0,0 l/m 14,2 km/h (3 Bft) W 267 0 min 0,000 mm 0,8 UV-I 184 W/m 2,8 C -2,3 C 17,7 km/h (3 Bft) 100,00 %
05.05.2019 10:02 3,4 C 12,8 C 5,0 C 94 % 1013,5 hPa 0,0 l/m 12,2 km/h (2 Bft) W 273 0 min 0,051 mm 0,8 UV-I 189 W/m 2,5 C -1,2 C 19,3 km/h (3 Bft) 100,00 %
05.05.2019 10:04 3,4 C 12,8 C 5,6 C 94 % 1013,5 hPa 0,0 l/m 11,7 km/h (2 Bft) W-SW 250 0 min 0,000 mm 0,8 UV-I 200 W/m 2,5 C -0,9 C 16,1 km/h (3 Bft) 100,00 %
05.05.2019 10:06 3,6 C 12,8 C 6,1 C 94 % 1013,6 hPa 0,0 l/m 11,6 km/h (2 Bft) W-SW 239 0 min 0,000 mm 0,8 UV-I 199 W/m 2,7 C -0,6 C 19,3 km/h (3 Bft) 100,00 %
05.05.2019 10:08 3,6 C 12,8 C 6,1 C 94 % 1013,7 hPa 0,0 l/m 11,9 km/h (2 Bft) S-SW 192 0 min 0,000 mm 0,8 UV-I 190 W/m 2,7 C -0,8 C 19,3 km/h (3 Bft) 98,11 %
05.05.2019 10:10 3,6 C 12,8 C 5,6 C 94 % 1013,6 hPa 0,0 l/m 12,5 km/h (3 Bft) W-SW 258 0 min 0,000 mm 0,7 UV-I 177 W/m 2,7 C -1,2 C 22,5 km/h (4 Bft) 96,23 %
05.05.2019 10:12 3,6 C 12,8 C 5,6 C 94 % 1013,6 hPa 0,0 l/m 11,6 km/h (2 Bft) SW 234 0 min 0,000 mm 0,8 UV-I 185 W/m 2,7 C -0,6 C 20,9 km/h (4 Bft) 97,37 %
05.05.2019 10:14 3,7 C 12,8 C 5,6 C 94 % 1013,6 hPa 0,0 l/m 11,6 km/h (2 Bft) W-SW 246 0 min 0,000 mm 0,8 UV-I 193 W/m 2,8 C -0,5 C 19,3 km/h (3 Bft) 96,00 %
05.05.2019 10:16 3,7 C 12,8 C 5,6 C 94 % 1013,6 hPa 0,0 l/m 11,1 km/h (2 Bft) W-SW 246 0 min 0,000 mm 0,8 UV-I 189 W/m 2,8 C -0,1 C 19,3 km/h (3 Bft) 95,74 %
05.05.2019 10:18 3,8 C 12,8 C 6,1 C 94 % 1013,6 hPa 0,0 l/m 14,0 km/h (3 Bft) W-NW 284 0 min 0,000 mm 0,8 UV-I 187 W/m 2,9 C -1,8 C 22,5 km/h (4 Bft) 98,11 %
05.05.2019 10:20 3,8 C 12,8 C 6,1 C 94 % 1013,6 hPa 0,0 l/m 14,3 km/h (3 Bft) W-SW 252 0 min 0,000 mm 0,8 UV-I 184 W/m 2,9 C -2,0 C 22,5 km/h (4 Bft) 97,56 %
05.05.2019 10:22 3,8 C 12,8 C 6,1 C 94 % 1013,6 hPa 0,0 l/m 10,9 km/h (2 Bft) W 276 0 min 0,000 mm 0,9 UV-I 195 W/m 2,9 C 0,1 C 17,7 km/h (3 Bft) 98,11 %
05.05.2019 10:24 3,9 C 12,8 C 6,7 C 94 % 1013,6 hPa 0,0 l/m 11,3 km/h (2 Bft) W-SW 246 0 min 0,000 mm 0,9 UV-I 198 W/m 3,0 C -0,1 C 14,5 km/h (3 Bft) 95,12 %
05.05.2019 10:26 3,9 C 12,8 C 6,1 C 94 % 1013,6 hPa 0,0 l/m 11,7 km/h (2 Bft) W-SW 257 0 min 0,000 mm 0,8 UV-I 187 W/m 3,0 C -0,3 C 16,1 km/h (3 Bft) 98,00 %
05.05.2019 10:28 3,9 C 12,8 C 6,1 C 94 % 1013,6 hPa 0,0 l/m 14,4 km/h (3 Bft) W 271 0 min 0,000 mm 0,8 UV-I 178 W/m 3,0 C -1,9 C 22,5 km/h (4 Bft) 97,87 %
05.05.2019 10:30 4,0 C 12,8 C 6,1 C 94 % 1013,7 hPa 0,0 l/m 9,4 km/h (2 Bft) W-SW 246 0 min 0,000 mm 0,8 UV-I 188 W/m 3,1 C 1,4 C 19,3 km/h (3 Bft) 97,87 %
05.05.2019 10:32 4,1 C 12,8 C 6,7 C 94 % 1013,7 hPa 0,0 l/m 6,7 km/h (2 Bft) W-SW 254 0 min 0,000 mm 0,8 UV-I 177 W/m 3,2 C 3,8 C 11,3 km/h (2 Bft) 100,00 %
05.05.2019 10:34 4,1 C 12,8 C 6,7 C 94 % 1013,7 hPa 0,0 l/m 6,8 km/h (2 Bft) SW 236 0 min 0,000 mm 0,8 UV-I 185 W/m 3,2 C 3,7 C 11,3 km/h (2 Bft) 100,00 %
05.05.2019 10:36 4,2 C 12,8 C 6,7 C 94 % 1013,7 hPa 0,0 l/m 8,2 km/h (2 Bft) W 259 0 min 0,000 mm 0,9 UV-I 203 W/m 3,3 C 2,6 C 14,5 km/h (3 Bft) 98,00 %
05.05.2019 10:38 4,3 C 12,8 C 6,7 C 94 % 1013,7 hPa 0,0 l/m 7,2 km/h (2 Bft) W 270 0 min 0,000 mm 0,9 UV-I 204 W/m 3,4 C 3,6 C 14,5 km/h (3 Bft) 94,87 %
05.05.2019 10:40 4,3 C 12,8 C 6,7 C 94 % 1013,7 hPa 0,0 l/m 11,0 km/h (2 Bft) W 276 0 min 0,000 mm 0,8 UV-I 184 W/m 3,4 C 0,6 C 14,5 km/h (3 Bft) 93,10 %
05.05.2019 10:42 4,2 C 12,8 C 6,1 C 93 % 1013,7 hPa 0,0 l/m 9,5 km/h (2 Bft) W-SW 257 0 min 0,000 mm 0,7 UV-I 159 W/m 3,2 C 1,6 C 16,1 km/h (3 Bft) 97,44 %
05.05.2019 10:44 4,2 C 12,8 C 6,1 C 93 % 1013,7 hPa 0,0 l/m 5,8 km/h (2 Bft) W-SW 250 0 min 0,000 mm 0,8 UV-I 168 W/m 3,2 C 4,2 C 9,7 km/h (2 Bft) 96,43 %
05.05.2019 10:46 4,3 C 12,8 C 6,7 C 93 % 1013,7 hPa 0,0 l/m 7,2 km/h (2 Bft) W-SW 240 0 min 0,000 mm 0,8 UV-I 175 W/m 3,3 C 3,6 C 12,9 km/h (3 Bft) 94,29 %
05.05.2019 10:48 4,3 C 12,8 C 6,7 C 93 % 1013,7 hPa 0,0 l/m 8,8 km/h (2 Bft) W 278 0 min 0,000 mm 0,7 UV-I 156 W/m 3,3 C 2,2 C 12,9 km/h (3 Bft) 94,64 %
05.05.2019 10:50 4,3 C 12,8 C 6,7 C 93 % 1013,6 hPa 0,0 l/m 7,6 km/h (2 Bft) W-SW 242 0 min 0,000 mm 0,8 UV-I 174 W/m 3,3 C 3,2 C 12,9 km/h (3 Bft) 95,74 %
05.05.2019 10:52 4,3 C 12,8 C 6,1 C 93 % 1013,6 hPa 0,0 l/m 9,2 km/h (2 Bft) W 267 0 min 0,000 mm 1,0 UV-I 212 W/m 3,3 C 1,9 C 14,5 km/h (3 Bft) 95,12 %
05.05.2019 10:54 4,3 C 12,8 C 6,1 C 93 % 1013,6 hPa 0,0 l/m 10,3 km/h (2 Bft) W 263 0 min 0,000 mm 1,0 UV-I 204 W/m 3,3 C 1,1 C 16,1 km/h (3 Bft) 94,34 %
05.05.2019 10:56 4,3 C 12,8 C 6,7 C 93 % 1013,6 hPa 0,0 l/m 7,1 km/h (2 Bft) W 276 0 min 0,000 mm 1,0 UV-I 205 W/m 3,3 C 3,7 C 12,9 km/h (3 Bft) 97,56 %
05.05.2019 10:58 4,4 C 12,8 C 7,2 C 93 % 1013,6 hPa 0,0 l/m 10,0 km/h (2 Bft) W 271 0 min 0,000 mm 1,1 UV-I 240 W/m 3,4 C 1,4 C 14,5 km/h (3 Bft) 90,91 %
05.05.2019 11:00 4,5 C 12,8 C 7,2 C 93 % 1013,6 hPa 0,0 l/m 7,5 km/h (2 Bft) W 279 0 min 0,076 mm 1,3 UV-I 275 W/m 3,5 C 3,5 C 12,9 km/h (3 Bft) 95,74 %
05.05.2019 11:02 4,6 C 12,8 C 7,8 C 93 % 1013,6 hPa 0,0 l/m 7,9 km/h (2 Bft) W 273 0 min 0,000 mm 1,3 UV-I 285 W/m 3,6 C 3,3 C 14,5 km/h (3 Bft) 93,62 %
05.05.2019 11:04 4,7 C 12,8 C 7,8 C 93 % 1013,6 hPa 0,0 l/m 8,8 km/h (2 Bft) SW 232 0 min 0,000 mm 1,2 UV-I 248 W/m 3,7 C 2,6 C 12,9 km/h (3 Bft) 96,23 %
05.05.2019 11:06 4,8 C 12,8 C 7,8 C 93 % 1013,6 hPa 0,0 l/m 6,7 km/h (2 Bft) W-SW 247 0 min 0,000 mm 1,1 UV-I 221 W/m 3,8 C 4,6 C 12,9 km/h (3 Bft) 96,00 %
05.05.2019 11:08 4,8 C 12,8 C 7,8 C 93 % 1013,6 hPa 0,0 l/m 4,1 km/h (1 Bft) W-SW 258 0 min 0,000 mm 1,0 UV-I 208 W/m 3,8 C 4,8 C 9,7 km/h (2 Bft) 94,74 %
05.05.2019 11:10 4,9 C 12,8 C 7,8 C 93 % 1013,6 hPa 0,0 l/m 9,0 km/h (2 Bft) W 273 0 min 0,000 mm 0,9 UV-I 192 W/m 3,9 C 2,7 C 14,5 km/h (3 Bft) 98,11 %
05.05.2019 11:12 4,8 C 12,8 C 6,7 C 92 % 1013,6 hPa 0,0 l/m 10,8 km/h (2 Bft) W 259 0 min 0,000 mm 0,9 UV-I 176 W/m 3,6 C 1,3 C 14,5 km/h (3 Bft) 98,00 %
05.05.2019 11:14 4,7 C 12,8 C 6,7 C 92 % 1013,7 hPa 0,0 l/m 10,7 km/h (2 Bft) W-SW 255 0 min 0,000 mm 0,8 UV-I 162 W/m 3,5 C 1,3 C 16,1 km/h (3 Bft) 94,87 %
05.05.2019 11:16 4,7 C 12,8 C 6,7 C 92 % 1013,7 hPa 0,0 l/m 9,8 km/h (2 Bft) W-NW 286 0 min 0,000 mm 0,8 UV-I 164 W/m 3,5 C 1,9 C 12,9 km/h (3 Bft) 95,74 %
05.05.2019 11:18 4,7 C 12,8 C 6,7 C 92 % 1013,7 hPa 0,0 l/m 8,4 km/h (2 Bft) W 274 0 min 0,000 mm 0,8 UV-I 177 W/m 3,5 C 3,0 C 14,5 km/h (3 Bft) 98,00 %
05.05.2019 11:20 4,7 C 12,8 C 6,7 C 91 % 1013,6 hPa 0,0 l/m 10,4 km/h (2 Bft) W-SW 256 0 min 0,000 mm 0,9 UV-I 196 W/m 3,4 C 1,5 C 16,1 km/h (3 Bft) 97,37 %
05.05.2019 11:22 4,7 C 12,8 C 6,7 C 91 % 1013,6 hPa 0,0 l/m 8,0 km/h (2 Bft) W 266 0 min 0,000 mm 0,9 UV-I 192 W/m 3,4 C 3,3 C 14,5 km/h (3 Bft) 96,43 %
05.05.2019 11:24 4,7 C 12,8 C 6,7 C 91 % 1013,7 hPa 0,0 l/m 8,3 km/h (2 Bft) W-NW 288 0 min 0,000 mm 0,7 UV-I 165 W/m 3,4 C 3,0 C 12,9 km/h (3 Bft) 98,00 %
05.05.2019 11:26 4,8 C 12,8 C 6,7 C 92 % 1013,7 hPa 0,0 l/m 9,5 km/h (2 Bft) W 279 0 min 0,000 mm 0,7 UV-I 160 W/m 3,6 C 2,2 C 14,5 km/h (3 Bft) 94,74 %
05.05.2019 11:28 4,8 C 12,8 C 6,7 C 92 % 1013,6 hPa 0,0 l/m 9,1 km/h (2 Bft) W 269 0 min 0,000 mm 0,9 UV-I 187 W/m 3,6 C 2,5 C 16,1 km/h (3 Bft) 97,87 %
05.05.2019 11:30 4,7 C 12,8 C 6,7 C 91 % 1013,7 hPa 0,0 l/m 7,3 km/h (2 Bft) SW 226 0 min 0,000 mm 1,0 UV-I 204 W/m 3,4 C 3,9 C 11,3 km/h (2 Bft) 96,23 %
05.05.2019 11:32 4,8 C 12,8 C 6,7 C 91 % 1013,6 hPa 0,0 l/m 5,4 km/h (1 Bft) W-SW 250 0 min 0,000 mm 0,9 UV-I 205 W/m 3,5 C 4,8 C 11,3 km/h (2 Bft) 90,24 %
05.05.2019 11:34 4,9 C 12,8 C 7,2 C 91 % 1013,7 hPa 0,0 l/m 7,6 km/h (2 Bft) W 278 0 min 0,000 mm 1,0 UV-I 222 W/m 3,6 C 3,8 C 17,7 km/h (3 Bft) 96,00 %
05.05.2019 11:36 4,9 C 12,8 C 7,2 C 91 % 1013,7 hPa 0,0 l/m 7,6 km/h (2 Bft) W 273 0 min 0,000 mm 1,0 UV-I 204 W/m 3,6 C 3,8 C 16,1 km/h (3 Bft) 94,00 %
05.05.2019 11:38 4,8 C 12,8 C 7,2 C 91 % 1013,7 hPa 0,0 l/m 11,2 km/h (2 Bft) W-NW 283 0 min 0,000 mm 0,9 UV-I 174 W/m 3,5 C 1,0 C 17,7 km/h (3 Bft) 97,37 %
05.05.2019 11:40 4,8 C 12,8 C 6,7 C 91 % 1013,7 hPa 0,0 l/m 10,0 km/h (2 Bft) W 267 0 min 0,000 mm 1,0 UV-I 192 W/m 3,5 C 1,9 C 14,5 km/h (3 Bft) 94,00 %
05.05.2019 11:42 4,8 C 12,8 C 6,7 C 90 % 1013,6 hPa 0,0 l/m 9,9 km/h (2 Bft) N-NW 342 0 min 0,000 mm 0,8 UV-I 157 W/m 3,3 C 1,9 C 12,9 km/h (3 Bft) 96,23 %
05.05.2019 11:44 4,8 C 12,8 C 6,7 C 90 % 1013,6 hPa 0,0 l/m 6,1 km/h (2 Bft) W-NW 302 0 min 0,000 mm 0,8 UV-I 148 W/m 3,3 C 4,8 C 11,3 km/h (2 Bft) 93,62 %
05.05.2019 11:46 4,8 C 12,8 C 6,7 C 90 % 1013,6 hPa 0,0 l/m 9,9 km/h (2 Bft) W-SW 242 0 min 0,000 mm 0,9 UV-I 169 W/m 3,3 C 1,9 C 14,5 km/h (3 Bft) 95,74 %
05.05.2019 11:48 4,8 C 12,8 C 6,7 C 91 % 1013,6 hPa 0,0 l/m 5,5 km/h (1 Bft) W 269 0 min 0,000 mm 0,7 UV-I 148 W/m 3,5 C 4,8 C 12,9 km/h (3 Bft) 95,74 %
05.05.2019 11:50 4,8 C 12,8 C 6,7 C 91 % 1013,7 hPa 0,0 l/m 8,8 km/h (2 Bft) W-NW 285 0 min 0,000 mm 0,8 UV-I 158 W/m 3,5 C 2,7 C 19,3 km/h (3 Bft) 93,62 %
05.05.2019 11:52 4,8 C 12,8 C 6,7 C 91 % 1013,7 hPa 0,0 l/m 8,7 km/h (2 Bft) W-NW 297 0 min 0,000 mm 0,9 UV-I 177 W/m 3,5 C 2,8 C 16,1 km/h (3 Bft) 100,00 %
05.05.2019 11:54 4,8 C 12,8 C 6,7 C 91 % 1013,7 hPa 0,0 l/m 4,6 km/h (1 Bft) W-SW 249 0 min 0,000 mm 0,8 UV-I 178 W/m 3,5 C 4,8 C 12,9 km/h (3 Bft) 100,00 %
05.05.2019 11:56 4,8 C 12,8 C 6,7 C 91 % 1013,7 hPa 0,0 l/m 7,7 km/h (2 Bft) W 277 0 min 0,000 mm 0,8 UV-I 175 W/m 3,5 C 3,6 C 14,5 km/h (3 Bft) 100,00 %
05.05.2019 11:58 4,8 C 12,8 C 6,7 C 91 % 1013,6 hPa 0,0 l/m 9,1 km/h (2 Bft) W-NW 287 0 min 0,000 mm 0,8 UV-I 175 W/m 3,5 C 2,5 C 16,1 km/h (3 Bft) 95,74 %
05.05.2019 12:00 4,7 C 12,8 C 6,7 C 90 % 1013,6 hPa 0,0 l/m 6,7 km/h (2 Bft) W 262 0 min 0,000 mm 0,9 UV-I 179 W/m 3,2 C 4,4 C 12,9 km/h (3 Bft) 100,00 %
05.05.2019 12:02 4,8 C 12,8 C 6,7 C 91 % 1013,6 hPa 0,0 l/m 7,2 km/h (2 Bft) W 273 0 min 0,076 mm 0,9 UV-I 188 W/m 3,5 C 4,1 C 11,3 km/h (2 Bft) 100,00 %
05.05.2019 12:04 4,8 C 12,8 C 7,2 C 91 % 1013,6 hPa 0,0 l/m 6,2 km/h (2 Bft) W 265 0 min 0,000 mm 1,0 UV-I 198 W/m 3,5 C 4,8 C 12,9 km/h (3 Bft) 100,00 %
05.05.2019 12:06 4,8 C 12,8 C 7,2 C 91 % 1013,6 hPa 0,0 l/m 8,2 km/h (2 Bft) W-SW 240 0 min 0,000 mm 0,9 UV-I 176 W/m 3,5 C 3,2 C 14,5 km/h (3 Bft) 100,00 %
05.05.2019 12:08 4,9 C 12,8 C 6,7 C 91 % 1013,6 hPa 0,0 l/m 10,8 km/h (2 Bft) W-NW 284 0 min 0,000 mm 0,9 UV-I 171 W/m 3,6 C 1,4 C 16,1 km/h (3 Bft) 100,00 %
05.05.2019 12:10 4,9 C 12,8 C 7,2 C 91 % 1013,6 hPa 0,0 l/m 9,5 km/h (2 Bft) W 268 0 min 0,000 mm 1,1 UV-I 206 W/m 3,6 C 2,3 C 16,1 km/h (3 Bft) 98,11 %
05.05.2019 12:12 4,9 C 12,8 C 7,2 C 91 % 1013,7 hPa 0,0 l/m 7,7 km/h (2 Bft) W 265 0 min 0,000 mm 1,2 UV-I 232 W/m 3,6 C 3,8 C 12,9 km/h (3 Bft) 100,00 %
05.05.2019 12:14 5,1 C 12,8 C 7,8 C 92 % 1013,7 hPa 0,0 l/m 5,8 km/h (2 Bft) W-NW 302 0 min 0,000 mm 1,0 UV-I 203 W/m 3,9 C 5,1 C 11,3 km/h (2 Bft) 100,00 %
05.05.2019 12:16 5,1 C 12,8 C 7,8 C 91 % 1013,8 hPa 0,0 l/m 5,6 km/h (1 Bft) W 274 0 min 0,000 mm 0,9 UV-I 192 W/m 3,8 C 5,1 C 11,3 km/h (2 Bft) 97,37 %
05.05.2019 12:18 4,9 C 12,8 C 7,2 C 90 % 1013,7 hPa 0,0 l/m 9,8 km/h (2 Bft) W 270 0 min 0,000 mm 1,0 UV-I 219 W/m 3,4 C 2,1 C 17,7 km/h (3 Bft) 100,00 %
05.05.2019 12:20 5,0 C 12,8 C 7,8 C 90 % 1013,7 hPa 0,0 l/m 4,9 km/h (1 Bft) W 263 0 min 0,000 mm 1,3 UV-I 269 W/m 3,5 C 5,0 C 9,7 km/h (2 Bft) 100,00 %
05.05.2019 12:22 5,1 C 12,8 C 8,3 C 91 % 1013,7 hPa 0,0 l/m 4,9 km/h (1 Bft) W-NW 282 0 min 0,000 mm 1,6 UV-I 340 W/m 3,8 C 5,1 C 11,3 km/h (2 Bft) 96,23 %
05.05.2019 12:24 5,3 C 12,8 C 9,4 C 91 % 1013,7 hPa 0,0 l/m 5,7 km/h (1 Bft) W 273 0 min 0,000 mm 2,0 UV-I 419 W/m 4,0 C 5,3 C 11,3 km/h (2 Bft) 100,00 %
05.05.2019 12:26 5,3 C 12,8 C 10,0 C 91 % 1013,7 hPa 0,0 l/m 9,5 km/h (2 Bft) W-SW 256 2 min 0,000 mm 2,3 UV-I 477 W/m 4,0 C 2,8 C 16,1 km/h (3 Bft) 100,00 %
05.05.2019 12:28 5,6 C 12,8 C 11,1 C 91 % 1013,7 hPa 0,0 l/m 8,2 km/h (2 Bft) W 266 2 min 0,000 mm 2,5 UV-I 522 W/m 4,2 C 4,1 C 16,1 km/h (3 Bft) 97,56 %
05.05.2019 12:30 5,7 C 12,8 C 11,7 C 91 % 1013,7 hPa 0,0 l/m 5,8 km/h (2 Bft) W-SW 254 2 min 0,000 mm 2,5 UV-I 534 W/m 4,3 C 5,7 C 11,3 km/h (2 Bft) 100,00 %
05.05.2019 12:32 5,9 C 12,8 C 11,7 C 90 % 1013,7 hPa 0,0 l/m 8,7 km/h (2 Bft) NW 310 2 min 0,000 mm 2,4 UV-I 516 W/m 4,4 C 4,0 C 14,5 km/h (3 Bft) 95,74 %
05.05.2019 12:34 5,9 C 12,8 C 11,1 C 89 % 1013,8 hPa 0,0 l/m 11,4 km/h (2 Bft) W 278 2 min 0,000 mm 2,3 UV-I 483 W/m 4,2 C 2,2 C 17,7 km/h (3 Bft) 98,00 %
05.05.2019 12:36 6,1 C 12,8 C 11,1 C 89 % 1013,8 hPa 0,0 l/m 9,3 km/h (2 Bft) W 274 2 min 0,000 mm 2,3 UV-I 500 W/m 4,4 C 3,8 C 14,5 km/h (3 Bft) 96,23 %
05.05.2019 12:38 6,1 C 12,8 C 11,1 C 88 % 1013,7 hPa 0,0 l/m 8,8 km/h (2 Bft) W 263 0 min 0,000 mm 2,0 UV-I 461 W/m 4,3 C 4,1 C 17,7 km/h (3 Bft) 97,37 %
05.05.2019 12:40 6,2 C 12,8 C 11,1 C 88 % 1013,7 hPa 0,0 l/m 4,8 km/h (1 Bft) W-NW 293 0 min 0,000 mm 1,7 UV-I 383 W/m 4,4 C 6,2 C 12,9 km/h (3 Bft) 97,87 %
05.05.2019 12:42 6,3 C 12,8 C 10,6 C 87 % 1013,7 hPa 0,0 l/m 7,9 km/h (2 Bft) NW 325 0 min 0,000 mm 1,5 UV-I 319 W/m 4,3 C 5,0 C 16,1 km/h (3 Bft) 92,00 %
05.05.2019 12:44 6,1 C 12,8 C 9,4 C 86 % 1013,8 hPa 0,0 l/m 9,8 km/h (2 Bft) N 9 0 min 0,000 mm 1,2 UV-I 245 W/m 3,9 C 3,4 C 14,5 km/h (3 Bft) 97,73 %
05.05.2019 12:46 5,9 C 12,8 C 8,3 C 83 % 1013,8 hPa 0,0 l/m 5,2 km/h (1 Bft) NW 323 0 min 0,000 mm 0,9 UV-I 187 W/m 3,2 C 5,9 C 8,0 km/h (2 Bft) 98,11 %
05.05.2019 12:48 5,8 C 12,8 C 7,8 C 84 % 1013,8 hPa 0,0 l/m 4,8 km/h (1 Bft) W-NW 291 0 min 0,000 mm 0,7 UV-I 142 W/m 3,3 C 5,8 C 11,3 km/h (2 Bft) 94,74 %
05.05.2019 12:50 5,7 C 12,8 C 7,2 C 85 % 1013,8 hPa 0,0 l/m 5,1 km/h (1 Bft) N-NW 333 0 min 0,000 mm 0,6 UV-I 125 W/m 3,4 C 5,7 C 6,4 km/h (2 Bft) 98,21 %
05.05.2019 12:52 5,4 C 12,8 C 7,2 C 85 % 1013,8 hPa 0,0 l/m 3,8 km/h (1 Bft) NW 325 0 min 0,000 mm 0,6 UV-I 119 W/m 3,1 C 5,4 C 8,0 km/h (2 Bft) 94,74 %
05.05.2019 12:54 5,3 C 12,8 C 6,7 C 86 % 1013,8 hPa 0,2 l/m 4,2 km/h (1 Bft) W 269 0 min 0,000 mm 0,5 UV-I 112 W/m 3,2 C 5,3 C 4,8 km/h (1 Bft) 95,45 %
05.05.2019 12:56 5,3 C 12,8 C 6,7 C 86 % 1013,8 hPa 0,0 l/m 4,4 km/h (1 Bft) N-NO 19 0 min 0,000 mm 0,5 UV-I 110 W/m 3,2 C 5,3 C 11,3 km/h (2 Bft) 94,64 %
05.05.2019 12:58 5,3 C 12,8 C 6,7 C 87 % 1013,8 hPa 0,0 l/m 3,5 km/h (1 Bft) W-SW 252 0 min 0,000 mm 0,6 UV-I 122 W/m 3,3 C 5,3 C 6,4 km/h (2 Bft) 95,45 %
05.05.2019 13:00 5,3 C 12,8 C 6,7 C 87 % 1013,8 hPa 0,0 l/m 5,0 km/h (1 Bft) W-NW 290 0 min 0,127 mm 0,6 UV-I 125 W/m 3,3 C 5,3 C 6,4 km/h (2 Bft) 94,00 %
05.05.2019 13:02 5,3 C 12,8 C 6,7 C 87 % 1013,7 hPa 0,0 l/m 6,3 km/h (2 Bft) W-NW 286 0 min 0,000 mm 0,6 UV-I 117 W/m 3,3 C 5,3 C 11,3 km/h (2 Bft) 97,37 %
05.05.2019 13:04 5,3 C 12,8 C 6,7 C 87 % 1013,8 hPa 0,0 l/m 3,8 km/h (1 Bft) W-SW 254 0 min 0,000 mm 0,6 UV-I 113 W/m 3,3 C 5,3 C 8,0 km/h (2 Bft) 94,34 %
05.05.2019 13:06 5,3 C 12,8 C 6,7 C 87 % 1013,8 hPa 0,0 l/m 8,7 km/h (2 Bft) W 269 0 min 0,000 mm 0,6 UV-I 116 W/m 3,3 C 3,4 C 14,5 km/h (3 Bft) 94,44 %
05.05.2019 13:08 5,3 C 12,8 C 6,7 C 87 % 1013,8 hPa 0,0 l/m 4,9 km/h (1 Bft) NW 311 0 min 0,000 mm 0,6 UV-I 118 W/m 3,3 C 5,3 C 8,0 km/h (2 Bft) 96,23 %
05.05.2019 13:10 5,2 C 12,8 C 6,1 C 85 % 1013,8 hPa 0,0 l/m 7,4 km/h (2 Bft) W-SW 255 0 min 0,000 mm 0,6 UV-I 108 W/m 2,9 C 4,3 C 14,5 km/h (3 Bft) 98,18 %
05.05.2019 13:12 5,1 C 12,8 C 5,6 C 85 % 1013,9 hPa 0,0 l/m 4,9 km/h (1 Bft) W-NW 288 0 min 0,000 mm 0,6 UV-I 123 W/m 2,8 C 5,1 C 9,7 km/h (2 Bft) 97,44 %
05.05.2019 13:14 5,1 C 12,8 C 6,1 C 86 % 1013,8 hPa 0,0 l/m 5,9 km/h (2 Bft) W-SW 246 0 min 0,000 mm 0,9 UV-I 167 W/m 3,0 C 5,1 C 9,7 km/h (2 Bft) 96,23 %
05.05.2019 13:16 5,1 C 12,8 C 6,7 C 87 % 1013,8 hPa 0,0 l/m 5,4 km/h (1 Bft) W-SW 256 0 min 0,000 mm 1,1 UV-I 214 W/m 3,1 C 5,1 C 11,3 km/h (2 Bft) 100,00 %
05.05.2019 13:18 5,2 C 12,8 C 7,8 C 88 % 1013,9 hPa 0,0 l/m 4,7 km/h (1 Bft) W-SW 240 0 min 0,000 mm 1,2 UV-I 251 W/m 3,4 C 5,2 C 8,0 km/h (2 Bft) 100,00 %
05.05.2019 13:20 5,2 C 12,8 C 7,8 C 88 % 1013,9 hPa 0,0 l/m 3,9 km/h (1 Bft) W-NW 290 0 min 0,000 mm 1,4 UV-I 275 W/m 3,4 C 5,2 C 6,4 km/h (2 Bft) 100,00 %
05.05.2019 13:22 5,2 C 12,8 C 8,3 C 88 % 1013,9 hPa 0,0 l/m 3,6 km/h (1 Bft) W-NW 286 0 min 0,000 mm 1,5 UV-I 298 W/m 3,4 C 5,2 C 4,8 km/h (1 Bft) 100,00 %
05.05.2019 13:24 5,2 C 12,8 C 8,9 C 85 % 1013,9 hPa 0,0 l/m 1,8 km/h (1 Bft) W-NW 287 0 min 0,000 mm 1,7 UV-I 328 W/m 2,9 C 5,2 C 4,8 km/h (1 Bft) 100,00 %
05.05.2019 13:26 5,3 C 12,8 C 9,4 C 87 % 1013,9 hPa 0,0 l/m 3,4 km/h (1 Bft) W 275 0 min 0,000 mm 1,8 UV-I 361 W/m 3,3 C 5,3 C 6,4 km/h (2 Bft) 100,00 %
05.05.2019 13:28 5,6 C 12,8 C 10,0 C 87 % 1013,9 hPa 0,0 l/m 5,3 km/h (1 Bft) W-SW 252 0 min 0,000 mm 1,9 UV-I 389 W/m 3,6 C 5,6 C 6,4 km/h (2 Bft) 98,11 %
05.05.2019 13:30 5,7 C 12,8 C 10,0 C 86 % 1013,9 hPa 0,0 l/m 7,0 km/h (2 Bft) W-SW 250 0 min 0,000 mm 2,0 UV-I 419 W/m 3,5 C 5,2 C 11,3 km/h (2 Bft) 100,00 %
05.05.2019 13:32 5,7 C 12,8 C 10,0 C 85 % 1013,9 hPa 0,0 l/m 9,9 km/h (2 Bft) W 279 0 min 0,000 mm 2,0 UV-I 420 W/m 3,4 C 2,9 C 12,9 km/h (3 Bft) 100,00 %
05.05.2019 13:34 5,6 C 12,8 C 10,0 C 83 % 1014,0 hPa 0,0 l/m 5,8 km/h (2 Bft) W 279 0 min 0,000 mm 1,9 UV-I 396 W/m 2,9 C 5,6 C 11,3 km/h (2 Bft) 100,00 %
05.05.2019 13:36 5,7 C 12,8 C 10,0 C 84 % 1014,0 hPa 0,0 l/m 4,9 km/h (1 Bft) W 267 0 min 0,000 mm 1,6 UV-I 355 W/m 3,2 C 5,7 C 12,9 km/h (3 Bft) 100,00 %
05.05.2019 13:38 5,8 C 12,8 C 9,4 C 84 % 1014,0 hPa 0,0 l/m 10,3 km/h (2 Bft) W 259 0 min 0,000 mm 1,3 UV-I 288 W/m 3,3 C 2,8 C 16,1 km/h (3 Bft) 100,00 %
05.05.2019 13:40 5,8 C 12,8 C 8,9 C 84 % 1014,0 hPa 0,0 l/m 6,8 km/h (2 Bft) W 279 0 min 0,000 mm 1,0 UV-I 229 W/m 3,3 C 5,5 C 12,9 km/h (3 Bft) 100,00 %
05.05.2019 13:42 5,8 C 12,8 C 8,9 C 85 % 1014,1 hPa 0,0 l/m 6,8 km/h (2 Bft) W 263 0 min 0,000 mm 0,8 UV-I 186 W/m 3,5 C 5,5 C 12,9 km/h (3 Bft) 100,00 %
05.05.2019 13:44 5,8 C 12,8 C 8,3 C 85 % 1014,1 hPa 0,0 l/m 4,1 km/h (1 Bft) W 278 0 min 0,000 mm 0,7 UV-I 169 W/m 3,5 C 5,8 C 6,4 km/h (2 Bft) 98,00 %
05.05.2019 13:46 5,8 C 12,8 C 7,8 C 85 % 1014,1 hPa 0,0 l/m 9,4 km/h (2 Bft) W 267 0 min 0,000 mm 0,7 UV-I 163 W/m 3,5 C 3,4 C 16,1 km/h (3 Bft) 98,00 %
05.05.2019 13:48 5,7 C 12,8 C 7,2 C 85 % 1014,1 hPa 0,0 l/m 8,6 km/h (2 Bft) W-SW 243 0 min 0,000 mm 0,7 UV-I 153 W/m 3,4 C 3,9 C 12,9 km/h (3 Bft) 100,00 %
05.05.2019 13:50 5,7 C 12,8 C 7,2 C 86 % 1014,1 hPa 0,0 l/m 5,1 km/h (1 Bft) W 272 0 min 0,000 mm 0,7 UV-I 160 W/m 3,5 C 5,7 C 9,7 km/h (2 Bft) 97,37 %
05.05.2019 13:52 5,7 C 12,8 C 7,2 C 86 % 1014,1 hPa 0,0 l/m 5,8 km/h (2 Bft) W-SW 250 0 min 0,000 mm 0,8 UV-I 171 W/m 3,5 C 5,7 C 11,3 km/h (2 Bft) 100,00 %
05.05.2019 13:54 5,7 C 12,8 C 7,2 C 86 % 1014,1 hPa 0,0 l/m 8,0 km/h (2 Bft) W-NW 290 0 min 0,000 mm 0,9 UV-I 185 W/m 3,5 C 4,3 C 12,9 km/h (3 Bft) 100,00 %
05.05.2019 13:56 5,7 C 12,8 C 7,2 C 86 % 1014,0 hPa 0,0 l/m 5,7 km/h (1 Bft) W-SW 249 0 min 0,000 mm 1,0 UV-I 203 W/m 3,5 C 5,7 C 9,7 km/h (2 Bft) 100,00 %
05.05.2019 13:58 5,7 C 12,8 C 7,8 C 85 % 1014,1 hPa 0,0 l/m 7,6 km/h (2 Bft) W-NW 292 0 min 0,000 mm 1,0 UV-I 213 W/m 3,4 C 4,7 C 12,9 km/h (3 Bft) 100,00 %
05.05.2019 14:00 5,7 C 12,8 C 7,8 C 85 % 1014,1 hPa 0,0 l/m 6,9 km/h (2 Bft) W 280 0 min 0,000 mm 1,0 UV-I 214 W/m 3,4 C 5,3 C 11,3 km/h (2 Bft) 100,00 %
05.05.2019 14:02 5,7 C 12,8 C 7,8 C 85 % 1014,1 hPa 0,0 l/m 7,3 km/h (2 Bft) S-SW 212 0 min 0,102 mm 1,0 UV-I 211 W/m 3,4 C 4,9 C 11,3 km/h (2 Bft) 100,00 %
05.05.2019 14:04 5,7 C 12,8 C 7,2 C 84 % 1014,1 hPa 0,0 l/m 7,7 km/h (2 Bft) W-SW 250 0 min 0,000 mm 1,0 UV-I 216 W/m 3,2 C 4,6 C 17,7 km/h (3 Bft) 100,00 %
05.05.2019 14:06 5,7 C 12,8 C 7,8 C 84 % 1014,1 hPa 0,0 l/m 5,7 km/h (1 Bft) S-SW 212 0 min 0,000 mm 1,1 UV-I 233 W/m 3,2 C 5,7 C 9,7 km/h (2 Bft) 100,00 %
05.05.2019 14:08 5,9 C 12,8 C 8,3 C 85 % 1014,1 hPa 0,0 l/m 8,0 km/h (2 Bft) W 271 0 min 0,000 mm 1,2 UV-I 258 W/m 3,6 C 4,5 C 14,5 km/h (3 Bft) 100,00 %
05.05.2019 14:10 5,9 C 12,8 C 8,3 C 85 % 1014,1 hPa 0,0 l/m 5,9 km/h (2 Bft) W 268 0 min 0,000 mm 1,3 UV-I 286 W/m 3,6 C 5,9 C 11,3 km/h (2 Bft) 100,00 %
05.05.2019 14:12 6,1 C 12,8 C 8,9 C 86 % 1014,1 hPa 0,0 l/m 6,8 km/h (2 Bft) W-SW 257 0 min 0,000 mm 1,4 UV-I 310 W/m 3,9 C 5,8 C 12,9 km/h (3 Bft) 100,00 %
05.05.2019 14:14 6,1 C 12,8 C 8,9 C 84 % 1014,1 hPa 0,0 l/m 8,2 km/h (2 Bft) W-SW 258 0 min 0,000 mm 1,5 UV-I 324 W/m 3,6 C 4,6 C 12,9 km/h (3 Bft) 98,11 %
05.05.2019 14:16 6,1 C 12,8 C 8,9 C 84 % 1014,1 hPa 0,0 l/m 10,7 km/h (2 Bft) W-NW 282 0 min 0,000 mm 1,5 UV-I 337 W/m 3,6 C 2,8 C 14,5 km/h (3 Bft) 97,87 %
05.05.2019 14:18 6,2 C 12,8 C 9,4 C 83 % 1014,2 hPa 0,0 l/m 9,4 km/h (2 Bft) W-SW 252 0 min 0,000 mm 1,5 UV-I 340 W/m 3,5 C 3,8 C 14,5 km/h (3 Bft) 97,56 %
05.05.2019 14:20 6,2 C 12,8 C 9,4 C 84 % 1014,2 hPa 0,0 l/m 8,6 km/h (2 Bft) W 270 0 min 0,000 mm 1,4 UV-I 325 W/m 3,7 C 4,4 C 11,3 km/h (2 Bft) 96,00 %
05.05.2019 14:22 6,2 C 12,8 C 9,4 C 82 % 1014,1 hPa 0,0 l/m 8,9 km/h (2 Bft) W 276 0 min 0,000 mm 1,2 UV-I 296 W/m 3,4 C 4,2 C 12,9 km/h (3 Bft) 100,00 %
05.05.2019 14:24 6,2 C 12,8 C 8,9 C 82 % 1014,1 hPa 0,0 l/m 5,4 km/h (1 Bft) SW 234 0 min 0,000 mm 1,1 UV-I 268 W/m 3,4 C 6,2 C 9,7 km/h (2 Bft) 97,56 %
05.05.2019 14:26 6,2 C 12,8 C 8,9 C 83 % 1014,1 hPa 0,0 l/m 7,6 km/h (2 Bft) W-NW 301 0 min 0,000 mm 1,0 UV-I 235 W/m 3,5 C 5,2 C 11,3 km/h (2 Bft) 97,56 %
05.05.2019 14:28 6,2 C 12,8 C 8,3 C 83 % 1014,1 hPa 0,0 l/m 5,5 km/h (1 Bft) W 281 0 min 0,000 mm 0,9 UV-I 202 W/m 3,5 C 6,2 C 9,7 km/h (2 Bft) 95,16 %
05.05.2019 14:30 6,3 C 12,8 C 8,3 C 83 % 1014,1 hPa 0,0 l/m 6,3 km/h (2 Bft) W-SW 246 0 min 0,000 mm 0,8 UV-I 184 W/m 3,6 C 6,3 C 11,3 km/h (2 Bft) 97,87 %
05.05.2019 14:32 6,2 C 12,8 C 7,8 C 83 % 1014,2 hPa 0,0 l/m 9,0 km/h (2 Bft) W-SW 249 0 min 0,000 mm 0,7 UV-I 171 W/m 3,5 C 4,1 C 12,9 km/h (3 Bft) 97,87 %
05.05.2019 14:34 6,2 C 12,8 C 7,8 C 82 % 1014,2 hPa 0,0 l/m 4,1 km/h (1 Bft) W 262 0 min 0,000 mm 0,7 UV-I 160 W/m 3,4 C 6,2 C 11,3 km/h (2 Bft) 97,56 %
05.05.2019 14:36 6,1 C 12,8 C 7,8 C 83 % 1014,2 hPa 0,0 l/m 4,6 km/h (1 Bft) W 277 0 min 0,000 mm 0,6 UV-I 153 W/m 3,4 C 6,1 C 6,4 km/h (2 Bft) 95,74 %
05.05.2019 14:38 6,1 C 12,8 C 7,8 C 83 % 1014,2 hPa 0,0 l/m 4,6 km/h (1 Bft) W 267 0 min 0,000 mm 0,6 UV-I 143 W/m 3,4 C 6,1 C 6,4 km/h (2 Bft) 98,21 %
05.05.2019 14:40 6,1 C 12,8 C 7,8 C 84 % 1014,2 hPa 0,0 l/m 5,4 km/h (1 Bft) W 267 0 min 0,000 mm 0,5 UV-I 130 W/m 3,6 C 6,1 C 11,3 km/h (2 Bft) 97,56 %
05.05.2019 14:42 6,2 C 12,8 C 7,8 C 84 % 1014,2 hPa 0,0 l/m 4,3 km/h (1 Bft) W 267 0 min 0,000 mm 0,4 UV-I 120 W/m 3,7 C 6,2 C 11,3 km/h (2 Bft) 93,62 %
05.05.2019 14:44 6,2 C 12,8 C 7,2 C 84 % 1014,2 hPa 0,0 l/m 8,8 km/h (2 Bft) W-SW 240 0 min 0,000 mm 0,0 UV-I 109 W/m 3,7 C 4,2 C 16,1 km/h (3 Bft) 95,74 %
05.05.2019 14:46 6,1 C 12,8 C 7,2 C 83 % 1014,2 hPa 0,0 l/m 5,9 km/h (2 Bft) SW 219 0 min 0,000 mm 0,0 UV-I 108 W/m 3,4 C 6,1 C 9,7 km/h (2 Bft) 97,73 %
05.05.2019 14:48 6,1 C 12,8 C 7,2 C 84 % 1014,2 hPa 0,0 l/m 6,1 km/h (2 Bft) SW 223 0 min 0,000 mm 0,3 UV-I 119 W/m 3,6 C 6,1 C 8,0 km/h (2 Bft) 98,00 %
05.05.2019 14:50 6,1 C 12,8 C 7,8 C 85 % 1014,2 hPa 0,0 l/m 6,1 km/h (2 Bft) S-SW 209 0 min 0,000 mm 0,5 UV-I 134 W/m 3,8 C 6,1 C 8,0 km/h (2 Bft) 95,74 %
05.05.2019 14:52 6,0 C 12,8 C 7,8 C 85 % 1014,2 hPa 0,0 l/m 6,3 km/h (2 Bft) S-SW 210 0 min 0,000 mm 0,7 UV-I 155 W/m 3,7 C 6,0 C 9,7 km/h (2 Bft) 92,68 %
05.05.2019 14:54 6,0 C 12,8 C 7,8 C 85 % 1014,2 hPa 0,0 l/m 7,0 km/h (2 Bft) S-SW 208 0 min 0,000 mm 0,7 UV-I 172 W/m 3,7 C 5,5 C 11,3 km/h (2 Bft) 96,00 %
05.05.2019 14:56 6,1 C 12,8 C 8,3 C 85 % 1014,1 hPa 0,0 l/m 7,8 km/h (2 Bft) W-SW 243 0 min 0,000 mm 0,7 UV-I 178 W/m 3,8 C 4,9 C 12,9 km/h (3 Bft) 96,23 %
05.05.2019 14:58 6,2 C 12,8 C 8,3 C 85 % 1014,1 hPa 0,0 l/m 8,0 km/h (2 Bft) S-SW 208 0 min 0,000 mm 0,7 UV-I 182 W/m 3,9 C 4,9 C 11,3 km/h (2 Bft) 97,37 %
05.05.2019 15:00 6,2 C 12,8 C 8,3 C 85 % 1014,1 hPa 0,0 l/m 7,3 km/h (2 Bft) SW 230 0 min 0,000 mm 0,8 UV-I 187 W/m 3,9 C 5,4 C 12,9 km/h (3 Bft) 92,00 %
05.05.2019 15:02 6,2 C 12,8 C 8,3 C 85 % 1014,1 hPa 0,0 l/m 5,8 km/h (2 Bft) W-SW 250 0 min 0,102 mm 0,8 UV-I 188 W/m 3,9 C 6,2 C 12,9 km/h (3 Bft) 100,00 %
05.05.2019 15:04 6,3 C 12,8 C 7,8 C 85 % 1014,1 hPa 0,0 l/m 7,0 km/h (2 Bft) W-SW 239 0 min 0,000 mm 0,8 UV-I 185 W/m 4,0 C 5,8 C 12,9 km/h (3 Bft) 93,75 %
05.05.2019 15:06 6,3 C 12,8 C 7,8 C 85 % 1014,1 hPa 0,0 l/m 4,7 km/h (1 Bft) W-SW 257 0 min 0,000 mm 0,7 UV-I 176 W/m 4,0 C 6,3 C 8,0 km/h (2 Bft) 95,24 %
05.05.2019 15:08 6,3 C 12,8 C 8,3 C 85 % 1014,2 hPa 0,0 l/m 3,9 km/h (1 Bft) W-SW 248 0 min 0,000 mm 0,7 UV-I 176 W/m 4,0 C 6,3 C 4,8 km/h (1 Bft) 98,11 %
05.05.2019 15:10 6,4 C 12,8 C 8,3 C 85 % 1014,2 hPa 0,0 l/m 5,7 km/h (1 Bft) W-SW 252 0 min 0,000 mm 0,7 UV-I 179 W/m 4,1 C 6,4 C 9,7 km/h (2 Bft) 95,45 %
05.05.2019 15:12 6,4 C 12,8 C 8,3 C 85 % 1014,2 hPa 0,0 l/m 11,0 km/h (2 Bft) W-SW 257 0 min 0,000 mm 0,7 UV-I 173 W/m 4,1 C 3,0 C 16,1 km/h (3 Bft) 97,37 %
05.05.2019 15:14 6,3 C 12,8 C 8,3 C 84 % 1014,2 hPa 0,0 l/m 6,8 km/h (2 Bft) SW 234 0 min 0,000 mm 0,6 UV-I 154 W/m 3,8 C 6,0 C 16,1 km/h (3 Bft) 98,00 %
05.05.2019 15:16 6,2 C 12,8 C 7,8 C 84 % 1014,2 hPa 0,0 l/m 7,9 km/h (2 Bft) SW 217 0 min 0,000 mm 0,5 UV-I 137 W/m 3,7 C 4,9 C 11,3 km/h (2 Bft) 97,87 %
05.05.2019 15:18 6,1 C 12,8 C 7,2 C 85 % 1014,2 hPa 0,0 l/m 13,2 km/h (3 Bft) S-SW 212 0 min 0,000 mm 0,5 UV-I 133 W/m 3,8 C 1,3 C 17,7 km/h (3 Bft) 94,00 %
05.05.2019 15:20 6,1 C 12,8 C 7,2 C 85 % 1014,2 hPa 0,0 l/m 11,3 km/h (2 Bft) SW 225 0 min 0,000 mm 0,5 UV-I 140 W/m 3,8 C 2,4 C 17,7 km/h (3 Bft) 95,61 %
05.05.2019 15:22 6,1 C 12,8 C 7,2 C 85 % 1014,2 hPa 0,0 l/m 7,6 km/h (2 Bft) W-SW 242 0 min 0,000 mm 0,6 UV-I 153 W/m 3,8 C 5,1 C 12,9 km/h (3 Bft) 95,56 %
05.05.2019 15:24 6,1 C 12,8 C 7,2 C 86 % 1014,2 hPa 0,0 l/m 7,9 km/h (2 Bft) SW 233 0 min 0,000 mm 0,7 UV-I 171 W/m 3,9 C 4,8 C 12,9 km/h (3 Bft) 98,11 %
05.05.2019 15:26 6,1 C 12,8 C 7,8 C 86 % 1014,2 hPa 0,0 l/m 10,0 km/h (2 Bft) W-SW 238 0 min 0,000 mm 0,8 UV-I 184 W/m 3,9 C 3,3 C 19,3 km/h (3 Bft) 95,45 %
05.05.2019 15:28 6,1 C 12,8 C 7,2 C 86 % 1014,2 hPa 0,0 l/m 12,1 km/h (2 Bft) W 259 0 min 0,000 mm 0,7 UV-I 184 W/m 3,9 C 2,0 C 19,3 km/h (3 Bft) 98,00 %
05.05.2019 15:30 6,1 C 12,8 C 7,2 C 86 % 1014,2 hPa 0,0 l/m 11,7 km/h (2 Bft) SW 216 0 min 0,000 mm 0,8 UV-I 187 W/m 3,9 C 2,2 C 14,5 km/h (3 Bft) 95,45 %
05.05.2019 15:32 6,1 C 12,8 C 7,2 C 87 % 1014,2 hPa 0,0 l/m 7,8 km/h (2 Bft) SW 221 0 min 0,000 mm 0,8 UV-I 195 W/m 4,1 C 4,9 C 12,9 km/h (3 Bft) 98,00 %
05.05.2019 15:34 6,1 C 12,8 C 7,8 C 87 % 1014,2 hPa 0,0 l/m 9,5 km/h (2 Bft) SW 235 0 min 0,000 mm 0,9 UV-I 229 W/m 4,1 C 3,6 C 16,1 km/h (3 Bft) 100,00 %
05.05.2019 15:36 6,2 C 12,8 C 8,9 C 88 % 1014,2 hPa 0,0 l/m 6,4 km/h (2 Bft) S-SW 201 0 min 0,000 mm 1,1 UV-I 274 W/m 4,4 C 6,2 C 9,7 km/h (2 Bft) 97,56 %
05.05.2019 15:38 6,3 C 12,8 C 9,4 C 88 % 1014,2 hPa 0,0 l/m 10,7 km/h (2 Bft) SW 219 0 min 0,000 mm 1,1 UV-I 282 W/m 4,5 C 3,0 C 19,3 km/h (3 Bft) 94,00 %
05.05.2019 15:40 6,2 C 12,8 C 8,9 C 88 % 1014,2 hPa 0,0 l/m 9,5 km/h (2 Bft) S-SW 207 0 min 0,000 mm 1,0 UV-I 252 W/m 4,4 C 3,7 C 14,5 km/h (3 Bft) 94,74 %
05.05.2019 15:42 6,2 C 12,8 C 8,3 C 87 % 1014,2 hPa 0,0 l/m 6,5 km/h (2 Bft) SW 225 0 min 0,000 mm 0,9 UV-I 235 W/m 4,2 C 6,1 C 11,3 km/h (2 Bft) 93,22 %
05.05.2019 15:44 6,2 C 12,8 C 8,3 C 88 % 1014,2 hPa 0,0 l/m 10,9 km/h (2 Bft) W-SW 238 0 min 0,000 mm 0,9 UV-I 239 W/m 4,4 C 2,8 C 16,1 km/h (3 Bft) 97,37 %
05.05.2019 15:46 6,2 C 12,8 C 8,9 C 88 % 1014,1 hPa 0,0 l/m 8,6 km/h (2 Bft) W-SW 242 0 min 0,000 mm 0,9 UV-I 248 W/m 4,4 C 4,4 C 12,9 km/h (3 Bft) 94,00 %
05.05.2019 15:48 6,2 C 12,8 C 8,9 C 87 % 1014,2 hPa 0,0 l/m 7,7 km/h (2 Bft) S-SW 210 0 min 0,000 mm 0,9 UV-I 240 W/m 4,2 C 5,1 C 11,3 km/h (2 Bft) 96,23 %
05.05.2019 15:50 6,2 C 12,8 C 8,9 C 87 % 1014,2 hPa 0,0 l/m 6,4 km/h (2 Bft) SW 218 0 min 0,000 mm 0,8 UV-I 200 W/m 4,2 C 6,2 C 8,0 km/h (2 Bft) 95,74 %
05.05.2019 15:52 6,2 C 12,8 C 8,3 C 87 % 1014,2 hPa 0,0 l/m 7,8 km/h (2 Bft) SW 224 0 min 0,000 mm 0,6 UV-I 158 W/m 4,2 C 5,0 C 11,3 km/h (2 Bft) 95,45 %
05.05.2019 15:54 6,2 C 12,8 C 7,8 C 87 % 1014,2 hPa 0,0 l/m 10,5 km/h (2 Bft) W-SW 240 0 min 0,000 mm 0,5 UV-I 135 W/m 4,2 C 3,1 C 14,5 km/h (3 Bft) 94,44 %
05.05.2019 15:56 6,2 C 12,8 C 7,2 C 87 % 1014,2 hPa 0,0 l/m 11,8 km/h (2 Bft) W-SW 248 0 min 0,000 mm 0,5 UV-I 137 W/m 4,2 C 2,3 C 19,3 km/h (3 Bft) 98,28 %
05.05.2019 15:58 6,2 C 12,8 C 7,2 C 86 % 1014,2 hPa 0,0 l/m 14,4 km/h (3 Bft) SW 233 0 min 0,000 mm 0,5 UV-I 141 W/m 4,0 C 0,8 C 22,5 km/h (4 Bft) 95,24 %
05.05.2019 16:00 6,2 C 12,8 C 7,2 C 85 % 1014,2 hPa 0,0 l/m 13,8 km/h (3 Bft) W-SW 241 0 min 0,000 mm 0,5 UV-I 153 W/m 3,9 C 1,1 C 20,9 km/h (4 Bft) 93,62 %
05.05.2019 16:02 6,2 C 12,8 C 6,7 C 83 % 1014,2 hPa 0,0 l/m 12,8 km/h (3 Bft) W 265 0 min 0,101 mm 0,6 UV-I 166 W/m 3,5 C 1,7 C 17,7 km/h (3 Bft) 98,00 %
05.05.2019 16:04 6,2 C 12,8 C 7,2 C 83 % 1014,2 hPa 0,0 l/m 12,1 km/h (2 Bft) W-NW 291 0 min 0,000 mm 0,7 UV-I 183 W/m 3,5 C 2,1 C 19,3 km/h (3 Bft) 97,37 %
05.05.2019 16:06 6,2 C 12,8 C 7,2 C 83 % 1014,2 hPa 0,0 l/m 9,8 km/h (2 Bft) W-SW 237 0 min 0,000 mm 0,7 UV-I 205 W/m 3,5 C 3,5 C 14,5 km/h (3 Bft) 100,00 %
05.05.2019 16:08 6,3 C 12,8 C 7,8 C 85 % 1014,2 hPa 0,0 l/m 9,9 km/h (2 Bft) SW 233 0 min 0,000 mm 0,8 UV-I 219 W/m 4,0 C 3,6 C 16,1 km/h (3 Bft) 100,00 %
05.05.2019 16:10 6,3 C 12,8 C 7,8 C 85 % 1014,2 hPa 0,0 l/m 9,1 km/h (2 Bft) W 263 0 min 0,000 mm 0,7 UV-I 215 W/m 4,0 C 4,1 C 16,1 km/h (3 Bft) 100,00 %
05.05.2019 16:12 6,3 C 12,8 C 7,8 C 82 % 1014,3 hPa 0,0 l/m 10,2 km/h (2 Bft) W 277 0 min 0,000 mm 0,7 UV-I 202 W/m 3,5 C 3,4 C 16,1 km/h (3 Bft) 98,21 %
05.05.2019 16:14 6,3 C 12,8 C 7,8 C 82 % 1014,2 hPa 0,0 l/m 6,3 km/h (2 Bft) W-NW 292 0 min 0,000 mm 0,7 UV-I 200 W/m 3,5 C 6,3 C 11,3 km/h (2 Bft) 100,00 %
05.05.2019 16:16 6,4 C 12,8 C 7,8 C 82 % 1014,2 hPa 0,0 l/m 5,9 km/h (2 Bft) W-NW 298 0 min 0,000 mm 0,7 UV-I 200 W/m 3,6 C 6,4 C 9,7 km/h (2 Bft) 100,00 %
05.05.2019 16:18 6,4 C 12,8 C 7,8 C 81 % 1014,2 hPa 0,0 l/m 7,7 km/h (2 Bft) W-SW 243 0 min 0,000 mm 0,7 UV-I 200 W/m 3,4 C 5,3 C 12,9 km/h (3 Bft) 100,00 %
05.05.2019 16:20 6,4 C 12,8 C 7,8 C 81 % 1014,1 hPa 0,0 l/m 8,3 km/h (2 Bft) W 269 0 min 0,000 mm 0,7 UV-I 202 W/m 3,4 C 4,8 C 12,9 km/h (3 Bft) 100,00 %
05.05.2019 16:22 6,5 C 12,8 C 7,8 C 83 % 1014,1 hPa 0,0 l/m 9,2 km/h (2 Bft) W-SW 240 0 min 0,000 mm 0,7 UV-I 205 W/m 3,8 C 4,3 C 16,1 km/h (3 Bft) 98,21 %
05.05.2019 16:24 6,4 C 12,8 C 7,8 C 83 % 1014,1 hPa 0,0 l/m 11,9 km/h (2 Bft) W 269 0 min 0,000 mm 0,7 UV-I 206 W/m 3,7 C 2,4 C 17,7 km/h (3 Bft) 100,00 %
05.05.2019 16:26 6,4 C 12,8 C 7,8 C 83 % 1014,1 hPa 0,0 l/m 10,7 km/h (2 Bft) N-NO 30 0 min 0,000 mm 0,7 UV-I 203 W/m 3,7 C 3,2 C 19,3 km/h (3 Bft) 100,00 %
05.05.2019 16:28 6,4 C 12,8 C 7,8 C 81 % 1014,1 hPa 0,0 l/m 4,0 km/h (1 Bft) W-NW 303 0 min 0,000 mm 0,7 UV-I 200 W/m 3,4 C 6,4 C 6,4 km/h (2 Bft) 97,56 %
05.05.2019 16:30 6,5 C 12,8 C 8,3 C 80 % 1014,1 hPa 0,0 l/m 5,2 km/h (1 Bft) N-NW 327 0 min 0,000 mm 0,7 UV-I 199 W/m 3,3 C 6,5 C 12,9 km/h (3 Bft) 100,00 %
05.05.2019 16:32 6,6 C 12,8 C 8,3 C 78 % 1014,2 hPa 0,0 l/m 3,3 km/h (1 Bft) SW 217 0 min 0,000 mm 0,7 UV-I 196 W/m 3,0 C 6,6 C 6,4 km/h (2 Bft) 100,00 %
05.05.2019 16:34 6,7 C 12,8 C 8,3 C 77 % 1014,1 hPa 0,0 l/m 3,3 km/h (1 Bft) W 281 0 min 0,000 mm 0,6 UV-I 193 W/m 3,0 C 6,7 C 9,7 km/h (2 Bft) 100,00 %
05.05.2019 16:36 6,8 C 12,8 C 8,3 C 77 % 1014,0 hPa 0,0 l/m 9,8 km/h (2 Bft) W-NW 297 0 min 0,000 mm 0,6 UV-I 192 W/m 3,1 C 4,2 C 20,9 km/h (4 Bft) 100,00 %
05.05.2019 16:38 6,8 C 12,8 C 7,8 C 72 % 1014,1 hPa 0,0 l/m 7,5 km/h (2 Bft) NW 319 0 min 0,000 mm 0,6 UV-I 191 W/m 2,1 C 5,9 C 16,1 km/h (3 Bft) 100,00 %
05.05.2019 16:40 6,8 C 12,8 C 7,8 C 73 % 1014,1 hPa 0,0 l/m 4,5 km/h (1 Bft) W-NW 294 0 min 0,000 mm 0,6 UV-I 188 W/m 2,3 C 6,8 C 9,7 km/h (2 Bft) 96,00 %
05.05.2019 16:42 6,8 C 12,8 C 7,8 C 72 % 1014,2 hPa 0,0 l/m 4,0 km/h (1 Bft) W-NW 288 0 min 0,000 mm 0,6 UV-I 181 W/m 2,1 C 6,8 C 6,4 km/h (2 Bft) 100,00 %
05.05.2019 16:44 6,8 C 12,8 C 8,3 C 74 % 1014,2 hPa 0,0 l/m 6,2 km/h (2 Bft) W-NW 300 0 min 0,000 mm 0,6 UV-I 175 W/m 2,5 C 6,8 C 14,5 km/h (3 Bft) 95,74 %
05.05.2019 16:46 6,8 C 12,8 C 7,8 C 72 % 1014,2 hPa 0,0 l/m 4,2 km/h (1 Bft) W-NW 301 0 min 0,000 mm 0,6 UV-I 173 W/m 2,1 C 6,8 C 11,3 km/h (2 Bft) 95,74 %
05.05.2019 16:48 6,9 C 12,8 C 8,3 C 75 % 1014,2 hPa 0,0 l/m 4,4 km/h (1 Bft) W-NW 294 0 min 0,000 mm 0,5 UV-I 171 W/m 2,8 C 6,9 C 9,7 km/h (2 Bft) 98,00 %
05.05.2019 16:50 6,9 C 12,8 C 8,3 C 74 % 1014,2 hPa 0,0 l/m 2,9 km/h (1 Bft) W-NW 286 0 min 0,000 mm 0,5 UV-I 168 W/m 2,6 C 6,9 C 6,4 km/h (2 Bft) 95,74 %
05.05.2019 16:52 6,9 C 12,8 C 8,3 C 74 % 1014,2 hPa 0,0 l/m 3,9 km/h (1 Bft) W-NW 302 0 min 0,000 mm 0,5 UV-I 165 W/m 2,6 C 6,9 C 12,9 km/h (3 Bft) 98,00 %
05.05.2019 16:54 6,9 C 12,8 C 7,8 C 71 % 1014,2 hPa 0,0 l/m 9,6 km/h (2 Bft) N-NW 341 0 min 0,000 mm 0,5 UV-I 164 W/m 2,0 C 4,4 C 14,5 km/h (3 Bft) 97,87 %
05.05.2019 16:56 6,9 C 12,8 C 7,8 C 68 % 1014,3 hPa 0,0 l/m 7,9 km/h (2 Bft) NW 308 0 min 0,000 mm 0,5 UV-I 160 W/m 1,4 C 5,7 C 14,5 km/h (3 Bft) 95,74 %
05.05.2019 16:58 6,9 C 12,8 C 7,8 C 68 % 1014,3 hPa 0,0 l/m 3,5 km/h (1 Bft) W 273 0 min 0,000 mm 0,5 UV-I 153 W/m 1,4 C 6,9 C 8,0 km/h (2 Bft) 97,56 %
05.05.2019 17:00 6,9 C 12,8 C 7,8 C 70 % 1014,3 hPa 0,0 l/m 4,8 km/h (1 Bft) W 273 0 min 0,000 mm 0,1 UV-I 134 W/m 1,8 C 6,9 C 8,0 km/h (2 Bft) 97,87 %
05.05.2019 17:02 6,8 C 12,8 C 7,2 C 72 % 1014,4 hPa 0,0 l/m 10,8 km/h (2 Bft) W-NW 298 0 min 0,102 mm 0,0 UV-I 113 W/m 2,1 C 3,5 C 16,1 km/h (3 Bft) 94,00 %
05.05.2019 17:04 6,7 C 12,8 C 7,2 C 74 % 1014,4 hPa 0,0 l/m 11,0 km/h (2 Bft) SW 236 0 min 0,000 mm 0,0 UV-I 97 W/m 2,4 C 3,3 C 19,3 km/h (3 Bft) 100,00 %
05.05.2019 17:06 6,6 C 12,8 C 7,2 C 72 % 1014,4 hPa 0,0 l/m 6,3 km/h (2 Bft) W 259 0 min 0,000 mm 0,0 UV-I 99 W/m 1,9 C 6,6 C 9,7 km/h (2 Bft) 95,71 %
05.05.2019 17:08 6,6 C 12,8 C 7,2 C 74 % 1014,4 hPa 0,0 l/m 8,7 km/h (2 Bft) W 266 0 min 0,000 mm 0,0 UV-I 119 W/m 2,3 C 4,8 C 14,5 km/h (3 Bft) 90,24 %
05.05.2019 17:10 6,6 C 12,8 C 7,2 C 76 % 1014,4 hPa 0,0 l/m 7,6 km/h (2 Bft) W-NW 286 0 min 0,000 mm 0,0 UV-I 131 W/m 2,7 C 5,6 C 12,9 km/h (3 Bft) 97,22 %
05.05.2019 17:12 6,5 C 12,8 C 7,2 C 77 % 1014,4 hPa 0,0 l/m 8,3 km/h (2 Bft) W-SW 245 0 min 0,000 mm 0,0 UV-I 137 W/m 2,8 C 4,9 C 12,9 km/h (3 Bft) 95,16 %
05.05.2019 17:14 6,4 C 12,8 C 7,2 C 79 % 1014,5 hPa 0,0 l/m 9,8 km/h (2 Bft) W 273 0 min 0,000 mm 0,0 UV-I 140 W/m 3,0 C 3,8 C 16,1 km/h (3 Bft) 97,87 %
05.05.2019 17:16 6,4 C 12,8 C 7,2 C 80 % 1014,5 hPa 0,0 l/m 10,3 km/h (2 Bft) W 273 0 min 0,000 mm 0,0 UV-I 128 W/m 3,2 C 3,4 C 16,1 km/h (3 Bft) 93,62 %
05.05.2019 17:18 6,4 C 12,8 C 6,7 C 80 % 1014,5 hPa 0,0 l/m 9,9 km/h (2 Bft) W 259 0 min 0,000 mm 0,0 UV-I 114 W/m 3,2 C 3,7 C 14,5 km/h (3 Bft) 97,56 %
05.05.2019 17:20 6,4 C 12,8 C 6,7 C 81 % 1014,5 hPa 0,0 l/m 14,6 km/h (3 Bft) W-SW 238 0 min 0,000 mm 0,0 UV-I 107 W/m 3,4 C 1,0 C 20,9 km/h (4 Bft) 97,73 %
05.05.2019 17:22 6,3 C 12,8 C 6,7 C 81 % 1014,5 hPa 0,0 l/m 11,2 km/h (2 Bft) W 259 0 min 0,000 mm 0,0 UV-I 102 W/m 3,3 C 2,7 C 17,7 km/h (3 Bft) 96,23 %
05.05.2019 17:24 6,3 C 12,8 C 6,7 C 82 % 1014,5 hPa 0,0 l/m 10,5 km/h (2 Bft) W-SW 257 0 min 0,000 mm 0,0 UV-I 102 W/m 3,5 C 3,2 C 14,5 km/h (3 Bft) 89,47 %
05.05.2019 17:26 6,3 C 12,8 C 6,7 C 84 % 1014,6 hPa 0,0 l/m 11,5 km/h (2 Bft) W 259 0 min 0,000 mm 0,0 UV-I 103 W/m 3,8 C 2,6 C 16,1 km/h (3 Bft) 97,87 %
05.05.2019 17:28 6,3 C 12,8 C 6,7 C 84 % 1014,6 hPa 0,0 l/m 14,2 km/h (3 Bft) W 265 0 min 0,000 mm 0,0 UV-I 101 W/m 3,8 C 1,1 C 19,3 km/h (3 Bft) 98,00 %
05.05.2019 17:30 6,2 C 12,8 C 6,7 C 84 % 1014,6 hPa 0,0 l/m 12,7 km/h (3 Bft) W-SW 243 0 min 0,000 mm 0,0 UV-I 90 W/m 3,7 C 1,7 C 17,7 km/h (3 Bft) 97,87 %
05.05.2019 17:32 6,1 C 12,8 C 6,1 C 85 % 1014,6 hPa 0,0 l/m 12,9 km/h (3 Bft) W 271 0 min 0,000 mm 0,0 UV-I 75 W/m 3,8 C 1,5 C 19,3 km/h (3 Bft) 100,00 %
05.05.2019 17:34 6,1 C 12,8 C 6,1 C 85 % 1014,6 hPa 0,0 l/m 13,5 km/h (3 Bft) W 275 0 min 0,000 mm 0,0 UV-I 65 W/m 3,8 C 1,2 C 19,3 km/h (3 Bft) 100,00 %
05.05.2019 17:36 5,9 C 12,8 C 6,1 C 85 % 1014,6 hPa 0,0 l/m 11,8 km/h (2 Bft) W-NW 284 0 min 0,000 mm 0,0 UV-I 61 W/m 3,6 C 1,9 C 17,7 km/h (3 Bft) 98,31 %
05.05.2019 17:38 5,8 C 12,8 C 6,1 C 85 % 1014,7 hPa 0,0 l/m 11,9 km/h (2 Bft) W 279 0 min 0,000 mm 0,0 UV-I 61 W/m 3,5 C 1,7 C 19,3 km/h (3 Bft) 100,00 %
05.05.2019 17:40 5,8 C 12,8 C 6,1 C 86 % 1014,7 hPa 0,0 l/m 3,4 km/h (1 Bft) NO 43 0 min 0,000 mm 0,0 UV-I 70 W/m 3,6 C 5,8 C 9,7 km/h (2 Bft) 100,00 %
05.05.2019 17:42 5,7 C 12,8 C 6,1 C 86 % 1014,8 hPa 0,0 l/m 3,7 km/h (1 Bft) NW 312 0 min 0,000 mm 0,0 UV-I 89 W/m 3,5 C 5,7 C 6,4 km/h (2 Bft) 100,00 %
05.05.2019 17:44 5,7 C 12,8 C 6,7 C 85 % 1014,7 hPa 0,0 l/m 3,3 km/h (1 Bft) W-SW 258 0 min 0,000 mm 0,0 UV-I 116 W/m 3,4 C 5,7 C 6,4 km/h (2 Bft) 100,00 %
05.05.2019 17:46 5,7 C 12,8 C 6,7 C 86 % 1014,7 hPa 0,0 l/m 3,7 km/h (1 Bft) W-SW 246 0 min 0,000 mm 0,0 UV-I 129 W/m 3,5 C 5,7 C 4,8 km/h (1 Bft) 98,00 %
05.05.2019 17:48 5,7 C 12,8 C 6,7 C 85 % 1014,7 hPa 0,2 l/m 3,2 km/h (1 Bft) W-NW 282 0 min 0,000 mm 0,0 UV-I 132 W/m 3,4 C 5,7 C 6,4 km/h (2 Bft) 100,00 %
05.05.2019 17:50 5,7 C 12,8 C 6,7 C 86 % 1014,7 hPa 0,0 l/m 9,3 km/h (2 Bft) W 259 0 min 0,000 mm 0,0 UV-I 130 W/m 3,5 C 3,3 C 14,5 km/h (3 Bft) 100,00 %
05.05.2019 17:52 5,7 C 12,8 C 6,7 C 86 % 1014,7 hPa 0,0 l/m 7,2 km/h (2 Bft) W-SW 240 0 min 0,000 mm 0,0 UV-I 126 W/m 3,5 C 5,0 C 11,3 km/h (2 Bft) 100,00 %
05.05.2019 17:54 5,7 C 12,8 C 6,7 C 86 % 1014,7 hPa 0,0 l/m 7,6 km/h (2 Bft) W-SW 244 0 min 0,000 mm 0,0 UV-I 122 W/m 3,5 C 4,7 C 12,9 km/h (3 Bft) 100,00 %
05.05.2019 17:56 5,7 C 12,8 C 6,7 C 87 % 1014,7 hPa 0,0 l/m 5,3 km/h (1 Bft) W 264 0 min 0,000 mm 0,0 UV-I 118 W/m 3,7 C 5,7 C 9,7 km/h (2 Bft) 100,00 %
05.05.2019 17:58 5,8 C 12,8 C 7,2 C 87 % 1014,7 hPa 0,0 l/m 6,2 km/h (2 Bft) W 279 0 min 0,000 mm 0,0 UV-I 114 W/m 3,8 C 5,8 C 12,9 km/h (3 Bft) 100,00 %
05.05.2019 18:00 5,7 C 12,8 C 6,7 C 86 % 1014,6 hPa 0,0 l/m 7,1 km/h (2 Bft) SW 229 0 min 0,000 mm 0,0 UV-I 113 W/m 3,5 C 5,1 C 12,9 km/h (3 Bft) 98,11 %
05.05.2019 18:02 5,6 C 12,8 C 6,7 C 85 % 1014,7 hPa 0,0 l/m 8,6 km/h (2 Bft) W-SW 250 0 min 0,051 mm 0,0 UV-I 112 W/m 3,3 C 3,8 C 14,5 km/h (3 Bft) 98,31 %
05.05.2019 18:04 5,5 C 12,8 C 6,1 C 85 % 1014,8 hPa 0,0 l/m 7,8 km/h (2 Bft) W-SW 238 0 min 0,000 mm 0,0 UV-I 110 W/m 3,2 C 4,3 C 11,3 km/h (2 Bft) 97,37 %
05.05.2019 18:06 5,4 C 12,8 C 6,1 C 85 % 1014,7 hPa 0,0 l/m 7,6 km/h (2 Bft) W 263 0 min 0,000 mm 0,0 UV-I 108 W/m 3,1 C 4,4 C 12,9 km/h (3 Bft) 100,00 %
05.05.2019 18:08 5,4 C 12,8 C 6,1 C 86 % 1014,7 hPa 0,0 l/m 7,3 km/h (2 Bft) SW 232 0 min 0,000 mm 0,0 UV-I 105 W/m 3,3 C 4,6 C 12,9 km/h (3 Bft) 100,00 %
05.05.2019 18:10 5,4 C 12,8 C 6,1 C 86 % 1014,8 hPa 0,0 l/m 6,6 km/h (2 Bft) SW 225 0 min 0,000 mm 0,0 UV-I 103 W/m 3,3 C 5,2 C 9,7 km/h (2 Bft) 100,00 %
05.05.2019 18:12 5,4 C 12,8 C 6,1 C 85 % 1014,8 hPa 0,0 l/m 7,9 km/h (2 Bft) W 262 0 min 0,000 mm 0,0 UV-I 97 W/m 3,1 C 4,1 C 12,9 km/h (3 Bft) 98,00 %
05.05.2019 18:14 5,4 C 12,8 C 6,1 C 86 % 1014,8 hPa 0,0 l/m 6,5 km/h (2 Bft) W-SW 257 0 min 0,000 mm 0,0 UV-I 92 W/m 3,3 C 5,3 C 11,3 km/h (2 Bft) 98,11 %
05.05.2019 18:16 5,4 C 12,8 C 6,1 C 86 % 1014,8 hPa 0,0 l/m 6,4 km/h (2 Bft) W-SW 245 0 min 0,000 mm 0,0 UV-I 89 W/m 3,3 C 5,4 C 12,9 km/h (3 Bft) 100,00 %
05.05.2019 18:18 5,4 C 12,8 C 6,1 C 86 % 1014,8 hPa 0,0 l/m 8,6 km/h (2 Bft) W-SW 246 0 min 0,000 mm 0,0 UV-I 81 W/m 3,3 C 3,5 C 12,9 km/h (3 Bft) 100,00 %
05.05.2019 18:20 5,3 C 12,8 C 6,1 C 86 % 1014,9 hPa 0,0 l/m 7,1 km/h (2 Bft) SW 236 0 min 0,000 mm 0,0 UV-I 75 W/m 3,2 C 4,7 C 16,1 km/h (3 Bft) 100,00 %
05.05.2019 18:22 5,3 C 12,8 C 6,1 C 85 % 1014,8 hPa 0,0 l/m 10,5 km/h (2 Bft) W-SW 237 0 min 0,000 mm 0,0 UV-I 71 W/m 3,0 C 2,1 C 16,1 km/h (3 Bft) 97,62 %
05.05.2019 18:24 5,2 C 12,8 C 5,6 C 86 % 1014,8 hPa 0,0 l/m 9,4 km/h (2 Bft) SW 214 0 min 0,000 mm 0,0 UV-I 69 W/m 3,1 C 2,7 C 16,1 km/h (3 Bft) 100,00 %
05.05.2019 18:26 5,2 C 12,8 C 5,6 C 86 % 1014,9 hPa 0,0 l/m 10,7 km/h (2 Bft) S 190 0 min 0,000 mm 0,0 UV-I 63 W/m 3,1 C 1,8 C 17,7 km/h (3 Bft) 98,21 %
05.05.2019 18:28 5,2 C 12,8 C 5,6 C 86 % 1014,9 hPa 0,0 l/m 10,4 km/h (2 Bft) S-SW 211 0 min 0,000 mm 0,0 UV-I 52 W/m 3,1 C 2,0 C 17,7 km/h (3 Bft) 100,00 %
05.05.2019 18:30 5,2 C 12,8 C 5,6 C 88 % 1014,9 hPa 0,0 l/m 4,6 km/h (1 Bft) SW 229 0 min 0,000 mm 0,0 UV-I 41 W/m 3,4 C 5,2 C 11,3 km/h (2 Bft) 98,00 %
05.05.2019 18:32 5,2 C 12,8 C 5,6 C 88 % 1015,0 hPa 0,0 l/m 4,2 km/h (1 Bft) S-SW 211 0 min 0,000 mm 0,0 UV-I 33 W/m 3,4 C 5,2 C 8,0 km/h (2 Bft) 92,00 %
05.05.2019 18:34 5,2 C 12,8 C 5,6 C 88 % 1015,0 hPa 0,0 l/m 6,5 km/h (2 Bft) S-SW 209 0 min 0,000 mm 0,0 UV-I 27 W/m 3,4 C 5,1 C 8,0 km/h (2 Bft) 98,00 %
05.05.2019 18:36 5,1 C 12,8 C 5,6 C 88 % 1015,0 hPa 0,0 l/m 7,9 km/h (2 Bft) S-SW 195 0 min 0,000 mm 0,0 UV-I 24 W/m 3,3 C 3,8 C 12,9 km/h (3 Bft) 97,37 %
05.05.2019 18:38 5,1 C 12,8 C 5,6 C 88 % 1015,1 hPa 0,0 l/m 5,9 km/h (2 Bft) S-SW 203 0 min 0,000 mm 0,0 UV-I 23 W/m 3,3 C 5,1 C 9,7 km/h (2 Bft) 96,00 %
05.05.2019 18:40 5,1 C 12,8 C 5,6 C 88 % 1015,1 hPa 0,0 l/m 8,4 km/h (2 Bft) S-SW 213 0 min 0,000 mm 0,0 UV-I 24 W/m 3,3 C 3,4 C 12,9 km/h (3 Bft) 96,23 %
05.05.2019 18:42 5,1 C 12,8 C 5,6 C 88 % 1015,1 hPa 0,0 l/m 9,2 km/h (2 Bft) S-SW 212 0 min 0,000 mm 0,0 UV-I 28 W/m 3,3 C 2,8 C 12,9 km/h (3 Bft) 93,18 %
05.05.2019 18:44 5,0 C 12,8 C 5,0 C 88 % 1015,1 hPa 0,0 l/m 6,0 km/h (2 Bft) S 190 0 min 0,000 mm 0,0 UV-I 32 W/m 3,2 C 5,0 C 11,3 km/h (2 Bft) 92,00 %
05.05.2019 18:46 5,0 C 12,8 C 5,0 C 88 % 1015,1 hPa 0,0 l/m 6,2 km/h (2 Bft) SW 219 0 min 0,000 mm 0,0 UV-I 32 W/m 3,2 C 5,0 C 9,7 km/h (2 Bft) 93,62 %
05.05.2019 18:49 5,0 C 12,8 C 5,0 C 88 % 1015,2 hPa 0,0 l/m 4,6 km/h (1 Bft) W 262 0 min 0,000 mm 0,0 UV-I 33 W/m 3,2 C 5,0 C 9,7 km/h (2 Bft) 91,89 %
05.05.2019 18:50 5,0 C 12,8 C 5,0 C 88 % 1015,2 hPa 0,0 l/m 5,0 km/h (1 Bft) W 263 0 min 0,000 mm 0,0 UV-I 37 W/m 3,2 C 5,0 C 6,4 km/h (2 Bft) 100,00 %
05.05.2019 18:52 5,0 C 12,8 C 5,0 C 88 % 1015,2 hPa 0,0 l/m 3,3 km/h (1 Bft) W-NW 292 0 min 0,000 mm 0,0 UV-I 41 W/m 3,2 C 5,0 C 4,8 km/h (1 Bft) 94,00 %
05.05.2019 18:54 5,0 C 12,8 C 5,0 C 88 % 1015,2 hPa 0,0 l/m 6,2 km/h (2 Bft) W-SW 242 0 min 0,000 mm 0,0 UV-I 46 W/m 3,2 C 5,0 C 12,9 km/h (3 Bft) 92,45 %
05.05.2019 18:56 5,0 C 12,8 C 5,0 C 88 % 1015,2 hPa 0,0 l/m 7,6 km/h (2 Bft) W-NW 291 0 min 0,000 mm 0,0 UV-I 49 W/m 3,2 C 3,9 C 11,3 km/h (2 Bft) 95,12 %
05.05.2019 18:58 4,9 C 12,8 C 5,0 C 88 % 1015,3 hPa 0,0 l/m 3,2 km/h (1 Bft) W-NW 297 0 min 0,000 mm 0,0 UV-I 51 W/m 3,1 C 4,9 C 6,4 km/h (2 Bft) 95,24 %
05.05.2019 19:00 4,8 C 12,8 C 5,0 C 88 % 1015,2 hPa 0,0 l/m 1,6 km/h (1 Bft) SW 231 0 min 0,025 mm 0,0 UV-I 52 W/m 3,0 C 4,8 C 6,4 km/h (2 Bft) 96,00 %
05.05.2019 19:02 4,8 C 12,8 C 5,6 C 88 % 1015,2 hPa 0,0 l/m 5,4 km/h (1 Bft) S-SW 204 0 min 0,000 mm 0,0 UV-I 53 W/m 3,0 C 4,8 C 6,4 km/h (2 Bft) 91,49 %
05.05.2019 19:04 4,9 C 12,8 C 5,6 C 89 % 1015,2 hPa 0,0 l/m 4,9 km/h (1 Bft) S-SW 201 0 min 0,000 mm 0,0 UV-I 53 W/m 3,2 C 4,9 C 6,4 km/h (2 Bft) 97,56 %
05.05.2019 19:06 4,9 C 12,8 C 5,6 C 89 % 1015,2 hPa 0,0 l/m 5,7 km/h (1 Bft) SW 221 0 min 0,000 mm 0,0 UV-I 51 W/m 3,2 C 4,9 C 8,0 km/h (2 Bft) 93,62 %
05.05.2019 19:09 4,9 C 12,8 C 5,6 C 89 % 1015,2 hPa 0,0 l/m 6,7 km/h (2 Bft) S-SW 198 0 min 0,000 mm 0,0 UV-I 48 W/m 3,2 C 4,7 C 12,9 km/h (3 Bft) 95,12 %
05.05.2019 19:10 4,8 C 12,8 C 5,6 C 89 % 1015,2 hPa 0,0 l/m 5,5 km/h (1 Bft) SW 217 0 min 0,000 mm 0,0 UV-I 46 W/m 3,1 C 4,8 C 8,0 km/h (2 Bft) 100,00 %
05.05.2019 19:12 4,8 C 12,8 C 5,6 C 90 % 1015,2 hPa 0,0 l/m 6,1 km/h (2 Bft) SW 229 0 min 0,000 mm 0,0 UV-I 44 W/m 3,3 C 4,8 C 9,7 km/h (2 Bft) 94,74 %
05.05.2019 19:14 4,9 C 12,8 C 5,6 C 90 % 1015,2 hPa 0,0 l/m 10,9 km/h (2 Bft) SW 223 0 min 0,000 mm 0,0 UV-I 43 W/m 3,4 C 1,3 C 16,1 km/h (3 Bft) 96,00 %
05.05.2019 19:16 4,9 C 12,8 C 5,0 C 90 % 1015,2 hPa 0,0 l/m 9,0 km/h (2 Bft) S-SW 211 0 min 0,000 mm 0,0 UV-I 42 W/m 3,4 C 2,7 C 12,9 km/h (3 Bft) 94,34 %
05.05.2019 19:19 4,8 C 12,8 C 5,0 C 89 % 1015,2 hPa 0,0 l/m 8,6 km/h (2 Bft) SW 219 0 min 0,000 mm 0,0 UV-I 41 W/m 3,1 C 2,9 C 14,5 km/h (3 Bft) 98,44 %
05.05.2019 19:20 4,8 C 12,8 C 5,0 C 90 % 1015,2 hPa 0,0 l/m 8,7 km/h (2 Bft) W-SW 241 0 min 0,000 mm 0,0 UV-I 40 W/m 3,3 C 2,8 C 16,1 km/h (3 Bft) 92,59 %
05.05.2019 19:22 4,8 C 12,8 C 5,0 C 90 % 1015,2 hPa 0,0 l/m 10,4 km/h (2 Bft) SW 214 0 min 0,000 mm 0,0 UV-I 39 W/m 3,3 C 1,6 C 16,1 km/h (3 Bft) 98,00 %
05.05.2019 19:24 4,8 C 12,8 C 5,0 C 90 % 1015,2 hPa 0,0 l/m 9,0 km/h (2 Bft) S-SW 207 0 min 0,000 mm 0,0 UV-I 38 W/m 3,3 C 2,6 C 14,5 km/h (3 Bft) 97,87 %
05.05.2019 19:26 4,8 C 12,8 C 5,0 C 90 % 1015,2 hPa 0,0 l/m 10,6 km/h (2 Bft) SW 236 0 min 0,000 mm 0,0 UV-I 36 W/m 3,3 C 1,4 C 14,5 km/h (3 Bft) 97,87 %
05.05.2019 19:28 4,8 C 12,8 C 5,0 C 90 % 1015,3 hPa 0,0 l/m 10,2 km/h (2 Bft) SW 215 0 min 0,000 mm 0,0 UV-I 35 W/m 3,3 C 1,7 C 19,3 km/h (3 Bft) 97,14 %
05.05.2019 19:30 4,8 C 12,8 C 5,0 C 90 % 1015,3 hPa 0,0 l/m 12,3 km/h (3 Bft) SW 229 0 min 0,000 mm 0,0 UV-I 34 W/m 3,3 C 0,3 C 17,7 km/h (3 Bft) 95,74 %
05.05.2019 19:32 4,8 C 12,8 C 5,0 C 90 % 1015,3 hPa 0,0 l/m 8,6 km/h (2 Bft) SW 217 0 min 0,000 mm 0,0 UV-I 33 W/m 3,3 C 2,9 C 16,1 km/h (3 Bft) 96,43 %
05.05.2019 19:34 4,8 C 12,8 C 5,0 C 90 % 1015,3 hPa 0,0 l/m 7,9 km/h (2 Bft) W-SW 241 0 min 0,000 mm 0,0 UV-I 32 W/m 3,3 C 3,5 C 11,3 km/h (2 Bft) 94,44 %
05.05.2019 19:36 4,8 C 12,8 C 5,0 C 90 % 1015,4 hPa 0,0 l/m 9,9 km/h (2 Bft) W-SW 244 0 min 0,000 mm 0,0 UV-I 32 W/m 3,3 C 1,9 C 16,1 km/h (3 Bft) 98,08 %
05.05.2019 19:38 4,8 C 12,8 C 5,0 C 90 % 1015,4 hPa 0,0 l/m 10,9 km/h (2 Bft) W-SW 243 0 min 0,000 mm 0,0 UV-I 30 W/m 3,3 C 1,2 C 20,9 km/h (4 Bft) 96,23 %
05.05.2019 19:40 4,8 C 12,8 C 5,0 C 90 % 1015,4 hPa 0,0 l/m 10,4 km/h (2 Bft) SW 233 0 min 0,000 mm 0,0 UV-I 30 W/m 3,3 C 1,6 C 17,7 km/h (3 Bft) 100,00 %
05.05.2019 19:42 4,8 C 12,8 C 5,0 C 90 % 1015,4 hPa 0,0 l/m 11,9 km/h (2 Bft) W-SW 240 0 min 0,000 mm 0,0 UV-I 29 W/m 3,3 C 0,6 C 17,7 km/h (3 Bft) 100,00 %
05.05.2019 19:44 4,8 C 12,8 C 5,0 C 90 % 1015,4 hPa 0,0 l/m 12,4 km/h (3 Bft) W-SW 242 0 min 0,000 mm 0,0 UV-I 28 W/m 3,3 C 0,3 C 17,7 km/h (3 Bft) 100,00 %
05.05.2019 19:46 4,8 C 12,8 C 4,4 C 91 % 1015,4 hPa 0,0 l/m 11,8 km/h (2 Bft) W 263 0 min 0,000 mm 0,0 UV-I 25 W/m 3,5 C 0,7 C 19,3 km/h (3 Bft) 100,00 %
05.05.2019 19:48 4,8 C 12,8 C 4,4 C 91 % 1015,4 hPa 0,0 l/m 10,2 km/h (2 Bft) SW 229 0 min 0,000 mm 0,0 UV-I 22 W/m 3,5 C 1,7 C 17,7 km/h (3 Bft) 100,00 %
05.05.2019 19:50 4,8 C 12,8 C 4,4 C 91 % 1015,5 hPa 0,0 l/m 8,7 km/h (2 Bft) SW 234 0 min 0,000 mm 0,0 UV-I 20 W/m 3,5 C 2,8 C 16,1 km/h (3 Bft) 100,00 %
05.05.2019 19:52 4,8 C 12,8 C 4,4 C 91 % 1015,5 hPa 0,0 l/m 9,3 km/h (2 Bft) W-SW 239 0 min 0,000 mm 0,0 UV-I 18 W/m 3,5 C 2,4 C 16,1 km/h (3 Bft) 97,73 %
05.05.2019 19:54 4,8 C 12,8 C 4,4 C 91 % 1015,5 hPa 0,0 l/m 7,2 km/h (2 Bft) W 261 0 min 0,000 mm 0,0 UV-I 16 W/m 3,5 C 4,1 C 9,7 km/h (2 Bft) 100,00 %
05.05.2019 19:56 4,8 C 12,8 C 4,4 C 91 % 1015,5 hPa 0,0 l/m 8,2 km/h (2 Bft) W 269 0 min 0,000 mm 0,0 UV-I 15 W/m 3,5 C 3,2 C 14,5 km/h (3 Bft) 96,23 %
05.05.2019 19:59 4,8 C 12,8 C 4,4 C 91 % 1015,5 hPa 0,0 l/m 8,2 km/h (2 Bft) W-SW 257 0 min 0,000 mm 0,0 UV-I 13 W/m 3,5 C 3,2 C 14,5 km/h (3 Bft) 98,53 %
05.05.2019 20:00 4,8 C 12,8 C 4,4 C 91 % 1015,5 hPa 0,0 l/m 6,8 km/h (2 Bft) SW 228 0 min 0,000 mm 0,0 UV-I 12 W/m 3,5 C 4,5 C 9,7 km/h (2 Bft) 91,30 %
05.05.2019 20:02 4,7 C 12,8 C 4,4 C 91 % 1015,5 hPa 0,0 l/m 12,0 km/h (2 Bft) SW 229 0 min 0,025 mm 0,0 UV-I 11 W/m 3,4 C 0,4 C 19,3 km/h (3 Bft) 97,56 %
05.05.2019 20:04 4,7 C 12,8 C 4,4 C 91 % 1015,5 hPa 0,0 l/m 11,6 km/h (2 Bft) SW 228 0 min 0,000 mm 0,0 UV-I 11 W/m 3,4 C 0,7 C 17,7 km/h (3 Bft) 98,00 %
05.05.2019 20:06 4,7 C 12,8 C 4,4 C 91 % 1015,5 hPa 0,0 l/m 7,8 km/h (2 Bft) SW 230 0 min 0,000 mm 0,0 UV-I 10 W/m 3,4 C 3,5 C 11,3 km/h (2 Bft) 93,18 %
05.05.2019 20:08 4,7 C 12,8 C 4,4 C 91 % 1015,5 hPa 0,0 l/m 7,2 km/h (2 Bft) W-SW 244 0 min 0,000 mm 0,0 UV-I 9 W/m 3,4 C 4,0 C 12,9 km/h (3 Bft) 98,21 %
05.05.2019 20:10 4,7 C 12,8 C 4,4 C 91 % 1015,5 hPa 0,0 l/m 6,5 km/h (2 Bft) SW 222 0 min 0,000 mm 0,0 UV-I 8 W/m 3,4 C 4,6 C 9,7 km/h (2 Bft) 98,00 %
05.05.2019 20:12 4,7 C 12,8 C 4,4 C 91 % 1015,5 hPa 0,0 l/m 8,6 km/h (2 Bft) W-SW 242 0 min 0,000 mm 0,0 UV-I 7 W/m 3,4 C 2,8 C 12,9 km/h (3 Bft) 92,11 %
05.05.2019 20:14 4,7 C 12,8 C 4,4 C 91 % 1015,5 hPa 0,0 l/m 12,5 km/h (3 Bft) SW 232 0 min 0,000 mm 0,0 UV-I 7 W/m 3,4 C 0,1 C 17,7 km/h (3 Bft) 98,21 %
05.05.2019 20:16 4,6 C 12,8 C 4,4 C 91 % 1015,6 hPa 0,0 l/m 11,3 km/h (2 Bft) W-SW 244 0 min 0,000 mm 0,0 UV-I 6 W/m 3,3 C 0,7 C 17,7 km/h (3 Bft) 97,87 %
05.05.2019 20:18 4,6 C 12,8 C 4,4 C 91 % 1015,6 hPa 0,0 l/m 9,8 km/h (2 Bft) W-SW 253 0 min 0,000 mm 0,0 UV-I 5 W/m 3,3 C 1,8 C 14,5 km/h (3 Bft) 100,00 %
05.05.2019 20:20 4,6 C 12,8 C 4,4 C 91 % 1015,6 hPa 0,0 l/m 7,6 km/h (2 Bft) W-SW 239 0 min 0,000 mm 0,0 UV-I 5 W/m 3,3 C 3,5 C 16,1 km/h (3 Bft) 100,00 %
05.05.2019 20:22 4,6 C 12,8 C 4,4 C 91 % 1015,6 hPa 0,0 l/m 12,5 km/h (3 Bft) SW 230 0 min 0,000 mm 0,0 UV-I 5 W/m 3,3 C -0,0 C 19,3 km/h (3 Bft) 100,00 %
05.05.2019 20:24 4,6 C 12,8 C 4,4 C 91 % 1015,6 hPa 0,0 l/m 14,0 km/h (3 Bft) W-SW 253 0 min 0,000 mm 0,0 UV-I 5 W/m 3,3 C -0,9 C 17,7 km/h (3 Bft) 100,00 %
05.05.2019 20:26 4,6 C 12,8 C 4,4 C 92 % 1015,6 hPa 0,0 l/m 12,6 km/h (3 Bft) W-SW 243 0 min 0,000 mm 0,0 UV-I 5 W/m 3,4 C -0,1 C 19,3 km/h (3 Bft) 100,00 %
05.05.2019 20:28 4,6 C 12,8 C 4,4 C 92 % 1015,6 hPa 0,0 l/m 12,0 km/h (2 Bft) W 269 0 min 0,000 mm 0,0 UV-I 1 W/m 3,4 C 0,3 C 20,9 km/h (4 Bft) 100,00 %
05.05.2019 20:30 4,6 C 12,8 C 4,4 C 92 % 1015,6 hPa 0,0 l/m 9,9 km/h (2 Bft) W-SW 255 0 min 0,000 mm 0,0 UV-I 0 W/m 3,4 C 1,7 C 17,7 km/h (3 Bft) 97,37 %
05.05.2019 20:32 4,6 C 12,8 C 4,4 C 92 % 1015,7 hPa 0,0 l/m 14,2 km/h (3 Bft) W 262 0 min 0,000 mm 0,0 UV-I 0 W/m 3,4 C -1,0 C 20,9 km/h (4 Bft) 100,00 %
05.05.2019 20:34 4,5 C 12,8 C 3,9 C 92 % 1015,7 hPa 0,0 l/m 12,5 km/h (3 Bft) W-SW 257 0 min 0,000 mm 0,0 UV-I 0 W/m 3,3 C -0,1 C 17,7 km/h (3 Bft) 97,56 %
05.05.2019 20:36 4,5 C 12,8 C 3,9 C 92 % 1015,7 hPa 0,0 l/m 14,5 km/h (3 Bft) W-SW 237 0 min 0,000 mm 0,0 UV-I 0 W/m 3,3 C -1,3 C 19,3 km/h (3 Bft) 98,00 %
05.05.2019 20:38 4,5 C 12,8 C 3,9 C 92 % 1015,7 hPa 0,0 l/m 9,7 km/h (2 Bft) SW 236 0 min 0,000 mm 0,0 UV-I 0 W/m 3,3 C 1,7 C 14,5 km/h (3 Bft) 96,23 %
05.05.2019 20:40 4,5 C 12,8 C 3,9 C 92 % 1015,7 hPa 0,0 l/m 10,6 km/h (2 Bft) SW 222 0 min 0,000 mm 0,0 UV-I 0 W/m 3,3 C 1,1 C 17,7 km/h (3 Bft) 97,87 %
05.05.2019 20:42 4,5 C 12,8 C 3,9 C 92 % 1015,7 hPa 0,0 l/m 10,3 km/h (2 Bft) SW 233 0 min 0,000 mm 0,0 UV-I 0 W/m 3,3 C 1,3 C 17,7 km/h (3 Bft) 98,00 %
05.05.2019 20:44 4,4 C 12,8 C 3,9 C 92 % 1015,7 hPa 0,0 l/m 11,8 km/h (2 Bft) SW 225 0 min 0,000 mm 0,0 UV-I 0 W/m 3,2 C 0,2 C 16,1 km/h (3 Bft) 93,62 %
05.05.2019 20:46 4,4 C 12,8 C 3,9 C 92 % 1015,7 hPa 0,0 l/m 12,2 km/h (2 Bft) S-SW 208 0 min 0,000 mm 0,0 UV-I 0 W/m 3,2 C -0,1 C 17,7 km/h (3 Bft) 95,12 %
05.05.2019 20:48 4,3 C 12,8 C 3,9 C 92 % 1015,7 hPa 0,0 l/m 13,3 km/h (3 Bft) S-SW 212 0 min 0,000 mm 0,0 UV-I 0 W/m 3,1 C -0,8 C 17,7 km/h (3 Bft) 98,00 %
05.05.2019 20:50 4,3 C 12,8 C 3,9 C 92 % 1015,8 hPa 0,0 l/m 12,1 km/h (2 Bft) SW 216 0 min 0,000 mm 0,0 UV-I 0 W/m 3,1 C -0,1 C 19,3 km/h (3 Bft) 97,56 %
05.05.2019 20:52 4,3 C 12,8 C 3,9 C 92 % 1015,7 hPa 0,0 l/m 9,7 km/h (2 Bft) SW 228 0 min 0,000 mm 0,0 UV-I 0 W/m 3,1 C 1,5 C 17,7 km/h (3 Bft) 98,04 %
05.05.2019 20:54 4,3 C 12,8 C 3,9 C 92 % 1015,8 hPa 0,0 l/m 13,3 km/h (3 Bft) SW 225 0 min 0,000 mm 0,0 UV-I 0 W/m 3,1 C -0,8 C 20,9 km/h (4 Bft) 97,83 %
05.05.2019 20:56 4,3 C 12,8 C 3,9 C 92 % 1015,8 hPa 0,0 l/m 10,6 km/h (2 Bft) SW 217 0 min 0,000 mm 0,0 UV-I 0 W/m 3,1 C 0,9 C 16,1 km/h (3 Bft) 97,92 %
05.05.2019 20:58 4,3 C 12,8 C 3,9 C 92 % 1015,8 hPa 0,0 l/m 10,2 km/h (2 Bft) SW 225 0 min 0,000 mm 0,0 UV-I 0 W/m 3,1 C 1,2 C 16,1 km/h (3 Bft) 97,87 %
05.05.2019 21:00 4,3 C 12,8 C 3,9 C 92 % 1015,8 hPa 0,0 l/m 9,6 km/h (2 Bft) SW 229 0 min 0,000 mm 0,0 UV-I 0 W/m 3,1 C 1,6 C 19,3 km/h (3 Bft) 97,87 %
05.05.2019 21:02 4,3 C 12,2 C 3,9 C 92 % 1015,9 hPa 0,0 l/m 12,5 km/h (3 Bft) W-SW 242 0 min 0,000 mm 0,0 UV-I 0 W/m 3,1 C -0,4 C 17,7 km/h (3 Bft) 97,56 %
05.05.2019 21:04 4,3 C 12,8 C 3,9 C 92 % 1015,9 hPa 0,0 l/m 11,5 km/h (2 Bft) W-SW 256 0 min 0,000 mm 0,0 UV-I 0 W/m 3,1 C 0,3 C 17,7 km/h (3 Bft) 96,00 %
05.05.2019 21:06 4,3 C 12,8 C 3,9 C 92 % 1015,9 hPa 0,0 l/m 10,7 km/h (2 Bft) SW 230 0 min 0,000 mm 0,0 UV-I 0 W/m 3,1 C 0,8 C 16,1 km/h (3 Bft) 97,87 %
05.05.2019 21:08 4,2 C 12,2 C 3,9 C 92 % 1015,9 hPa 0,0 l/m 11,3 km/h (2 Bft) W 260 0 min 0,000 mm 0,0 UV-I 0 W/m 3,0 C 0,3 C 16,1 km/h (3 Bft) 97,73 %
05.05.2019 21:10 4,2 C 12,8 C 3,9 C 92 % 1016,0 hPa 0,0 l/m 10,4 km/h (2 Bft) W-SW 252 0 min 0,000 mm 0,0 UV-I 0 W/m 3,0 C 0,9 C 16,1 km/h (3 Bft) 97,87 %
05.05.2019 21:12 4,2 C 12,2 C 3,9 C 91 % 1016,0 hPa 0,0 l/m 13,8 km/h (3 Bft) SW 217 0 min 0,000 mm 0,0 UV-I 0 W/m 2,9 C -1,2 C 19,3 km/h (3 Bft) 96,00 %
05.05.2019 21:14 4,2 C 12,2 C 3,9 C 91 % 1016,1 hPa 0,0 l/m 12,8 km/h (3 Bft) S-SW 213 0 min 0,000 mm 0,0 UV-I 0 W/m 2,9 C -0,7 C 17,7 km/h (3 Bft) 94,00 %
05.05.2019 21:16 4,2 C 12,2 C 3,9 C 91 % 1016,1 hPa 0,0 l/m 11,5 km/h (2 Bft) W-SW 250 0 min 0,000 mm 0,0 UV-I 0 W/m 2,9 C 0,2 C 14,5 km/h (3 Bft) 95,45 %
05.05.2019 21:18 4,2 C 12,2 C 3,9 C 91 % 1016,1 hPa 0,0 l/m 12,2 km/h (2 Bft) S-SW 213 0 min 0,000 mm 0,0 UV-I 0 W/m 2,9 C -0,3 C 20,9 km/h (4 Bft) 97,37 %
05.05.2019 21:20 4,2 C 12,2 C 3,9 C 91 % 1016,1 hPa 0,0 l/m 11,5 km/h (2 Bft) SW 228 0 min 0,000 mm 0,0 UV-I 0 W/m 2,9 C 0,2 C 17,7 km/h (3 Bft) 96,43 %
05.05.2019 21:22 4,2 C 12,2 C 3,9 C 91 % 1016,1 hPa 0,0 l/m 11,2 km/h (2 Bft) S-SW 202 0 min 0,000 mm 0,0 UV-I 0 W/m 2,9 C 0,4 C 17,7 km/h (3 Bft) 98,00 %
05.05.2019 21:24 4,2 C 12,2 C 3,9 C 91 % 1016,2 hPa 0,0 l/m 10,2 km/h (2 Bft) W 275 0 min 0,000 mm 0,0 UV-I 0 W/m 2,9 C 1,0 C 17,7 km/h (3 Bft) 95,74 %
05.05.2019 21:26 4,2 C 12,2 C 3,9 C 91 % 1016,2 hPa 0,0 l/m 12,5 km/h (3 Bft) W-SW 254 0 min 0,000 mm 0,0 UV-I 0 W/m 2,9 C -0,5 C 19,3 km/h (3 Bft) 95,12 %
05.05.2019 21:29 4,2 C 12,2 C 3,9 C 91 % 1016,2 hPa 0,0 l/m 13,7 km/h (3 Bft) W-SW 248 0 min 0,000 mm 0,0 UV-I 0 W/m 2,9 C -1,2 C 20,9 km/h (4 Bft) 97,30 %
05.05.2019 21:30 4,2 C 12,2 C 3,9 C 91 % 1016,2 hPa 0,0 l/m 13,8 km/h (3 Bft) W-SW 255 0 min 0,000 mm 0,0 UV-I 0 W/m 2,9 C -1,2 C 17,7 km/h (3 Bft) 100,00 %
05.05.2019 21:32 4,2 C 12,2 C 3,9 C 91 % 1016,2 hPa 0,0 l/m 14,9 km/h (3 Bft) W-SW 237 0 min 0,000 mm 0,0 UV-I 0 W/m 2,9 C -1,8 C 20,9 km/h (4 Bft) 97,62 %
05.05.2019 21:34 4,2 C 12,2 C 3,9 C 91 % 1016,3 hPa 0,0 l/m 16,8 km/h (3 Bft) W-SW 240 0 min 0,000 mm 0,0 UV-I 0 W/m 2,9 C -2,8 C 24,1 km/h (4 Bft) 100,00 %
05.05.2019 21:36 4,2 C 12,2 C 3,9 C 91 % 1016,3 hPa 0,0 l/m 12,7 km/h (3 Bft) SW 233 0 min 0,000 mm 0,0 UV-I 0 W/m 2,9 C -0,6 C 16,1 km/h (3 Bft) 97,37 %
05.05.2019 21:38 4,2 C 12,2 C 3,9 C 91 % 1016,3 hPa 0,0 l/m 12,6 km/h (3 Bft) SW 227 0 min 0,000 mm 0,0 UV-I 0 W/m 2,9 C -0,5 C 20,9 km/h (4 Bft) 100,00 %
05.05.2019 21:40 4,2 C 12,2 C 3,9 C 91 % 1016,4 hPa 0,0 l/m 11,9 km/h (2 Bft) W 261 0 min 0,000 mm 0,0 UV-I 0 W/m 2,9 C -0,1 C 19,3 km/h (3 Bft) 94,00 %
05.05.2019 21:42 4,2 C 12,2 C 3,9 C 91 % 1016,4 hPa 0,0 l/m 14,2 km/h (3 Bft) W 263 0 min 0,000 mm 0,0 UV-I 0 W/m 2,9 C -1,5 C 20,9 km/h (4 Bft) 100,00 %
05.05.2019 21:44 4,2 C 12,2 C 3,9 C 91 % 1016,4 hPa 0,0 l/m 10,7 km/h (2 Bft) SW 214 0 min 0,000 mm 0,0 UV-I 0 W/m 2,9 C 0,7 C 17,7 km/h (3 Bft) 100,00 %
05.05.2019 21:46 4,2 C 12,2 C 3,9 C 91 % 1016,3 hPa 0,0 l/m 12,9 km/h (3 Bft) S-SW 209 0 min 0,000 mm 0,0 UV-I 0 W/m 2,9 C -0,7 C 22,5 km/h (4 Bft) 100,00 %
05.05.2019 21:48 4,2 C 12,2 C 3,9 C 91 % 1016,3 hPa 0,0 l/m 12,0 km/h (2 Bft) SW 227 0 min 0,000 mm 0,0 UV-I 0 W/m 2,9 C -0,2 C 14,5 km/h (3 Bft) 98,00 %
05.05.2019 21:50 4,2 C 12,2 C 3,9 C 91 % 1016,3 hPa 0,0 l/m 10,1 km/h (2 Bft) S-SW 211 0 min 0,000 mm 0,0 UV-I 0 W/m 2,9 C 1,1 C 16,1 km/h (3 Bft) 100,00 %
05.05.2019 21:52 4,2 C 12,2 C 3,9 C 91 % 1016,3 hPa 0,0 l/m 9,5 km/h (2 Bft) SW 227 0 min 0,000 mm 0,0 UV-I 0 W/m 2,9 C 1,6 C 14,5 km/h (3 Bft) 100,00 %
05.05.2019 21:54 4,2 C 12,2 C 3,9 C 91 % 1016,3 hPa 0,0 l/m 12,6 km/h (3 Bft) S-SW 206 0 min 0,000 mm 0,0 UV-I 0 W/m 2,9 C -0,5 C 19,3 km/h (3 Bft) 100,00 %
05.05.2019 21:56 4,2 C 12,2 C 3,9 C 91 % 1016,3 hPa 0,0 l/m 10,4 km/h (2 Bft) SW 227 0 min 0,000 mm 0,0 UV-I 0 W/m 2,9 C 0,9 C 19,3 km/h (3 Bft) 100,00 %
05.05.2019 21:59 4,2 C 12,2 C 3,9 C 91 % 1016,3 hPa 0,0 l/m 11,0 km/h (2 Bft) S-SW 194 0 min 0,000 mm 0,0 UV-I 0 W/m 2,9 C 0,5 C 20,9 km/h (4 Bft) 98,75 %
05.05.2019 22:00 4,2 C 12,2 C 3,9 C 91 % 1016,3 hPa 0,0 l/m 13,7 km/h (3 Bft) SW 223 0 min 0,000 mm 0,0 UV-I 0 W/m 2,9 C -1,2 C 19,3 km/h (3 Bft) 100,00 %
05.05.2019 22:02 4,2 C 12,2 C 3,9 C 91 % 1016,3 hPa 0,0 l/m 11,5 km/h (2 Bft) SW 218 0 min 0,000 mm 0,0 UV-I 0 W/m 2,9 C 0,2 C 17,7 km/h (3 Bft) 98,00 %
05.05.2019 22:04 4,2 C 12,2 C 3,9 C 91 % 1016,3 hPa 0,0 l/m 13,3 km/h (3 Bft) S-SW 205 0 min 0,000 mm 0,0 UV-I 0 W/m 2,9 C -1,0 C 17,7 km/h (3 Bft) 100,00 %
05.05.2019 22:06 4,2 C 12,2 C 3,9 C 91 % 1016,3 hPa 0,0 l/m 10,6 km/h (2 Bft) W-SW 239 0 min 0,000 mm 0,0 UV-I 0 W/m 2,9 C 0,8 C 16,1 km/h (3 Bft) 100,00 %
05.05.2019 22:08 4,2 C 12,2 C 3,9 C 91 % 1016,3 hPa 0,0 l/m 9,5 km/h (2 Bft) SW 229 0 min 0,000 mm 0,0 UV-I 0 W/m 2,9 C 1,6 C 12,9 km/h (3 Bft) 96,00 %
05.05.2019 22:10 4,2 C 12,2 C 3,9 C 91 % 1016,4 hPa 0,0 l/m 6,8 km/h (2 Bft) S-SW 201 0 min 0,000 mm 0,0 UV-I 0 W/m 2,9 C 3,8 C 11,3 km/h (2 Bft) 100,00 %
05.05.2019 22:12 4,2 C 12,2 C 3,9 C 91 % 1016,4 hPa 0,0 l/m 5,6 km/h (1 Bft) SW 229 0 min 0,000 mm 0,0 UV-I 0 W/m 2,9 C 4,2 C 8,0 km/h (2 Bft) 97,62 %
05.05.2019 22:14 4,2 C 12,2 C 4,4 C 91 % 1016,4 hPa 0,0 l/m 5,7 km/h (1 Bft) W-SW 241 0 min 0,000 mm 0,0 UV-I 0 W/m 2,9 C 4,2 C 11,3 km/h (2 Bft) 97,87 %
05.05.2019 22:16 4,2 C 12,2 C 3,9 C 91 % 1016,4 hPa 0,0 l/m 8,9 km/h (2 Bft) S-SW 208 0 min 0,000 mm 0,0 UV-I 0 W/m 2,9 C 2,0 C 12,9 km/h (3 Bft) 97,37 %
05.05.2019 22:18 4,2 C 12,2 C 3,9 C 91 % 1016,4 hPa 0,0 l/m 8,5 km/h (2 Bft) SW 217 0 min 0,000 mm 0,0 UV-I 0 W/m 2,9 C 2,3 C 12,9 km/h (3 Bft) 98,31 %
05.05.2019 22:20 4,2 C 12,2 C 3,9 C 91 % 1016,4 hPa 0,0 l/m 7,8 km/h (2 Bft) SW 215 0 min 0,000 mm 0,0 UV-I 0 W/m 2,9 C 2,9 C 11,3 km/h (2 Bft) 98,00 %
05.05.2019 22:22 4,2 C 12,2 C 3,9 C 91 % 1016,5 hPa 0,0 l/m 8,9 km/h (2 Bft) SW 222 0 min 0,000 mm 0,0 UV-I 0 W/m 2,9 C 2,0 C 14,5 km/h (3 Bft) 97,14 %
05.05.2019 22:24 4,2 C 12,2 C 3,9 C 91 % 1016,4 hPa 0,0 l/m 9,5 km/h (2 Bft) S-SW 203 0 min 0,000 mm 0,0 UV-I 0 W/m 2,9 C 1,6 C 12,9 km/h (3 Bft) 93,22 %
05.05.2019 22:26 4,2 C 12,2 C 3,9 C 91 % 1016,3 hPa 0,0 l/m 7,9 km/h (2 Bft) SW 221 0 min 0,000 mm 0,0 UV-I 0 W/m 2,9 C 2,8 C 9,7 km/h (2 Bft) 97,56 %
05.05.2019 22:28 4,2 C 12,2 C 3,9 C 91 % 1016,3 hPa 0,0 l/m 8,3 km/h (2 Bft) W-SW 242 0 min 0,000 mm 0,0 UV-I 0 W/m 2,9 C 2,5 C 12,9 km/h (3 Bft) 98,11 %
05.05.2019 22:30 4,2 C 12,2 C 3,9 C 91 % 1016,3 hPa 0,0 l/m 9,7 km/h (2 Bft) SW 220 0 min 0,000 mm 0,0 UV-I 0 W/m 2,9 C 1,4 C 16,1 km/h (3 Bft) 97,87 %
05.05.2019 22:32 4,1 C 12,2 C 3,9 C 91 % 1016,3 hPa 0,0 l/m 13,0 km/h (3 Bft) S 180 0 min 0,000 mm 0,0 UV-I 0 W/m 2,8 C -0,9 C 19,3 km/h (3 Bft) 94,74 %
05.05.2019 22:34 4,1 C 12,2 C 3,9 C 91 % 1016,3 hPa 0,0 l/m 7,1 km/h (2 Bft) SW 236 0 min 0,000 mm 0,0 UV-I 0 W/m 2,8 C 3,5 C 11,3 km/h (2 Bft) 96,23 %
05.05.2019 22:36 4,1 C 12,2 C 3,9 C 91 % 1016,4 hPa 0,0 l/m 6,9 km/h (2 Bft) SW 226 0 min 0,000 mm 0,0 UV-I 0 W/m 2,8 C 3,7 C 9,7 km/h (2 Bft) 91,49 %
05.05.2019 22:38 4,1 C 12,2 C 3,9 C 91 % 1016,3 hPa 0,0 l/m 5,1 km/h (1 Bft) S-SW 207 0 min 0,000 mm 0,0 UV-I 0 W/m 2,8 C 4,1 C 9,7 km/h (2 Bft) 95,45 %
05.05.2019 22:40 4,1 C 12,2 C 3,9 C 91 % 1016,3 hPa 0,0 l/m 5,3 km/h (1 Bft) SW 225 0 min 0,000 mm 0,0 UV-I 0 W/m 2,8 C 4,1 C 8,0 km/h (2 Bft) 97,56 %
05.05.2019 22:42 4,1 C 12,2 C 3,9 C 91 % 1016,3 hPa 0,0 l/m 6,1 km/h (2 Bft) SW 216 0 min 0,000 mm 0,0 UV-I 0 W/m 2,8 C 4,1 C 8,0 km/h (2 Bft) 94,34 %
05.05.2019 22:44 4,1 C 12,2 C 3,9 C 91 % 1016,3 hPa 0,0 l/m 4,6 km/h (1 Bft) S-SW 192 0 min 0,000 mm 0,0 UV-I 0 W/m 2,8 C 4,1 C 6,4 km/h (2 Bft) 96,00 %
05.05.2019 22:46 4,1 C 12,2 C 3,9 C 91 % 1016,3 hPa 0,0 l/m 4,6 km/h (1 Bft) S-SW 209 0 min 0,000 mm 0,0 UV-I 0 W/m 2,8 C 4,1 C 8,0 km/h (2 Bft) 92,31 %
05.05.2019 22:48 4,1 C 12,2 C 3,9 C 92 % 1016,3 hPa 0,0 l/m 3,2 km/h (1 Bft) SW 230 0 min 0,000 mm 0,0 UV-I 0 W/m 2,9 C 4,1 C 6,4 km/h (2 Bft) 92,31 %
05.05.2019 22:50 4,2 C 12,2 C 3,9 C 91 % 1016,3 hPa 0,0 l/m 2,5 km/h (1 Bft) SW 230 0 min 0,000 mm 0,0 UV-I 0 W/m 2,9 C 4,2 C 4,8 km/h (1 Bft) 90,00 %
05.05.2019 22:52 4,2 C 12,2 C 3,9 C 91 % 1016,3 hPa 0,0 l/m 2,3 km/h (1 Bft) SW 230 0 min 0,000 mm 0,0 UV-I 0 W/m 2,9 C 4,2 C 3,2 km/h (1 Bft) 92,31 %
05.05.2019 22:54 4,2 C 12,2 C 3,9 C 91 % 1016,4 hPa 0,0 l/m 0,7 km/h (0 Bft) SW 230 0 min 0,000 mm 0,0 UV-I 0 W/m 2,9 C 4,2 C 3,2 km/h (1 Bft) 96,00 %
05.05.2019 22:56 4,3 C 12,2 C 3,9 C 91 % 1016,3 hPa 0,0 l/m 1,7 km/h (1 Bft) SW 231 0 min 0,000 mm 0,0 UV-I 0 W/m 3,0 C 4,3 C 3,2 km/h (1 Bft) 95,74 %
05.05.2019 22:58 4,2 C 12,2 C 3,9 C 91 % 1016,3 hPa 0,0 l/m 2,2 km/h (1 Bft) SW 230 0 min 0,000 mm 0,0 UV-I 0 W/m 2,9 C 4,2 C 4,8 km/h (1 Bft) 96,23 %
05.05.2019 23:00 4,2 C 12,2 C 4,4 C 91 % 1016,3 hPa 0,0 l/m 1,9 km/h (1 Bft) SW 230 0 min 0,000 mm 0,0 UV-I 0 W/m 2,9 C 4,2 C 3,2 km/h (1 Bft) 94,29 %
05.05.2019 23:02 4,2 C 12,2 C 4,4 C 91 % 1016,4 hPa 0,0 l/m 2,3 km/h (1 Bft) SW 230 0 min 0,000 mm 0,0 UV-I 0 W/m 2,9 C 4,2 C 4,8 km/h (1 Bft) 96,00 %
05.05.2019 23:04 4,2 C 12,2 C 4,4 C 92 % 1016,3 hPa 0,0 l/m 0,9 km/h (0 Bft) SW 230 0 min 0,000 mm 0,0 UV-I 0 W/m 3,0 C 4,2 C 3,2 km/h (1 Bft) 94,00 %
05.05.2019 23:06 4,2 C 12,2 C 3,9 C 91 % 1016,3 hPa 0,0 l/m 0,0 km/h (0 Bft) SW 230 0 min 0,000 mm 0,0 UV-I 0 W/m 2,9 C 4,2 C 0,0 km/h (0 Bft) 95,74 %
05.05.2019 23:08 4,2 C 12,2 C 3,9 C 92 % 1016,4 hPa 0,0 l/m 0,1 km/h (0 Bft) SW 230 0 min 0,000 mm 0,0 UV-I 0 W/m 3,0 C 4,2 C 1,6 km/h (1 Bft) 95,74 %
05.05.2019 23:10 4,2 C 12,2 C 3,9 C 92 % 1016,3 hPa 0,0 l/m 1,4 km/h (1 Bft) SW 230 0 min 0,000 mm 0,0 UV-I 0 W/m 3,0 C 4,2 C 3,2 km/h (1 Bft) 95,12 %
05.05.2019 23:12 4,2 C 12,2 C 4,4 C 92 % 1016,4 hPa 0,0 l/m 2,7 km/h (1 Bft) SW 230 0 min 0,000 mm 0,0 UV-I 0 W/m 3,0 C 4,2 C 3,2 km/h (1 Bft) 96,23 %
05.05.2019 23:14 4,2 C 12,2 C 4,4 C 92 % 1016,4 hPa 0,0 l/m 2,5 km/h (1 Bft) SW 230 0 min 0,000 mm 0,0 UV-I 0 W/m 3,0 C 4,2 C 3,2 km/h (1 Bft) 97,87 %
05.05.2019 23:16 4,2 C 12,2 C 4,4 C 92 % 1016,3 hPa 0,0 l/m 2,4 km/h (1 Bft) SW 230 0 min 0,000 mm 0,0 UV-I 0 W/m 3,0 C 4,2 C 3,2 km/h (1 Bft) 98,00 %
05.05.2019 23:18 4,2 C 12,2 C 4,4 C 92 % 1016,3 hPa 0,0 l/m 3,1 km/h (1 Bft) SW 229 0 min 0,000 mm 0,0 UV-I 0 W/m 3,0 C 4,2 C 4,8 km/h (1 Bft) 97,37 %
05.05.2019 23:20 4,3 C 12,2 C 4,4 C 92 % 1016,4 hPa 0,0 l/m 3,2 km/h (1 Bft) SW 229 0 min 0,000 mm 0,0 UV-I 0 W/m 3,1 C 4,3 C 4,8 km/h (1 Bft) 98,00 %
05.05.2019 23:22 4,3 C 12,2 C 4,4 C 92 % 1016,4 hPa 0,0 l/m 4,0 km/h (1 Bft) SW 229 0 min 0,000 mm 0,0 UV-I 0 W/m 3,1 C 4,3 C 6,4 km/h (2 Bft) 93,62 %
05.05.2019 23:24 4,3 C 12,2 C 4,4 C 91 % 1016,4 hPa 0,0 l/m 5,4 km/h (1 Bft) SW 222 0 min 0,000 mm 0,0 UV-I 0 W/m 3,0 C 4,3 C 9,7 km/h (2 Bft) 98,11 %
05.05.2019 23:26 4,3 C 12,2 C 4,4 C 91 % 1016,4 hPa 0,0 l/m 5,6 km/h (1 Bft) S-SW 209 0 min 0,000 mm 0,0 UV-I 0 W/m 3,0 C 4,3 C 8,0 km/h (2 Bft) 100,00 %
05.05.2019 23:28 4,3 C 12,2 C 4,4 C 91 % 1016,4 hPa 0,0 l/m 5,0 km/h (1 Bft) SW 236 0 min 0,000 mm 0,0 UV-I 0 W/m 3,0 C 4,3 C 9,7 km/h (2 Bft) 100,00 %
05.05.2019 23:30 4,3 C 12,2 C 4,4 C 91 % 1016,4 hPa 0,0 l/m 4,3 km/h (1 Bft) W-SW 258 0 min 0,000 mm 0,0 UV-I 0 W/m 3,0 C 4,3 C 8,0 km/h (2 Bft) 100,00 %
05.05.2019 23:32 4,3 C 12,2 C 4,4 C 90 % 1016,4 hPa 0,0 l/m 3,8 km/h (1 Bft) W-SW 247 0 min 0,000 mm 0,0 UV-I 0 W/m 2,8 C 4,3 C 6,4 km/h (2 Bft) 94,74 %
05.05.2019 23:34 4,3 C 12,2 C 4,4 C 90 % 1016,4 hPa 0,0 l/m 3,0 km/h (1 Bft) SW 229 0 min 0,000 mm 0,0 UV-I 0 W/m 2,8 C 4,3 C 4,8 km/h (1 Bft) 100,00 %
05.05.2019 23:36 4,3 C 12,2 C 4,4 C 90 % 1016,4 hPa 0,0 l/m 0,4 km/h (0 Bft) SW 229 0 min 0,000 mm 0,0 UV-I 0 W/m 2,8 C 4,3 C 1,6 km/h (1 Bft) 100,00 %
05.05.2019 23:38 4,3 C 12,2 C 4,4 C 90 % 1016,5 hPa 0,0 l/m 0,7 km/h (0 Bft) SW 229 0 min 0,000 mm 0,0 UV-I 0 W/m 2,8 C 4,3 C 3,2 km/h (1 Bft) 100,00 %
05.05.2019 23:40 4,3 C 12,2 C 4,4 C 91 % 1016,5 hPa 0,0 l/m 0,9 km/h (0 Bft) SW 229 0 min 0,000 mm 0,0 UV-I 0 W/m 3,0 C 4,3 C 3,2 km/h (1 Bft) 100,00 %
05.05.2019 23:42 4,3 C 12,2 C 4,4 C 91 % 1016,5 hPa 0,0 l/m 3,2 km/h (1 Bft) SW 215 0 min 0,000 mm 0,0 UV-I 0 W/m 3,0 C 4,3 C 4,8 km/h (1 Bft) 100,00 %
05.05.2019 23:44 4,3 C 12,2 C 4,4 C 91 % 1016,4 hPa 0,0 l/m 3,2 km/h (1 Bft) W-SW 247 0 min 0,000 mm 0,0 UV-I 0 W/m 3,0 C 4,3 C 8,0 km/h (2 Bft) 100,00 %
05.05.2019 23:46 4,3 C 12,2 C 4,4 C 91 % 1016,4 hPa 0,0 l/m 4,1 km/h (1 Bft) N-NO 25 0 min 0,000 mm 0,0 UV-I 0 W/m 3,0 C 4,3 C 6,4 km/h (2 Bft) 97,37 %
05.05.2019 23:48 4,2 C 12,2 C 4,4 C 90 % 1016,5 hPa 0,0 l/m 3,7 km/h (1 Bft) N 349 0 min 0,000 mm 0,0 UV-I 0 W/m 2,7 C 4,2 C 4,8 km/h (1 Bft) 100,00 %
05.05.2019 23:50 4,2 C 12,2 C 3,9 C 90 % 1016,5 hPa 0,0 l/m 2,7 km/h (1 Bft) N-NW 329 0 min 0,000 mm 0,0 UV-I 0 W/m 2,7 C 4,2 C 4,8 km/h (1 Bft) 100,00 %
05.05.2019 23:52 4,3 C 12,2 C 3,9 C 90 % 1016,5 hPa 0,2 l/m 1,2 km/h (1 Bft) N-NW 329 0 min 0,000 mm 0,0 UV-I 0 W/m 2,8 C 4,3 C 1,6 km/h (1 Bft) 95,74 %
05.05.2019 23:54 4,2 C 12,2 C 4,4 C 91 % 1016,5 hPa 0,0 l/m 0,2 km/h (0 Bft) N-NW 329 0 min 0,000 mm 0,0 UV-I 0 W/m 2,9 C 4,2 C 1,6 km/h (1 Bft) 98,11 %
05.05.2019 23:56 4,2 C 12,2 C 4,4 C 91 % 1016,5 hPa 0,0 l/m 0,1 km/h (0 Bft) N-NW 329 0 min 0,000 mm 0,0 UV-I 0 W/m 2,9 C 4,2 C 1,6 km/h (1 Bft) 97,37 %
05.05.2019 23:58 4,2 C 12,2 C 4,4 C 91 % 1016,5 hPa 0,0 l/m 2,0 km/h (1 Bft) N-NW 333 0 min 0,000 mm 0,0 UV-I 0 W/m 2,9 C 4,2 C 3,2 km/h (1 Bft) 98,11 %
_ Min-Zeit 03:36 21:02 03:34 16:56 00:01 - 23:06 - - - - - - 03:32 05:08 23:06 00:02
Minimum _ 1,6 C 12,2 C 1,7 C 68 % 1006,9 hPa - 0,0 km/h (0 Bft) - - - - - - 1,0 C -6,0 C 0,0 km/h (0 Bft) 86,67 %
_ Max-Zeit 16:48 00:01 12:30 03:58 22:22 00:10 00:56 - - 12:26 13:00 12:28 12:30 15:38 16:48 01:04 00:01
Maximum _ 6,9 C 13,9 C 11,7 C 96 % 1016,5 hPa 0,2 l/m 19,2 km/h
W (3 Bft)
- - 2 min 0,127 mm 2,5 UV-I 534 W/m 4,5 C 6,9 C 29,0 km/h
W (5 Bft)
100,00 %
Durchschnitt _ 4,0 C 12,9 C 4,9 C 91 % 1013,0 hPa #8,6 l/m 9,0 km/h (2 Bft) W-SW - #12 min. #0,914 mm 0,9 UV-I 137 W/m 2,7 C 1,5 C 14,5 km/h (3 Bft) 97,45 %